<?xml version="1.0" encoding="UTF-8" standalone="no" ?>
<gpx xmlns="http://www.topografix.com/GPX/1/1" xmlns:xsi="http://www.w3.org/2001/XMLSchema-instance" xsi:schemaLocation="http://www.topografix.com/GPX/1/1 http://www.topografix.com/GPX/1/1/gpx.xsd" version="1.1" creator="VisuGPX - https://www.visugpx.com">
  <metadata>
    <name>Metz-Madine</name>
    <desc><![CDATA[Pour aller boire une bière au bord de la mer lorraine]]></desc>
  </metadata>
  <trk>
    <name><![CDATA[2012-08-17T06:03:35Z]]></name>
    <trkseg>
      <trkpt lat="49.12232" lon="6.15195">
        <ele>174.1358643</ele>
        <time>2012-08-17T06:03:35Z</time>
      </trkpt>
      <trkpt lat="49.12232" lon="6.15195">
        <ele>174.1358643</ele>
        <time>2012-08-17T06:03:36Z</time>
      </trkpt>
      <trkpt lat="49.12231" lon="6.15195">
        <ele>177.5006104</ele>
        <time>2012-08-17T06:03:37Z</time>
      </trkpt>
      <trkpt lat="49.12227" lon="6.15192">
        <ele>173.6552734</ele>
        <time>2012-08-17T06:03:56Z</time>
      </trkpt>
      <trkpt lat="49.12227" lon="6.15192">
        <ele>173.6552734</ele>
        <time>2012-08-17T06:03:57Z</time>
      </trkpt>
      <trkpt lat="49.1222" lon="6.15187">
        <ele>173.6552734</ele>
        <time>2012-08-17T06:04:01Z</time>
      </trkpt>
      <trkpt lat="49.12207" lon="6.15188">
        <ele>173.1746826</ele>
        <time>2012-08-17T06:04:09Z</time>
      </trkpt>
      <trkpt lat="49.12203" lon="6.15189">
        <ele>173.1746826</ele>
        <time>2012-08-17T06:04:11Z</time>
      </trkpt>
      <trkpt lat="49.12197" lon="6.1518">
        <ele>173.1746826</ele>
        <time>2012-08-17T06:04:15Z</time>
      </trkpt>
      <trkpt lat="49.12184" lon="6.15137">
        <ele>173.6552734</ele>
        <time>2012-08-17T06:04:23Z</time>
      </trkpt>
      <trkpt lat="49.1217" lon="6.15092">
        <ele>173.1746826</ele>
        <time>2012-08-17T06:04:29Z</time>
      </trkpt>
      <trkpt lat="49.12151" lon="6.15035">
        <ele>173.6552734</ele>
        <time>2012-08-17T06:04:37Z</time>
      </trkpt>
      <trkpt lat="49.12134" lon="6.14986">
        <ele>174.1358643</ele>
        <time>2012-08-17T06:04:44Z</time>
      </trkpt>
      <trkpt lat="49.12115" lon="6.14925">
        <ele>174.1358643</ele>
        <time>2012-08-17T06:04:53Z</time>
      </trkpt>
      <trkpt lat="49.12101" lon="6.14883">
        <ele>174.1358643</ele>
        <time>2012-08-17T06:05:01Z</time>
      </trkpt>
      <trkpt lat="49.12098" lon="6.14871">
        <ele>174.6165771</ele>
        <time>2012-08-17T06:05:03Z</time>
      </trkpt>
      <trkpt lat="49.12085" lon="6.14828">
        <ele>174.6165771</ele>
        <time>2012-08-17T06:05:10Z</time>
      </trkpt>
      <trkpt lat="49.12069" lon="6.1478">
        <ele>174.6165771</ele>
        <time>2012-08-17T06:05:17Z</time>
      </trkpt>
      <trkpt lat="49.12054" lon="6.14728">
        <ele>174.1358643</ele>
        <time>2012-08-17T06:05:24Z</time>
      </trkpt>
      <trkpt lat="49.12033" lon="6.1466">
        <ele>174.6165771</ele>
        <time>2012-08-17T06:05:33Z</time>
      </trkpt>
      <trkpt lat="49.12015" lon="6.14596">
        <ele>174.1358643</ele>
        <time>2012-08-17T06:05:42Z</time>
      </trkpt>
      <trkpt lat="49.12002" lon="6.14553">
        <ele>174.6165771</ele>
        <time>2012-08-17T06:05:47Z</time>
      </trkpt>
      <trkpt lat="49.1197" lon="6.14482">
        <ele>175.09729</ele>
        <time>2012-08-17T06:05:55Z</time>
      </trkpt>
      <trkpt lat="49.11934" lon="6.14422">
        <ele>175.5778809</ele>
        <time>2012-08-17T06:06:02Z</time>
      </trkpt>
      <trkpt lat="49.11897" lon="6.14373">
        <ele>175.09729</ele>
        <time>2012-08-17T06:06:09Z</time>
      </trkpt>
      <trkpt lat="49.11867" lon="6.1434">
        <ele>174.1358643</ele>
        <time>2012-08-17T06:06:15Z</time>
      </trkpt>
      <trkpt lat="49.11862" lon="6.14335">
        <ele>174.1358643</ele>
        <time>2012-08-17T06:06:16Z</time>
      </trkpt>
      <trkpt lat="49.11827" lon="6.14299">
        <ele>174.6165771</ele>
        <time>2012-08-17T06:06:23Z</time>
      </trkpt>
      <trkpt lat="49.11789" lon="6.14264">
        <ele>174.1358643</ele>
        <time>2012-08-17T06:06:31Z</time>
      </trkpt>
      <trkpt lat="49.1175" lon="6.14223">
        <ele>174.1358643</ele>
        <time>2012-08-17T06:06:39Z</time>
      </trkpt>
      <trkpt lat="49.11706" lon="6.14183">
        <ele>174.6165771</ele>
        <time>2012-08-17T06:06:48Z</time>
      </trkpt>
      <trkpt lat="49.11668" lon="6.14144">
        <ele>174.1358643</ele>
        <time>2012-08-17T06:06:56Z</time>
      </trkpt>
      <trkpt lat="49.11634" lon="6.14114">
        <ele>174.6165771</ele>
        <time>2012-08-17T06:07:03Z</time>
      </trkpt>
      <trkpt lat="49.11585" lon="6.14082">
        <ele>174.1358643</ele>
        <time>2012-08-17T06:07:12Z</time>
      </trkpt>
      <trkpt lat="49.11531" lon="6.1405">
        <ele>174.1358643</ele>
        <time>2012-08-17T06:07:22Z</time>
      </trkpt>
      <trkpt lat="49.11525" lon="6.14048">
        <ele>173.6552734</ele>
        <time>2012-08-17T06:07:23Z</time>
      </trkpt>
      <trkpt lat="49.11501" lon="6.14039">
        <ele>173.6552734</ele>
        <time>2012-08-17T06:07:27Z</time>
      </trkpt>
      <trkpt lat="49.11481" lon="6.14023">
        <ele>173.1746826</ele>
        <time>2012-08-17T06:07:31Z</time>
      </trkpt>
      <trkpt lat="49.11452" lon="6.13977">
        <ele>173.6552734</ele>
        <time>2012-08-17T06:07:38Z</time>
      </trkpt>
      <trkpt lat="49.11432" lon="6.13945">
        <ele>174.1358643</ele>
        <time>2012-08-17T06:07:43Z</time>
      </trkpt>
      <trkpt lat="49.11409" lon="6.13883">
        <ele>174.1358643</ele>
        <time>2012-08-17T06:07:51Z</time>
      </trkpt>
      <trkpt lat="49.11386" lon="6.13824">
        <ele>174.6165771</ele>
        <time>2012-08-17T06:07:59Z</time>
      </trkpt>
      <trkpt lat="49.11375" lon="6.13797">
        <ele>173.6552734</ele>
        <time>2012-08-17T06:08:04Z</time>
      </trkpt>
      <trkpt lat="49.11368" lon="6.13778">
        <ele>174.1358643</ele>
        <time>2012-08-17T06:08:10Z</time>
      </trkpt>
      <trkpt lat="49.11359" lon="6.13763">
        <ele>173.6552734</ele>
        <time>2012-08-17T06:08:17Z</time>
      </trkpt>
      <trkpt lat="49.11355" lon="6.13756">
        <ele>174.1358643</ele>
        <time>2012-08-17T06:08:20Z</time>
      </trkpt>
      <trkpt lat="49.1135" lon="6.13742">
        <ele>174.1358643</ele>
        <time>2012-08-17T06:08:23Z</time>
      </trkpt>
      <trkpt lat="49.11331" lon="6.13695">
        <ele>174.6165771</ele>
        <time>2012-08-17T06:08:30Z</time>
      </trkpt>
      <trkpt lat="49.11321" lon="6.13649">
        <ele>175.09729</ele>
        <time>2012-08-17T06:08:36Z</time>
      </trkpt>
      <trkpt lat="49.11305" lon="6.13598">
        <ele>174.6165771</ele>
        <time>2012-08-17T06:08:43Z</time>
      </trkpt>
      <trkpt lat="49.11287" lon="6.13552">
        <ele>174.1358643</ele>
        <time>2012-08-17T06:08:50Z</time>
      </trkpt>
      <trkpt lat="49.11276" lon="6.13522">
        <ele>174.1358643</ele>
        <time>2012-08-17T06:08:55Z</time>
      </trkpt>
      <trkpt lat="49.11266" lon="6.13498">
        <ele>174.6165771</ele>
        <time>2012-08-17T06:09:00Z</time>
      </trkpt>
      <trkpt lat="49.11262" lon="6.13487">
        <ele>173.6552734</ele>
        <time>2012-08-17T06:09:04Z</time>
      </trkpt>
      <trkpt lat="49.1126" lon="6.13468">
        <ele>174.1358643</ele>
        <time>2012-08-17T06:09:08Z</time>
      </trkpt>
      <trkpt lat="49.11245" lon="6.13425">
        <ele>174.6165771</ele>
        <time>2012-08-17T06:09:14Z</time>
      </trkpt>
      <trkpt lat="49.11221" lon="6.1336">
        <ele>175.09729</ele>
        <time>2012-08-17T06:09:22Z</time>
      </trkpt>
      <trkpt lat="49.11196" lon="6.13284">
        <ele>175.09729</ele>
        <time>2012-08-17T06:09:31Z</time>
      </trkpt>
      <trkpt lat="49.11171" lon="6.13209">
        <ele>175.09729</ele>
        <time>2012-08-17T06:09:40Z</time>
      </trkpt>
      <trkpt lat="49.1115" lon="6.13151">
        <ele>175.09729</ele>
        <time>2012-08-17T06:09:47Z</time>
      </trkpt>
      <trkpt lat="49.11123" lon="6.13081">
        <ele>175.5778809</ele>
        <time>2012-08-17T06:09:55Z</time>
      </trkpt>
      <trkpt lat="49.11092" lon="6.12994">
        <ele>174.6165771</ele>
        <time>2012-08-17T06:10:05Z</time>
      </trkpt>
      <trkpt lat="49.1107" lon="6.12931">
        <ele>173.6552734</ele>
        <time>2012-08-17T06:10:13Z</time>
      </trkpt>
      <trkpt lat="49.11066" lon="6.12917">
        <ele>172.6939697</ele>
        <time>2012-08-17T06:10:17Z</time>
      </trkpt>
      <trkpt lat="49.11065" lon="6.12911">
        <ele>172.6939697</ele>
        <time>2012-08-17T06:10:21Z</time>
      </trkpt>
      <trkpt lat="49.11066" lon="6.12912">
        <ele>172.6939697</ele>
        <time>2012-08-17T06:10:28Z</time>
      </trkpt>
      <trkpt lat="49.11061" lon="6.12898">
        <ele>172.6939697</ele>
        <time>2012-08-17T06:10:32Z</time>
      </trkpt>
      <trkpt lat="49.11052" lon="6.1287">
        <ele>174.6165771</ele>
        <time>2012-08-17T06:10:38Z</time>
      </trkpt>
      <trkpt lat="49.11049" lon="6.12864">
        <ele>175.09729</ele>
        <time>2012-08-17T06:10:39Z</time>
      </trkpt>
      <trkpt lat="49.11036" lon="6.12822">
        <ele>174.6165771</ele>
        <time>2012-08-17T06:10:45Z</time>
      </trkpt>
      <trkpt lat="49.11027" lon="6.12796">
        <ele>173.6552734</ele>
        <time>2012-08-17T06:10:50Z</time>
      </trkpt>
      <trkpt lat="49.11023" lon="6.12784">
        <ele>173.6552734</ele>
        <time>2012-08-17T06:10:56Z</time>
      </trkpt>
      <trkpt lat="49.11023" lon="6.12783">
        <ele>173.6552734</ele>
        <time>2012-08-17T06:10:57Z</time>
      </trkpt>
      <trkpt lat="49.11019" lon="6.12767">
        <ele>174.1358643</ele>
        <time>2012-08-17T06:11:02Z</time>
      </trkpt>
      <trkpt lat="49.11007" lon="6.12738">
        <ele>173.6552734</ele>
        <time>2012-08-17T06:11:10Z</time>
      </trkpt>
      <trkpt lat="49.11004" lon="6.12728">
        <ele>173.6552734</ele>
        <time>2012-08-17T06:11:16Z</time>
      </trkpt>
      <trkpt lat="49.10998" lon="6.12711">
        <ele>173.6552734</ele>
        <time>2012-08-17T06:11:21Z</time>
      </trkpt>
      <trkpt lat="49.10984" lon="6.1267">
        <ele>173.6552734</ele>
        <time>2012-08-17T06:11:27Z</time>
      </trkpt>
      <trkpt lat="49.10961" lon="6.12594">
        <ele>174.6165771</ele>
        <time>2012-08-17T06:11:36Z</time>
      </trkpt>
      <trkpt lat="49.10939" lon="6.1251">
        <ele>173.6552734</ele>
        <time>2012-08-17T06:11:45Z</time>
      </trkpt>
      <trkpt lat="49.10924" lon="6.12458">
        <ele>174.1358643</ele>
        <time>2012-08-17T06:11:51Z</time>
      </trkpt>
      <trkpt lat="49.10912" lon="6.12391">
        <ele>175.09729</ele>
        <time>2012-08-17T06:11:58Z</time>
      </trkpt>
      <trkpt lat="49.10894" lon="6.12315">
        <ele>174.6165771</ele>
        <time>2012-08-17T06:12:06Z</time>
      </trkpt>
      <trkpt lat="49.10879" lon="6.12249">
        <ele>174.1358643</ele>
        <time>2012-08-17T06:12:14Z</time>
      </trkpt>
      <trkpt lat="49.10861" lon="6.12167">
        <ele>173.6552734</ele>
        <time>2012-08-17T06:12:24Z</time>
      </trkpt>
      <trkpt lat="49.10846" lon="6.12095">
        <ele>173.6552734</ele>
        <time>2012-08-17T06:12:32Z</time>
      </trkpt>
      <trkpt lat="49.10834" lon="6.12039">
        <ele>173.1746826</ele>
        <time>2012-08-17T06:12:38Z</time>
      </trkpt>
      <trkpt lat="49.10813" lon="6.1194">
        <ele>173.1746826</ele>
        <time>2012-08-17T06:12:49Z</time>
      </trkpt>
      <trkpt lat="49.10793" lon="6.11844">
        <ele>174.1358643</ele>
        <time>2012-08-17T06:13:00Z</time>
      </trkpt>
      <trkpt lat="49.10775" lon="6.11759">
        <ele>174.6165771</ele>
        <time>2012-08-17T06:13:10Z</time>
      </trkpt>
      <trkpt lat="49.1076" lon="6.11682">
        <ele>173.1746826</ele>
        <time>2012-08-17T06:13:19Z</time>
      </trkpt>
      <trkpt lat="49.10743" lon="6.11596">
        <ele>173.6552734</ele>
        <time>2012-08-17T06:13:29Z</time>
      </trkpt>
      <trkpt lat="49.10733" lon="6.11545">
        <ele>173.1746826</ele>
        <time>2012-08-17T06:13:36Z</time>
      </trkpt>
      <trkpt lat="49.10729" lon="6.11526">
        <ele>172.6939697</ele>
        <time>2012-08-17T06:13:41Z</time>
      </trkpt>
      <trkpt lat="49.10729" lon="6.1152">
        <ele>171.732666</ele>
        <time>2012-08-17T06:13:46Z</time>
      </trkpt>
      <trkpt lat="49.10728" lon="6.1152">
        <ele>171.732666</ele>
        <time>2012-08-17T06:13:52Z</time>
      </trkpt>
      <trkpt lat="49.10726" lon="6.11508">
        <ele>171.732666</ele>
        <time>2012-08-17T06:13:55Z</time>
      </trkpt>
      <trkpt lat="49.10718" lon="6.11472">
        <ele>172.6939697</ele>
        <time>2012-08-17T06:14:01Z</time>
      </trkpt>
      <trkpt lat="49.10706" lon="6.11409">
        <ele>172.6939697</ele>
        <time>2012-08-17T06:14:09Z</time>
      </trkpt>
      <trkpt lat="49.10694" lon="6.11347">
        <ele>173.1746826</ele>
        <time>2012-08-17T06:14:17Z</time>
      </trkpt>
      <trkpt lat="49.10684" lon="6.11293">
        <ele>173.1746826</ele>
        <time>2012-08-17T06:14:24Z</time>
      </trkpt>
      <trkpt lat="49.10669" lon="6.11223">
        <ele>173.1746826</ele>
        <time>2012-08-17T06:14:33Z</time>
      </trkpt>
      <trkpt lat="49.10653" lon="6.11162">
        <ele>173.6552734</ele>
        <time>2012-08-17T06:14:41Z</time>
      </trkpt>
      <trkpt lat="49.10642" lon="6.11101">
        <ele>174.1358643</ele>
        <time>2012-08-17T06:14:49Z</time>
      </trkpt>
      <trkpt lat="49.10638" lon="6.1107">
        <ele>174.1358643</ele>
        <time>2012-08-17T06:14:53Z</time>
      </trkpt>
      <trkpt lat="49.10627" lon="6.11048">
        <ele>173.6552734</ele>
        <time>2012-08-17T06:14:57Z</time>
      </trkpt>
      <trkpt lat="49.10611" lon="6.11045">
        <ele>173.6552734</ele>
        <time>2012-08-17T06:15:00Z</time>
      </trkpt>
      <trkpt lat="49.10548" lon="6.11055">
        <ele>173.6552734</ele>
        <time>2012-08-17T06:15:11Z</time>
      </trkpt>
      <trkpt lat="49.10508" lon="6.11063">
        <ele>173.1746826</ele>
        <time>2012-08-17T06:15:18Z</time>
      </trkpt>
      <trkpt lat="49.10472" lon="6.11073">
        <ele>172.2132568</ele>
        <time>2012-08-17T06:15:24Z</time>
      </trkpt>
      <trkpt lat="49.10422" lon="6.11081">
        <ele>173.1746826</ele>
        <time>2012-08-17T06:15:33Z</time>
      </trkpt>
      <trkpt lat="49.1038" lon="6.11078">
        <ele>174.1358643</ele>
        <time>2012-08-17T06:15:40Z</time>
      </trkpt>
      <trkpt lat="49.10365" lon="6.11073">
        <ele>174.1358643</ele>
        <time>2012-08-17T06:15:43Z</time>
      </trkpt>
      <trkpt lat="49.10347" lon="6.11052">
        <ele>174.1358643</ele>
        <time>2012-08-17T06:15:47Z</time>
      </trkpt>
      <trkpt lat="49.1034" lon="6.11028">
        <ele>174.6165771</ele>
        <time>2012-08-17T06:15:50Z</time>
      </trkpt>
      <trkpt lat="49.10324" lon="6.10993">
        <ele>175.09729</ele>
        <time>2012-08-17T06:15:55Z</time>
      </trkpt>
      <trkpt lat="49.1031" lon="6.1099">
        <ele>175.5778809</ele>
        <time>2012-08-17T06:15:58Z</time>
      </trkpt>
      <trkpt lat="49.10301" lon="6.10996">
        <ele>176.0585938</ele>
        <time>2012-08-17T06:16:00Z</time>
      </trkpt>
      <trkpt lat="49.10283" lon="6.11015">
        <ele>176.0585938</ele>
        <time>2012-08-17T06:16:04Z</time>
      </trkpt>
      <trkpt lat="49.1026" lon="6.11022">
        <ele>176.0585938</ele>
        <time>2012-08-17T06:16:08Z</time>
      </trkpt>
      <trkpt lat="49.10248" lon="6.11015">
        <ele>176.5393066</ele>
        <time>2012-08-17T06:16:10Z</time>
      </trkpt>
      <trkpt lat="49.10205" lon="6.10973">
        <ele>175.09729</ele>
        <time>2012-08-17T06:16:18Z</time>
      </trkpt>
      <trkpt lat="49.10171" lon="6.10928">
        <ele>174.6165771</ele>
        <time>2012-08-17T06:16:25Z</time>
      </trkpt>
      <trkpt lat="49.10142" lon="6.10873">
        <ele>174.1358643</ele>
        <time>2012-08-17T06:16:32Z</time>
      </trkpt>
      <trkpt lat="49.10104" lon="6.10795">
        <ele>175.09729</ele>
        <time>2012-08-17T06:16:42Z</time>
      </trkpt>
      <trkpt lat="49.10096" lon="6.10782">
        <ele>174.6165771</ele>
        <time>2012-08-17T06:16:44Z</time>
      </trkpt>
      <trkpt lat="49.1006" lon="6.10743">
        <ele>174.1358643</ele>
        <time>2012-08-17T06:16:51Z</time>
      </trkpt>
      <trkpt lat="49.10007" lon="6.10693">
        <ele>173.6552734</ele>
        <time>2012-08-17T06:17:01Z</time>
      </trkpt>
      <trkpt lat="49.09952" lon="6.10638">
        <ele>173.6552734</ele>
        <time>2012-08-17T06:17:12Z</time>
      </trkpt>
      <trkpt lat="49.09906" lon="6.10584">
        <ele>174.6165771</ele>
        <time>2012-08-17T06:17:21Z</time>
      </trkpt>
      <trkpt lat="49.0986" lon="6.10513">
        <ele>174.1358643</ele>
        <time>2012-08-17T06:17:31Z</time>
      </trkpt>
      <trkpt lat="49.09825" lon="6.10442">
        <ele>173.6552734</ele>
        <time>2012-08-17T06:17:40Z</time>
      </trkpt>
      <trkpt lat="49.09808" lon="6.10398">
        <ele>175.09729</ele>
        <time>2012-08-17T06:17:45Z</time>
      </trkpt>
      <trkpt lat="49.0978" lon="6.10307">
        <ele>175.09729</ele>
        <time>2012-08-17T06:17:55Z</time>
      </trkpt>
      <trkpt lat="49.09762" lon="6.10244">
        <ele>174.6165771</ele>
        <time>2012-08-17T06:18:02Z</time>
      </trkpt>
      <trkpt lat="49.09736" lon="6.10153">
        <ele>175.09729</ele>
        <time>2012-08-17T06:18:12Z</time>
      </trkpt>
      <trkpt lat="49.09709" lon="6.10072">
        <ele>175.09729</ele>
        <time>2012-08-17T06:18:21Z</time>
      </trkpt>
      <trkpt lat="49.09679" lon="6.10006">
        <ele>175.09729</ele>
        <time>2012-08-17T06:18:29Z</time>
      </trkpt>
      <trkpt lat="49.09649" lon="6.09953">
        <ele>174.6165771</ele>
        <time>2012-08-17T06:18:36Z</time>
      </trkpt>
      <trkpt lat="49.09605" lon="6.09879">
        <ele>174.6165771</ele>
        <time>2012-08-17T06:18:46Z</time>
      </trkpt>
      <trkpt lat="49.09569" lon="6.09819">
        <ele>175.5778809</ele>
        <time>2012-08-17T06:18:54Z</time>
      </trkpt>
      <trkpt lat="49.09531" lon="6.09759">
        <ele>175.5778809</ele>
        <time>2012-08-17T06:19:02Z</time>
      </trkpt>
      <trkpt lat="49.09499" lon="6.09704">
        <ele>174.6165771</ele>
        <time>2012-08-17T06:19:09Z</time>
      </trkpt>
      <trkpt lat="49.09467" lon="6.0965">
        <ele>175.09729</ele>
        <time>2012-08-17T06:19:16Z</time>
      </trkpt>
      <trkpt lat="49.09458" lon="6.09635">
        <ele>174.6165771</ele>
        <time>2012-08-17T06:19:18Z</time>
      </trkpt>
      <trkpt lat="49.09418" lon="6.0958">
        <ele>174.1358643</ele>
        <time>2012-08-17T06:19:26Z</time>
      </trkpt>
      <trkpt lat="49.09391" lon="6.0955">
        <ele>175.09729</ele>
        <time>2012-08-17T06:19:31Z</time>
      </trkpt>
      <trkpt lat="49.09377" lon="6.09535">
        <ele>173.6552734</ele>
        <time>2012-08-17T06:19:35Z</time>
      </trkpt>
      <trkpt lat="49.09373" lon="6.09529">
        <ele>173.6552734</ele>
        <time>2012-08-17T06:19:40Z</time>
      </trkpt>
      <trkpt lat="49.09375" lon="6.09531">
        <ele>173.6552734</ele>
        <time>2012-08-17T06:20:21Z</time>
      </trkpt>
      <trkpt lat="49.09362" lon="6.09522">
        <ele>174.6165771</ele>
        <time>2012-08-17T06:20:25Z</time>
      </trkpt>
      <trkpt lat="49.09334" lon="6.09502">
        <ele>175.5778809</ele>
        <time>2012-08-17T06:20:31Z</time>
      </trkpt>
      <trkpt lat="49.09297" lon="6.09478">
        <ele>175.09729</ele>
        <time>2012-08-17T06:20:37Z</time>
      </trkpt>
      <trkpt lat="49.09258" lon="6.09455">
        <ele>175.5778809</ele>
        <time>2012-08-17T06:20:43Z</time>
      </trkpt>
      <trkpt lat="49.092" lon="6.09418">
        <ele>176.5393066</ele>
        <time>2012-08-17T06:20:52Z</time>
      </trkpt>
      <trkpt lat="49.09162" lon="6.09393">
        <ele>175.5778809</ele>
        <time>2012-08-17T06:20:58Z</time>
      </trkpt>
      <trkpt lat="49.09115" lon="6.09357">
        <ele>174.6165771</ele>
        <time>2012-08-17T06:21:06Z</time>
      </trkpt>
      <trkpt lat="49.09079" lon="6.09329">
        <ele>175.09729</ele>
        <time>2012-08-17T06:21:12Z</time>
      </trkpt>
      <trkpt lat="49.09025" lon="6.09283">
        <ele>175.5778809</ele>
        <time>2012-08-17T06:21:21Z</time>
      </trkpt>
      <trkpt lat="49.08959" lon="6.0923">
        <ele>176.0585938</ele>
        <time>2012-08-17T06:21:32Z</time>
      </trkpt>
      <trkpt lat="49.08893" lon="6.09178">
        <ele>175.09729</ele>
        <time>2012-08-17T06:21:43Z</time>
      </trkpt>
      <trkpt lat="49.08817" lon="6.09122">
        <ele>175.09729</ele>
        <time>2012-08-17T06:21:55Z</time>
      </trkpt>
      <trkpt lat="49.08758" lon="6.09076">
        <ele>174.6165771</ele>
        <time>2012-08-17T06:22:04Z</time>
      </trkpt>
      <trkpt lat="49.08705" lon="6.09032">
        <ele>174.1358643</ele>
        <time>2012-08-17T06:22:12Z</time>
      </trkpt>
      <trkpt lat="49.08643" lon="6.08974">
        <ele>174.1358643</ele>
        <time>2012-08-17T06:22:21Z</time>
      </trkpt>
      <trkpt lat="49.08581" lon="6.08916">
        <ele>174.1358643</ele>
        <time>2012-08-17T06:22:30Z</time>
      </trkpt>
      <trkpt lat="49.08506" lon="6.08847">
        <ele>174.1358643</ele>
        <time>2012-08-17T06:22:41Z</time>
      </trkpt>
      <trkpt lat="49.08443" lon="6.0879">
        <ele>174.6165771</ele>
        <time>2012-08-17T06:22:50Z</time>
      </trkpt>
      <trkpt lat="49.08381" lon="6.08731">
        <ele>174.6165771</ele>
        <time>2012-08-17T06:22:59Z</time>
      </trkpt>
      <trkpt lat="49.08319" lon="6.08674">
        <ele>174.1358643</ele>
        <time>2012-08-17T06:23:08Z</time>
      </trkpt>
      <trkpt lat="49.08258" lon="6.08616">
        <ele>174.6165771</ele>
        <time>2012-08-17T06:23:17Z</time>
      </trkpt>
      <trkpt lat="49.082" lon="6.08559">
        <ele>174.1358643</ele>
        <time>2012-08-17T06:23:26Z</time>
      </trkpt>
      <trkpt lat="49.08154" lon="6.08515">
        <ele>176.0585938</ele>
        <time>2012-08-17T06:23:33Z</time>
      </trkpt>
      <trkpt lat="49.08101" lon="6.08464">
        <ele>174.6165771</ele>
        <time>2012-08-17T06:23:41Z</time>
      </trkpt>
      <trkpt lat="49.08041" lon="6.08407">
        <ele>174.6165771</ele>
        <time>2012-08-17T06:23:50Z</time>
      </trkpt>
      <trkpt lat="49.0798" lon="6.08349">
        <ele>175.09729</ele>
        <time>2012-08-17T06:23:59Z</time>
      </trkpt>
      <trkpt lat="49.07928" lon="6.08296">
        <ele>174.6165771</ele>
        <time>2012-08-17T06:24:07Z</time>
      </trkpt>
      <trkpt lat="49.07876" lon="6.08236">
        <ele>175.09729</ele>
        <time>2012-08-17T06:24:15Z</time>
      </trkpt>
      <trkpt lat="49.07827" lon="6.0817">
        <ele>174.1358643</ele>
        <time>2012-08-17T06:24:23Z</time>
      </trkpt>
      <trkpt lat="49.07779" lon="6.081">
        <ele>174.6165771</ele>
        <time>2012-08-17T06:24:31Z</time>
      </trkpt>
      <trkpt lat="49.07746" lon="6.08045">
        <ele>174.1358643</ele>
        <time>2012-08-17T06:24:37Z</time>
      </trkpt>
      <trkpt lat="49.07717" lon="6.07981">
        <ele>174.6165771</ele>
        <time>2012-08-17T06:24:43Z</time>
      </trkpt>
      <trkpt lat="49.07677" lon="6.07862">
        <ele>175.09729</ele>
        <time>2012-08-17T06:24:53Z</time>
      </trkpt>
      <trkpt lat="49.07658" lon="6.07802">
        <ele>175.5778809</ele>
        <time>2012-08-17T06:24:59Z</time>
      </trkpt>
      <trkpt lat="49.07632" lon="6.07746">
        <ele>176.0585938</ele>
        <time>2012-08-17T06:25:05Z</time>
      </trkpt>
      <trkpt lat="49.0761" lon="6.07705">
        <ele>175.5778809</ele>
        <time>2012-08-17T06:25:10Z</time>
      </trkpt>
      <trkpt lat="49.07589" lon="6.0767">
        <ele>176.5393066</ele>
        <time>2012-08-17T06:25:15Z</time>
      </trkpt>
      <trkpt lat="49.0757" lon="6.07631">
        <ele>177.5006104</ele>
        <time>2012-08-17T06:25:20Z</time>
      </trkpt>
      <trkpt lat="49.07545" lon="6.0758">
        <ele>177.9812012</ele>
        <time>2012-08-17T06:25:27Z</time>
      </trkpt>
      <trkpt lat="49.0754" lon="6.07556">
        <ele>178.4619141</ele>
        <time>2012-08-17T06:25:31Z</time>
      </trkpt>
      <trkpt lat="49.0753" lon="6.07539">
        <ele>178.4619141</ele>
        <time>2012-08-17T06:25:34Z</time>
      </trkpt>
      <trkpt lat="49.0752" lon="6.07527">
        <ele>178.4619141</ele>
        <time>2012-08-17T06:25:36Z</time>
      </trkpt>
      <trkpt lat="49.07482" lon="6.07473">
        <ele>177.9812012</ele>
        <time>2012-08-17T06:25:43Z</time>
      </trkpt>
      <trkpt lat="49.07442" lon="6.07433">
        <ele>177.0200195</ele>
        <time>2012-08-17T06:25:49Z</time>
      </trkpt>
      <trkpt lat="49.07412" lon="6.07414">
        <ele>178.4619141</ele>
        <time>2012-08-17T06:25:53Z</time>
      </trkpt>
      <trkpt lat="49.07372" lon="6.07401">
        <ele>175.5778809</ele>
        <time>2012-08-17T06:25:58Z</time>
      </trkpt>
      <trkpt lat="49.07316" lon="6.07396">
        <ele>175.5778809</ele>
        <time>2012-08-17T06:26:05Z</time>
      </trkpt>
      <trkpt lat="49.07254" lon="6.07392">
        <ele>175.5778809</ele>
        <time>2012-08-17T06:26:13Z</time>
      </trkpt>
      <trkpt lat="49.07202" lon="6.07382">
        <ele>174.1358643</ele>
        <time>2012-08-17T06:26:20Z</time>
      </trkpt>
      <trkpt lat="49.07151" lon="6.07357">
        <ele>175.5778809</ele>
        <time>2012-08-17T06:26:27Z</time>
      </trkpt>
      <trkpt lat="49.07083" lon="6.07321">
        <ele>175.5778809</ele>
        <time>2012-08-17T06:26:37Z</time>
      </trkpt>
      <trkpt lat="49.07029" lon="6.07289">
        <ele>175.5778809</ele>
        <time>2012-08-17T06:26:45Z</time>
      </trkpt>
      <trkpt lat="49.06954" lon="6.07234">
        <ele>174.6165771</ele>
        <time>2012-08-17T06:26:56Z</time>
      </trkpt>
      <trkpt lat="49.06884" lon="6.07182">
        <ele>175.5778809</ele>
        <time>2012-08-17T06:27:06Z</time>
      </trkpt>
      <trkpt lat="49.06821" lon="6.07137">
        <ele>176.0585938</ele>
        <time>2012-08-17T06:27:15Z</time>
      </trkpt>
      <trkpt lat="49.06806" lon="6.07125">
        <ele>175.5778809</ele>
        <time>2012-08-17T06:27:17Z</time>
      </trkpt>
      <trkpt lat="49.06742" lon="6.07076">
        <ele>176.0585938</ele>
        <time>2012-08-17T06:27:26Z</time>
      </trkpt>
      <trkpt lat="49.06668" lon="6.07016">
        <ele>176.0585938</ele>
        <time>2012-08-17T06:27:36Z</time>
      </trkpt>
      <trkpt lat="49.06595" lon="6.06954">
        <ele>175.5778809</ele>
        <time>2012-08-17T06:27:46Z</time>
      </trkpt>
      <trkpt lat="49.06536" lon="6.06905">
        <ele>176.0585938</ele>
        <time>2012-08-17T06:27:54Z</time>
      </trkpt>
      <trkpt lat="49.06477" lon="6.06857">
        <ele>176.0585938</ele>
        <time>2012-08-17T06:28:02Z</time>
      </trkpt>
      <trkpt lat="49.06417" lon="6.06807">
        <ele>175.5778809</ele>
        <time>2012-08-17T06:28:10Z</time>
      </trkpt>
      <trkpt lat="49.06358" lon="6.06758">
        <ele>176.0585938</ele>
        <time>2012-08-17T06:28:18Z</time>
      </trkpt>
      <trkpt lat="49.06283" lon="6.06696">
        <ele>176.0585938</ele>
        <time>2012-08-17T06:28:28Z</time>
      </trkpt>
      <trkpt lat="49.06223" lon="6.06645">
        <ele>176.5393066</ele>
        <time>2012-08-17T06:28:36Z</time>
      </trkpt>
      <trkpt lat="49.06157" lon="6.06585">
        <ele>176.5393066</ele>
        <time>2012-08-17T06:28:45Z</time>
      </trkpt>
      <trkpt lat="49.061" lon="6.06528">
        <ele>176.5393066</ele>
        <time>2012-08-17T06:28:53Z</time>
      </trkpt>
      <trkpt lat="49.06059" lon="6.06485">
        <ele>175.5778809</ele>
        <time>2012-08-17T06:28:59Z</time>
      </trkpt>
      <trkpt lat="49.05999" lon="6.0643">
        <ele>176.0585938</ele>
        <time>2012-08-17T06:29:07Z</time>
      </trkpt>
      <trkpt lat="49.0594" lon="6.06377">
        <ele>176.5393066</ele>
        <time>2012-08-17T06:29:15Z</time>
      </trkpt>
      <trkpt lat="49.05898" lon="6.06338">
        <ele>176.5393066</ele>
        <time>2012-08-17T06:29:21Z</time>
      </trkpt>
      <trkpt lat="49.05841" lon="6.06283">
        <ele>177.0200195</ele>
        <time>2012-08-17T06:29:29Z</time>
      </trkpt>
      <trkpt lat="49.05799" lon="6.06248">
        <ele>177.5006104</ele>
        <time>2012-08-17T06:29:35Z</time>
      </trkpt>
      <trkpt lat="49.05755" lon="6.06218">
        <ele>177.5006104</ele>
        <time>2012-08-17T06:29:41Z</time>
      </trkpt>
      <trkpt lat="49.05733" lon="6.06188">
        <ele>176.5393066</ele>
        <time>2012-08-17T06:29:45Z</time>
      </trkpt>
      <trkpt lat="49.05714" lon="6.06181">
        <ele>177.0200195</ele>
        <time>2012-08-17T06:29:48Z</time>
      </trkpt>
      <trkpt lat="49.05693" lon="6.06193">
        <ele>177.0200195</ele>
        <time>2012-08-17T06:29:51Z</time>
      </trkpt>
      <trkpt lat="49.05685" lon="6.06192">
        <ele>177.0200195</ele>
        <time>2012-08-17T06:29:52Z</time>
      </trkpt>
      <trkpt lat="49.05623" lon="6.06172">
        <ele>176.5393066</ele>
        <time>2012-08-17T06:29:59Z</time>
      </trkpt>
      <trkpt lat="49.05561" lon="6.06154">
        <ele>176.5393066</ele>
        <time>2012-08-17T06:30:06Z</time>
      </trkpt>
      <trkpt lat="49.05505" lon="6.06134">
        <ele>177.0200195</ele>
        <time>2012-08-17T06:30:13Z</time>
      </trkpt>
      <trkpt lat="49.05455" lon="6.06107">
        <ele>177.0200195</ele>
        <time>2012-08-17T06:30:19Z</time>
      </trkpt>
      <trkpt lat="49.05389" lon="6.06074">
        <ele>177.0200195</ele>
        <time>2012-08-17T06:30:27Z</time>
      </trkpt>
      <trkpt lat="49.05333" lon="6.06053">
        <ele>177.5006104</ele>
        <time>2012-08-17T06:30:34Z</time>
      </trkpt>
      <trkpt lat="49.05284" lon="6.06041">
        <ele>176.0585938</ele>
        <time>2012-08-17T06:30:41Z</time>
      </trkpt>
      <trkpt lat="49.05242" lon="6.06035">
        <ele>177.0200195</ele>
        <time>2012-08-17T06:30:47Z</time>
      </trkpt>
      <trkpt lat="49.0522" lon="6.06025">
        <ele>177.5006104</ele>
        <time>2012-08-17T06:30:50Z</time>
      </trkpt>
      <trkpt lat="49.05148" lon="6.05997">
        <ele>176.0585938</ele>
        <time>2012-08-17T06:30:59Z</time>
      </trkpt>
      <trkpt lat="49.05086" lon="6.05979">
        <ele>176.0585938</ele>
        <time>2012-08-17T06:31:07Z</time>
      </trkpt>
      <trkpt lat="49.05004" lon="6.05956">
        <ele>177.5006104</ele>
        <time>2012-08-17T06:31:18Z</time>
      </trkpt>
      <trkpt lat="49.04928" lon="6.05934">
        <ele>176.0585938</ele>
        <time>2012-08-17T06:31:28Z</time>
      </trkpt>
      <trkpt lat="49.04827" lon="6.05906">
        <ele>177.5006104</ele>
        <time>2012-08-17T06:31:41Z</time>
      </trkpt>
      <trkpt lat="49.04749" lon="6.05883">
        <ele>177.9812012</ele>
        <time>2012-08-17T06:31:51Z</time>
      </trkpt>
      <trkpt lat="49.04733" lon="6.05879">
        <ele>178.942627</ele>
        <time>2012-08-17T06:31:53Z</time>
      </trkpt>
      <trkpt lat="49.04642" lon="6.05849">
        <ele>177.5006104</ele>
        <time>2012-08-17T06:32:04Z</time>
      </trkpt>
      <trkpt lat="49.0456" lon="6.05823">
        <ele>177.0200195</ele>
        <time>2012-08-17T06:32:14Z</time>
      </trkpt>
      <trkpt lat="49.04484" lon="6.05796">
        <ele>177.5006104</ele>
        <time>2012-08-17T06:32:23Z</time>
      </trkpt>
      <trkpt lat="49.04409" lon="6.05759">
        <ele>177.0200195</ele>
        <time>2012-08-17T06:32:32Z</time>
      </trkpt>
      <trkpt lat="49.04349" lon="6.05725">
        <ele>177.0200195</ele>
        <time>2012-08-17T06:32:40Z</time>
      </trkpt>
      <trkpt lat="49.04282" lon="6.05686">
        <ele>177.5006104</ele>
        <time>2012-08-17T06:32:49Z</time>
      </trkpt>
      <trkpt lat="49.04212" lon="6.05642">
        <ele>178.4619141</ele>
        <time>2012-08-17T06:32:59Z</time>
      </trkpt>
      <trkpt lat="49.04123" lon="6.05587">
        <ele>178.942627</ele>
        <time>2012-08-17T06:33:12Z</time>
      </trkpt>
      <trkpt lat="49.0406" lon="6.05548">
        <ele>178.4619141</ele>
        <time>2012-08-17T06:33:21Z</time>
      </trkpt>
      <trkpt lat="49.03989" lon="6.05504">
        <ele>179.9038086</ele>
        <time>2012-08-17T06:33:31Z</time>
      </trkpt>
      <trkpt lat="49.03917" lon="6.05459">
        <ele>178.942627</ele>
        <time>2012-08-17T06:33:41Z</time>
      </trkpt>
      <trkpt lat="49.03853" lon="6.05419">
        <ele>180.3845215</ele>
        <time>2012-08-17T06:33:50Z</time>
      </trkpt>
      <trkpt lat="49.03788" lon="6.05373">
        <ele>179.9038086</ele>
        <time>2012-08-17T06:33:59Z</time>
      </trkpt>
      <trkpt lat="49.0372" lon="6.05325">
        <ele>179.9038086</ele>
        <time>2012-08-17T06:34:08Z</time>
      </trkpt>
      <trkpt lat="49.03655" lon="6.05285">
        <ele>179.9038086</ele>
        <time>2012-08-17T06:34:17Z</time>
      </trkpt>
      <trkpt lat="49.03585" lon="6.05251">
        <ele>179.9038086</ele>
        <time>2012-08-17T06:34:26Z</time>
      </trkpt>
      <trkpt lat="49.035" lon="6.05218">
        <ele>179.4232178</ele>
        <time>2012-08-17T06:34:37Z</time>
      </trkpt>
      <trkpt lat="49.03416" lon="6.05185">
        <ele>178.4619141</ele>
        <time>2012-08-17T06:34:48Z</time>
      </trkpt>
      <trkpt lat="49.03327" lon="6.05151">
        <ele>178.4619141</ele>
        <time>2012-08-17T06:35:00Z</time>
      </trkpt>
      <trkpt lat="49.0326" lon="6.05125">
        <ele>177.9812012</ele>
        <time>2012-08-17T06:35:09Z</time>
      </trkpt>
      <trkpt lat="49.032" lon="6.0511">
        <ele>178.4619141</ele>
        <time>2012-08-17T06:35:17Z</time>
      </trkpt>
      <trkpt lat="49.03145" lon="6.05106">
        <ele>177.5006104</ele>
        <time>2012-08-17T06:35:24Z</time>
      </trkpt>
      <trkpt lat="49.03074" lon="6.05104">
        <ele>178.942627</ele>
        <time>2012-08-17T06:35:33Z</time>
      </trkpt>
      <trkpt lat="49.0302" lon="6.05112">
        <ele>177.5006104</ele>
        <time>2012-08-17T06:35:40Z</time>
      </trkpt>
      <trkpt lat="49.02961" lon="6.05125">
        <ele>178.942627</ele>
        <time>2012-08-17T06:35:48Z</time>
      </trkpt>
      <trkpt lat="49.029" lon="6.05135">
        <ele>177.9812012</ele>
        <time>2012-08-17T06:35:56Z</time>
      </trkpt>
      <trkpt lat="49.02845" lon="6.05129">
        <ele>177.5006104</ele>
        <time>2012-08-17T06:36:03Z</time>
      </trkpt>
      <trkpt lat="49.02782" lon="6.05117">
        <ele>177.9812012</ele>
        <time>2012-08-17T06:36:11Z</time>
      </trkpt>
      <trkpt lat="49.02713" lon="6.05101">
        <ele>177.9812012</ele>
        <time>2012-08-17T06:36:20Z</time>
      </trkpt>
      <trkpt lat="49.02641" lon="6.05089">
        <ele>178.4619141</ele>
        <time>2012-08-17T06:36:29Z</time>
      </trkpt>
      <trkpt lat="49.0258" lon="6.0508">
        <ele>178.4619141</ele>
        <time>2012-08-17T06:36:37Z</time>
      </trkpt>
      <trkpt lat="49.02518" lon="6.05071">
        <ele>178.942627</ele>
        <time>2012-08-17T06:36:45Z</time>
      </trkpt>
      <trkpt lat="49.02465" lon="6.05057">
        <ele>178.4619141</ele>
        <time>2012-08-17T06:36:52Z</time>
      </trkpt>
      <trkpt lat="49.02406" lon="6.05041">
        <ele>179.4232178</ele>
        <time>2012-08-17T06:37:00Z</time>
      </trkpt>
      <trkpt lat="49.02387" lon="6.05038">
        <ele>179.4232178</ele>
        <time>2012-08-17T06:37:03Z</time>
      </trkpt>
      <trkpt lat="49.02366" lon="6.0503">
        <ele>178.4619141</ele>
        <time>2012-08-17T06:37:07Z</time>
      </trkpt>
      <trkpt lat="49.02347" lon="6.05029">
        <ele>178.942627</ele>
        <time>2012-08-17T06:37:10Z</time>
      </trkpt>
      <trkpt lat="49.02275" lon="6.05002">
        <ele>178.942627</ele>
        <time>2012-08-17T06:37:20Z</time>
      </trkpt>
      <trkpt lat="49.02213" lon="6.04978">
        <ele>180.3845215</ele>
        <time>2012-08-17T06:37:29Z</time>
      </trkpt>
      <trkpt lat="49.02206" lon="6.04975">
        <ele>180.3845215</ele>
        <time>2012-08-17T06:37:30Z</time>
      </trkpt>
      <trkpt lat="49.02152" lon="6.04941">
        <ele>180.8652344</ele>
        <time>2012-08-17T06:37:38Z</time>
      </trkpt>
      <trkpt lat="49.02103" lon="6.04907">
        <ele>180.8652344</ele>
        <time>2012-08-17T06:37:45Z</time>
      </trkpt>
      <trkpt lat="49.02052" lon="6.04871">
        <ele>179.4232178</ele>
        <time>2012-08-17T06:37:52Z</time>
      </trkpt>
      <trkpt lat="49.01988" lon="6.04823">
        <ele>179.4232178</ele>
        <time>2012-08-17T06:38:01Z</time>
      </trkpt>
      <trkpt lat="49.01946" lon="6.0479">
        <ele>180.3845215</ele>
        <time>2012-08-17T06:38:07Z</time>
      </trkpt>
      <trkpt lat="49.01883" lon="6.04739">
        <ele>180.3845215</ele>
        <time>2012-08-17T06:38:16Z</time>
      </trkpt>
      <trkpt lat="49.01808" lon="6.04675">
        <ele>180.3845215</ele>
        <time>2012-08-17T06:38:27Z</time>
      </trkpt>
      <trkpt lat="49.01737" lon="6.04621">
        <ele>181.826416</ele>
        <time>2012-08-17T06:38:37Z</time>
      </trkpt>
      <trkpt lat="49.01675" lon="6.04582">
        <ele>183.2684326</ele>
        <time>2012-08-17T06:38:46Z</time>
      </trkpt>
      <trkpt lat="49.01619" lon="6.04549">
        <ele>185.6717529</ele>
        <time>2012-08-17T06:38:55Z</time>
      </trkpt>
      <trkpt lat="49.01573" lon="6.04514">
        <ele>186.6331787</ele>
        <time>2012-08-17T06:39:03Z</time>
      </trkpt>
      <trkpt lat="49.01541" lon="6.04482">
        <ele>189.5169678</ele>
        <time>2012-08-17T06:39:09Z</time>
      </trkpt>
      <trkpt lat="49.01503" lon="6.04434">
        <ele>190.9589844</ele>
        <time>2012-08-17T06:39:17Z</time>
      </trkpt>
      <trkpt lat="49.01469" lon="6.04382">
        <ele>192.401123</ele>
        <time>2012-08-17T06:39:25Z</time>
      </trkpt>
      <trkpt lat="49.01442" lon="6.04334">
        <ele>192.8817139</ele>
        <time>2012-08-17T06:39:32Z</time>
      </trkpt>
      <trkpt lat="49.01425" lon="6.04301">
        <ele>191.9202881</ele>
        <time>2012-08-17T06:39:36Z</time>
      </trkpt>
      <trkpt lat="49.01385" lon="6.04227">
        <ele>190.4783936</ele>
        <time>2012-08-17T06:39:44Z</time>
      </trkpt>
      <trkpt lat="49.01375" lon="6.04207">
        <ele>189.036377</ele>
        <time>2012-08-17T06:39:46Z</time>
      </trkpt>
      <trkpt lat="49.01339" lon="6.04146">
        <ele>187.1137695</ele>
        <time>2012-08-17T06:39:52Z</time>
      </trkpt>
      <trkpt lat="49.01302" lon="6.041">
        <ele>186.1524658</ele>
        <time>2012-08-17T06:39:57Z</time>
      </trkpt>
      <trkpt lat="49.01287" lon="6.04083">
        <ele>185.1911621</ele>
        <time>2012-08-17T06:39:59Z</time>
      </trkpt>
      <trkpt lat="49.01226" lon="6.04012">
        <ele>183.2684326</ele>
        <time>2012-08-17T06:40:07Z</time>
      </trkpt>
      <trkpt lat="49.01187" lon="6.03962">
        <ele>183.2684326</ele>
        <time>2012-08-17T06:40:13Z</time>
      </trkpt>
      <trkpt lat="49.01169" lon="6.03938">
        <ele>181.3458252</ele>
        <time>2012-08-17T06:40:16Z</time>
      </trkpt>
      <trkpt lat="49.01121" lon="6.03872">
        <ele>181.826416</ele>
        <time>2012-08-17T06:40:24Z</time>
      </trkpt>
      <trkpt lat="49.01091" lon="6.03821">
        <ele>181.826416</ele>
        <time>2012-08-17T06:40:30Z</time>
      </trkpt>
      <trkpt lat="49.0107" lon="6.03766">
        <ele>180.8652344</ele>
        <time>2012-08-17T06:40:36Z</time>
      </trkpt>
      <trkpt lat="49.01043" lon="6.03675">
        <ele>179.9038086</ele>
        <time>2012-08-17T06:40:45Z</time>
      </trkpt>
      <trkpt lat="49.01034" lon="6.03626">
        <ele>179.9038086</ele>
        <time>2012-08-17T06:40:50Z</time>
      </trkpt>
      <trkpt lat="49.01032" lon="6.03609">
        <ele>178.942627</ele>
        <time>2012-08-17T06:40:52Z</time>
      </trkpt>
      <trkpt lat="49.0103" lon="6.03571">
        <ele>179.9038086</ele>
        <time>2012-08-17T06:40:58Z</time>
      </trkpt>
      <trkpt lat="49.01031" lon="6.03555">
        <ele>179.9038086</ele>
        <time>2012-08-17T06:41:03Z</time>
      </trkpt>
      <trkpt lat="49.01029" lon="6.03537">
        <ele>179.4232178</ele>
        <time>2012-08-17T06:41:09Z</time>
      </trkpt>
      <trkpt lat="49.01029" lon="6.03527">
        <ele>179.4232178</ele>
        <time>2012-08-17T06:41:11Z</time>
      </trkpt>
      <trkpt lat="49.0104" lon="6.03489">
        <ele>179.9038086</ele>
        <time>2012-08-17T06:41:16Z</time>
      </trkpt>
      <trkpt lat="49.01054" lon="6.03417">
        <ele>179.9038086</ele>
        <time>2012-08-17T06:41:23Z</time>
      </trkpt>
      <trkpt lat="49.01065" lon="6.03354">
        <ele>181.826416</ele>
        <time>2012-08-17T06:41:29Z</time>
      </trkpt>
      <trkpt lat="49.01075" lon="6.033">
        <ele>182.7878418</ele>
        <time>2012-08-17T06:41:35Z</time>
      </trkpt>
      <trkpt lat="49.01084" lon="6.03258">
        <ele>183.7490234</ele>
        <time>2012-08-17T06:41:40Z</time>
      </trkpt>
      <trkpt lat="49.01087" lon="6.03233">
        <ele>184.2298584</ele>
        <time>2012-08-17T06:41:43Z</time>
      </trkpt>
      <trkpt lat="49.0109" lon="6.0322">
        <ele>184.7105713</ele>
        <time>2012-08-17T06:41:45Z</time>
      </trkpt>
      <trkpt lat="49.01098" lon="6.03171">
        <ele>188.5557861</ele>
        <time>2012-08-17T06:41:52Z</time>
      </trkpt>
      <trkpt lat="49.01104" lon="6.03138">
        <ele>190.4783936</ele>
        <time>2012-08-17T06:41:57Z</time>
      </trkpt>
      <trkpt lat="49.01109" lon="6.03119">
        <ele>191.4395752</ele>
        <time>2012-08-17T06:42:00Z</time>
      </trkpt>
      <trkpt lat="49.01113" lon="6.0308">
        <ele>194.3237305</ele>
        <time>2012-08-17T06:42:06Z</time>
      </trkpt>
      <trkpt lat="49.01114" lon="6.03066">
        <ele>195.2849121</ele>
        <time>2012-08-17T06:42:08Z</time>
      </trkpt>
      <trkpt lat="49.01127" lon="6.03024">
        <ele>195.765625</ele>
        <time>2012-08-17T06:42:15Z</time>
      </trkpt>
      <trkpt lat="49.01144" lon="6.02989">
        <ele>196.7269287</ele>
        <time>2012-08-17T06:42:21Z</time>
      </trkpt>
      <trkpt lat="49.01158" lon="6.02959">
        <ele>197.2075195</ele>
        <time>2012-08-17T06:42:26Z</time>
      </trkpt>
      <trkpt lat="49.0117" lon="6.02935">
        <ele>198.1689453</ele>
        <time>2012-08-17T06:42:30Z</time>
      </trkpt>
      <trkpt lat="49.01176" lon="6.02906">
        <ele>198.1689453</ele>
        <time>2012-08-17T06:42:34Z</time>
      </trkpt>
      <trkpt lat="49.01191" lon="6.02847">
        <ele>199.6108398</ele>
        <time>2012-08-17T06:42:42Z</time>
      </trkpt>
      <trkpt lat="49.01206" lon="6.02804">
        <ele>200.5722656</ele>
        <time>2012-08-17T06:42:48Z</time>
      </trkpt>
      <trkpt lat="49.01232" lon="6.0273">
        <ele>202.9754639</ele>
        <time>2012-08-17T06:42:58Z</time>
      </trkpt>
      <trkpt lat="49.01249" lon="6.02676">
        <ele>202.0142822</ele>
        <time>2012-08-17T06:43:05Z</time>
      </trkpt>
      <trkpt lat="49.01269" lon="6.02615">
        <ele>200.0916748</ele>
        <time>2012-08-17T06:43:12Z</time>
      </trkpt>
      <trkpt lat="49.01288" lon="6.02543">
        <ele>199.6108398</ele>
        <time>2012-08-17T06:43:19Z</time>
      </trkpt>
      <trkpt lat="49.01292" lon="6.02532">
        <ele>200.0916748</ele>
        <time>2012-08-17T06:43:20Z</time>
      </trkpt>
      <trkpt lat="49.01318" lon="6.02484">
        <ele>198.6495361</ele>
        <time>2012-08-17T06:43:25Z</time>
      </trkpt>
      <trkpt lat="49.01354" lon="6.02421">
        <ele>195.2849121</ele>
        <time>2012-08-17T06:43:31Z</time>
      </trkpt>
      <trkpt lat="49.01359" lon="6.02409">
        <ele>195.765625</ele>
        <time>2012-08-17T06:43:32Z</time>
      </trkpt>
      <trkpt lat="49.01373" lon="6.02369">
        <ele>193.8430176</ele>
        <time>2012-08-17T06:43:35Z</time>
      </trkpt>
      <trkpt lat="49.01393" lon="6.02302">
        <ele>192.401123</ele>
        <time>2012-08-17T06:43:40Z</time>
      </trkpt>
      <trkpt lat="49.01408" lon="6.02248">
        <ele>190.4783936</ele>
        <time>2012-08-17T06:43:44Z</time>
      </trkpt>
      <trkpt lat="49.01447" lon="6.02148">
        <ele>189.9976807</ele>
        <time>2012-08-17T06:43:52Z</time>
      </trkpt>
      <trkpt lat="49.01484" lon="6.02088">
        <ele>189.5169678</ele>
        <time>2012-08-17T06:43:58Z</time>
      </trkpt>
      <trkpt lat="49.01523" lon="6.02022">
        <ele>189.5169678</ele>
        <time>2012-08-17T06:44:05Z</time>
      </trkpt>
      <trkpt lat="49.0155" lon="6.01961">
        <ele>190.9589844</ele>
        <time>2012-08-17T06:44:11Z</time>
      </trkpt>
      <trkpt lat="49.01562" lon="6.01906">
        <ele>190.4783936</ele>
        <time>2012-08-17T06:44:16Z</time>
      </trkpt>
      <trkpt lat="49.01572" lon="6.01839">
        <ele>190.4783936</ele>
        <time>2012-08-17T06:44:22Z</time>
      </trkpt>
      <trkpt lat="49.01579" lon="6.01805">
        <ele>189.9976807</ele>
        <time>2012-08-17T06:44:25Z</time>
      </trkpt>
      <trkpt lat="49.01601" lon="6.01758">
        <ele>190.4783936</ele>
        <time>2012-08-17T06:44:30Z</time>
      </trkpt>
      <trkpt lat="49.01639" lon="6.01698">
        <ele>189.9976807</ele>
        <time>2012-08-17T06:44:37Z</time>
      </trkpt>
      <trkpt lat="49.01665" lon="6.01635">
        <ele>189.9976807</ele>
        <time>2012-08-17T06:44:43Z</time>
      </trkpt>
      <trkpt lat="49.01699" lon="6.01552">
        <ele>190.4783936</ele>
        <time>2012-08-17T06:44:51Z</time>
      </trkpt>
      <trkpt lat="49.01714" lon="6.01505">
        <ele>191.9202881</ele>
        <time>2012-08-17T06:44:56Z</time>
      </trkpt>
      <trkpt lat="49.01729" lon="6.01432">
        <ele>190.4783936</ele>
        <time>2012-08-17T06:45:03Z</time>
      </trkpt>
      <trkpt lat="49.01739" lon="6.01354">
        <ele>190.4783936</ele>
        <time>2012-08-17T06:45:10Z</time>
      </trkpt>
      <trkpt lat="49.01747" lon="6.01266">
        <ele>190.4783936</ele>
        <time>2012-08-17T06:45:18Z</time>
      </trkpt>
      <trkpt lat="49.01755" lon="6.01177">
        <ele>190.4783936</ele>
        <time>2012-08-17T06:45:26Z</time>
      </trkpt>
      <trkpt lat="49.01752" lon="6.01097">
        <ele>190.9589844</ele>
        <time>2012-08-17T06:45:33Z</time>
      </trkpt>
      <trkpt lat="49.0174" lon="6.00993">
        <ele>191.4395752</ele>
        <time>2012-08-17T06:45:42Z</time>
      </trkpt>
      <trkpt lat="49.01735" lon="6.00912">
        <ele>190.9589844</ele>
        <time>2012-08-17T06:45:49Z</time>
      </trkpt>
      <trkpt lat="49.01724" lon="6.00827">
        <ele>190.4783936</ele>
        <time>2012-08-17T06:45:56Z</time>
      </trkpt>
      <trkpt lat="49.01705" lon="6.00736">
        <ele>190.9589844</ele>
        <time>2012-08-17T06:46:04Z</time>
      </trkpt>
      <trkpt lat="49.0168" lon="6.00635">
        <ele>189.9976807</ele>
        <time>2012-08-17T06:46:13Z</time>
      </trkpt>
      <trkpt lat="49.01665" lon="6.00557">
        <ele>189.9976807</ele>
        <time>2012-08-17T06:46:20Z</time>
      </trkpt>
      <trkpt lat="49.01656" lon="6.00484">
        <ele>190.4783936</ele>
        <time>2012-08-17T06:46:27Z</time>
      </trkpt>
      <trkpt lat="49.01645" lon="6.00409">
        <ele>191.4395752</ele>
        <time>2012-08-17T06:46:35Z</time>
      </trkpt>
      <trkpt lat="49.01638" lon="6.0038">
        <ele>192.401123</ele>
        <time>2012-08-17T06:46:38Z</time>
      </trkpt>
      <trkpt lat="49.01626" lon="6.00305">
        <ele>193.8430176</ele>
        <time>2012-08-17T06:46:46Z</time>
      </trkpt>
      <trkpt lat="49.01622" lon="6.00248">
        <ele>193.8430176</ele>
        <time>2012-08-17T06:46:52Z</time>
      </trkpt>
      <trkpt lat="49.01613" lon="6.00188">
        <ele>192.401123</ele>
        <time>2012-08-17T06:46:57Z</time>
      </trkpt>
      <trkpt lat="49.01588" lon="6.00093">
        <ele>189.9976807</ele>
        <time>2012-08-17T06:47:04Z</time>
      </trkpt>
      <trkpt lat="49.01571" lon="6.00025">
        <ele>188.0750732</ele>
        <time>2012-08-17T06:47:09Z</time>
      </trkpt>
      <trkpt lat="49.01548" lon="5.9992">
        <ele>187.1137695</ele>
        <time>2012-08-17T06:47:17Z</time>
      </trkpt>
      <trkpt lat="49.01529" lon="5.99834">
        <ele>186.1524658</ele>
        <time>2012-08-17T06:47:24Z</time>
      </trkpt>
      <trkpt lat="49.01503" lon="5.99727">
        <ele>187.5943604</ele>
        <time>2012-08-17T06:47:33Z</time>
      </trkpt>
      <trkpt lat="49.01481" lon="5.99656">
        <ele>189.5169678</ele>
        <time>2012-08-17T06:47:40Z</time>
      </trkpt>
      <trkpt lat="49.01462" lon="5.99574">
        <ele>191.4395752</ele>
        <time>2012-08-17T06:47:48Z</time>
      </trkpt>
      <trkpt lat="49.01442" lon="5.99473">
        <ele>189.9976807</ele>
        <time>2012-08-17T06:47:57Z</time>
      </trkpt>
      <trkpt lat="49.01421" lon="5.99366">
        <ele>189.9976807</ele>
        <time>2012-08-17T06:48:06Z</time>
      </trkpt>
      <trkpt lat="49.01405" lon="5.9927">
        <ele>189.9976807</ele>
        <time>2012-08-17T06:48:14Z</time>
      </trkpt>
      <trkpt lat="49.01395" lon="5.99158">
        <ele>188.5557861</ele>
        <time>2012-08-17T06:48:23Z</time>
      </trkpt>
      <trkpt lat="49.01397" lon="5.99107">
        <ele>188.5557861</ele>
        <time>2012-08-17T06:48:27Z</time>
      </trkpt>
      <trkpt lat="49.01411" lon="5.99066">
        <ele>189.036377</ele>
        <time>2012-08-17T06:48:31Z</time>
      </trkpt>
      <trkpt lat="49.01434" lon="5.99043">
        <ele>190.9589844</ele>
        <time>2012-08-17T06:48:35Z</time>
      </trkpt>
      <trkpt lat="49.01453" lon="5.99035">
        <ele>192.401123</ele>
        <time>2012-08-17T06:48:38Z</time>
      </trkpt>
      <trkpt lat="49.01474" lon="5.9901">
        <ele>192.8817139</ele>
        <time>2012-08-17T06:48:42Z</time>
      </trkpt>
      <trkpt lat="49.01486" lon="5.98982">
        <ele>192.8817139</ele>
        <time>2012-08-17T06:48:45Z</time>
      </trkpt>
      <trkpt lat="49.01509" lon="5.98937">
        <ele>193.3623047</ele>
        <time>2012-08-17T06:48:50Z</time>
      </trkpt>
      <trkpt lat="49.01529" lon="5.98865">
        <ele>194.3237305</ele>
        <time>2012-08-17T06:48:57Z</time>
      </trkpt>
      <trkpt lat="49.01548" lon="5.98789">
        <ele>190.9589844</ele>
        <time>2012-08-17T06:49:04Z</time>
      </trkpt>
      <trkpt lat="49.01556" lon="5.98705">
        <ele>191.4395752</ele>
        <time>2012-08-17T06:49:11Z</time>
      </trkpt>
      <trkpt lat="49.01564" lon="5.98623">
        <ele>190.4783936</ele>
        <time>2012-08-17T06:49:18Z</time>
      </trkpt>
      <trkpt lat="49.01566" lon="5.98599">
        <ele>189.9976807</ele>
        <time>2012-08-17T06:49:20Z</time>
      </trkpt>
      <trkpt lat="49.01582" lon="5.9852">
        <ele>189.9976807</ele>
        <time>2012-08-17T06:49:27Z</time>
      </trkpt>
      <trkpt lat="49.01594" lon="5.98452">
        <ele>189.5169678</ele>
        <time>2012-08-17T06:49:33Z</time>
      </trkpt>
      <trkpt lat="49.01597" lon="5.98428">
        <ele>189.036377</ele>
        <time>2012-08-17T06:49:35Z</time>
      </trkpt>
      <trkpt lat="49.01598" lon="5.98341">
        <ele>190.9589844</ele>
        <time>2012-08-17T06:49:42Z</time>
      </trkpt>
      <trkpt lat="49.01599" lon="5.98303">
        <ele>189.036377</ele>
        <time>2012-08-17T06:49:45Z</time>
      </trkpt>
      <trkpt lat="49.01609" lon="5.98203">
        <ele>188.5557861</ele>
        <time>2012-08-17T06:49:53Z</time>
      </trkpt>
      <trkpt lat="49.01611" lon="5.98166">
        <ele>189.036377</ele>
        <time>2012-08-17T06:49:56Z</time>
      </trkpt>
      <trkpt lat="49.01617" lon="5.98065">
        <ele>189.036377</ele>
        <time>2012-08-17T06:50:04Z</time>
      </trkpt>
      <trkpt lat="49.01609" lon="5.97965">
        <ele>189.5169678</ele>
        <time>2012-08-17T06:50:12Z</time>
      </trkpt>
      <trkpt lat="49.01607" lon="5.97886">
        <ele>189.5169678</ele>
        <time>2012-08-17T06:50:19Z</time>
      </trkpt>
      <trkpt lat="49.01596" lon="5.97825">
        <ele>189.9976807</ele>
        <time>2012-08-17T06:50:24Z</time>
      </trkpt>
      <trkpt lat="49.01578" lon="5.97745">
        <ele>190.9589844</ele>
        <time>2012-08-17T06:50:31Z</time>
      </trkpt>
      <trkpt lat="49.01562" lon="5.97653">
        <ele>190.9589844</ele>
        <time>2012-08-17T06:50:39Z</time>
      </trkpt>
      <trkpt lat="49.0155" lon="5.9755">
        <ele>189.9976807</ele>
        <time>2012-08-17T06:50:47Z</time>
      </trkpt>
      <trkpt lat="49.01544" lon="5.97488">
        <ele>190.4783936</ele>
        <time>2012-08-17T06:50:52Z</time>
      </trkpt>
      <trkpt lat="49.01532" lon="5.97404">
        <ele>189.9976807</ele>
        <time>2012-08-17T06:50:59Z</time>
      </trkpt>
      <trkpt lat="49.01519" lon="5.97333">
        <ele>189.5169678</ele>
        <time>2012-08-17T06:51:05Z</time>
      </trkpt>
      <trkpt lat="49.01501" lon="5.97242">
        <ele>189.9976807</ele>
        <time>2012-08-17T06:51:13Z</time>
      </trkpt>
      <trkpt lat="49.01493" lon="5.97174">
        <ele>190.4783936</ele>
        <time>2012-08-17T06:51:19Z</time>
      </trkpt>
      <trkpt lat="49.01492" lon="5.9714">
        <ele>190.4783936</ele>
        <time>2012-08-17T06:51:22Z</time>
      </trkpt>
      <trkpt lat="49.01494" lon="5.97069">
        <ele>189.9976807</ele>
        <time>2012-08-17T06:51:28Z</time>
      </trkpt>
      <trkpt lat="49.015" lon="5.97011">
        <ele>189.9976807</ele>
        <time>2012-08-17T06:51:33Z</time>
      </trkpt>
      <trkpt lat="49.01517" lon="5.96959">
        <ele>190.4783936</ele>
        <time>2012-08-17T06:51:38Z</time>
      </trkpt>
      <trkpt lat="49.01539" lon="5.96927">
        <ele>191.9202881</ele>
        <time>2012-08-17T06:51:42Z</time>
      </trkpt>
      <trkpt lat="49.01563" lon="5.969">
        <ele>192.401123</ele>
        <time>2012-08-17T06:51:46Z</time>
      </trkpt>
      <trkpt lat="49.01579" lon="5.9686">
        <ele>191.4395752</ele>
        <time>2012-08-17T06:51:50Z</time>
      </trkpt>
      <trkpt lat="49.01593" lon="5.96764">
        <ele>192.401123</ele>
        <time>2012-08-17T06:51:58Z</time>
      </trkpt>
      <trkpt lat="49.01593" lon="5.96752">
        <ele>192.401123</ele>
        <time>2012-08-17T06:51:59Z</time>
      </trkpt>
      <trkpt lat="49.0159" lon="5.96643">
        <ele>191.9202881</ele>
        <time>2012-08-17T06:52:08Z</time>
      </trkpt>
      <trkpt lat="49.01578" lon="5.96573">
        <ele>190.9589844</ele>
        <time>2012-08-17T06:52:14Z</time>
      </trkpt>
      <trkpt lat="49.01557" lon="5.96506">
        <ele>191.9202881</ele>
        <time>2012-08-17T06:52:20Z</time>
      </trkpt>
      <trkpt lat="49.01521" lon="5.9641">
        <ele>191.4395752</ele>
        <time>2012-08-17T06:52:29Z</time>
      </trkpt>
      <trkpt lat="49.01492" lon="5.96342">
        <ele>193.3623047</ele>
        <time>2012-08-17T06:52:36Z</time>
      </trkpt>
      <trkpt lat="49.01462" lon="5.96294">
        <ele>194.8043213</ele>
        <time>2012-08-17T06:52:42Z</time>
      </trkpt>
      <trkpt lat="49.0143" lon="5.96261">
        <ele>192.8817139</ele>
        <time>2012-08-17T06:52:47Z</time>
      </trkpt>
      <trkpt lat="49.0137" lon="5.96218">
        <ele>192.8817139</ele>
        <time>2012-08-17T06:52:55Z</time>
      </trkpt>
      <trkpt lat="49.01295" lon="5.96164">
        <ele>193.3623047</ele>
        <time>2012-08-17T06:53:05Z</time>
      </trkpt>
      <trkpt lat="49.0124" lon="5.96134">
        <ele>193.3623047</ele>
        <time>2012-08-17T06:53:12Z</time>
      </trkpt>
      <trkpt lat="49.01205" lon="5.96122">
        <ele>190.9589844</ele>
        <time>2012-08-17T06:53:16Z</time>
      </trkpt>
      <trkpt lat="49.0118" lon="5.96112">
        <ele>190.4783936</ele>
        <time>2012-08-17T06:53:19Z</time>
      </trkpt>
      <trkpt lat="49.01145" lon="5.96079">
        <ele>190.4783936</ele>
        <time>2012-08-17T06:53:24Z</time>
      </trkpt>
      <trkpt lat="49.01129" lon="5.96053">
        <ele>191.9202881</ele>
        <time>2012-08-17T06:53:27Z</time>
      </trkpt>
      <trkpt lat="49.01091" lon="5.95997">
        <ele>192.8817139</ele>
        <time>2012-08-17T06:53:34Z</time>
      </trkpt>
      <trkpt lat="49.01044" lon="5.95949">
        <ele>191.9202881</ele>
        <time>2012-08-17T06:53:41Z</time>
      </trkpt>
      <trkpt lat="49.00973" lon="5.95881">
        <ele>190.9589844</ele>
        <time>2012-08-17T06:53:51Z</time>
      </trkpt>
      <trkpt lat="49.00936" lon="5.95832">
        <ele>190.4783936</ele>
        <time>2012-08-17T06:53:57Z</time>
      </trkpt>
      <trkpt lat="49.00907" lon="5.95771">
        <ele>191.4395752</ele>
        <time>2012-08-17T06:54:03Z</time>
      </trkpt>
      <trkpt lat="49.00872" lon="5.95675">
        <ele>191.9202881</ele>
        <time>2012-08-17T06:54:12Z</time>
      </trkpt>
      <trkpt lat="49.00842" lon="5.95592">
        <ele>191.9202881</ele>
        <time>2012-08-17T06:54:20Z</time>
      </trkpt>
      <trkpt lat="49.00821" lon="5.95532">
        <ele>192.8817139</ele>
        <time>2012-08-17T06:54:26Z</time>
      </trkpt>
      <trkpt lat="49.00807" lon="5.95494">
        <ele>195.765625</ele>
        <time>2012-08-17T06:54:30Z</time>
      </trkpt>
      <trkpt lat="49.00778" lon="5.95412">
        <ele>198.6495361</ele>
        <time>2012-08-17T06:54:39Z</time>
      </trkpt>
      <trkpt lat="49.00759" lon="5.95358">
        <ele>199.130127</ele>
        <time>2012-08-17T06:54:45Z</time>
      </trkpt>
      <trkpt lat="49.00732" lon="5.95283">
        <ele>199.6108398</ele>
        <time>2012-08-17T06:54:53Z</time>
      </trkpt>
      <trkpt lat="49.007" lon="5.95194">
        <ele>199.6108398</ele>
        <time>2012-08-17T06:55:02Z</time>
      </trkpt>
      <trkpt lat="49.0067" lon="5.95116">
        <ele>201.0528564</ele>
        <time>2012-08-17T06:55:10Z</time>
      </trkpt>
      <trkpt lat="49.00645" lon="5.95053">
        <ele>200.0916748</ele>
        <time>2012-08-17T06:55:16Z</time>
      </trkpt>
      <trkpt lat="49.00615" lon="5.94973">
        <ele>199.130127</ele>
        <time>2012-08-17T06:55:23Z</time>
      </trkpt>
      <trkpt lat="49.00578" lon="5.94867">
        <ele>198.6495361</ele>
        <time>2012-08-17T06:55:32Z</time>
      </trkpt>
      <trkpt lat="49.00553" lon="5.94784">
        <ele>198.1689453</ele>
        <time>2012-08-17T06:55:39Z</time>
      </trkpt>
      <trkpt lat="49.00543" lon="5.94735">
        <ele>197.6882324</ele>
        <time>2012-08-17T06:55:43Z</time>
      </trkpt>
      <trkpt lat="49.00547" lon="5.94669">
        <ele>198.6495361</ele>
        <time>2012-08-17T06:55:48Z</time>
      </trkpt>
      <trkpt lat="49.00556" lon="5.94588">
        <ele>196.2463379</ele>
        <time>2012-08-17T06:55:54Z</time>
      </trkpt>
      <trkpt lat="49.00558" lon="5.94574">
        <ele>196.2463379</ele>
        <time>2012-08-17T06:55:55Z</time>
      </trkpt>
      <trkpt lat="49.00567" lon="5.9449">
        <ele>196.2463379</ele>
        <time>2012-08-17T06:56:01Z</time>
      </trkpt>
      <trkpt lat="49.00572" lon="5.9445">
        <ele>194.8043213</ele>
        <time>2012-08-17T06:56:04Z</time>
      </trkpt>
      <trkpt lat="49.00582" lon="5.94368">
        <ele>194.3237305</ele>
        <time>2012-08-17T06:56:10Z</time>
      </trkpt>
      <trkpt lat="49.00586" lon="5.94283">
        <ele>193.8430176</ele>
        <time>2012-08-17T06:56:16Z</time>
      </trkpt>
      <trkpt lat="49.00593" lon="5.94224">
        <ele>192.8817139</ele>
        <time>2012-08-17T06:56:21Z</time>
      </trkpt>
      <trkpt lat="49.00593" lon="5.94201">
        <ele>193.3623047</ele>
        <time>2012-08-17T06:56:23Z</time>
      </trkpt>
      <trkpt lat="49.00591" lon="5.9413">
        <ele>192.401123</ele>
        <time>2012-08-17T06:56:29Z</time>
      </trkpt>
      <trkpt lat="49.0058" lon="5.94083">
        <ele>194.3237305</ele>
        <time>2012-08-17T06:56:33Z</time>
      </trkpt>
      <trkpt lat="49.00559" lon="5.94007">
        <ele>192.401123</ele>
        <time>2012-08-17T06:56:39Z</time>
      </trkpt>
      <trkpt lat="49.00549" lon="5.93973">
        <ele>193.3623047</ele>
        <time>2012-08-17T06:56:42Z</time>
      </trkpt>
      <trkpt lat="49.0052" lon="5.93895">
        <ele>193.8430176</ele>
        <time>2012-08-17T06:56:50Z</time>
      </trkpt>
      <trkpt lat="49.00491" lon="5.93831">
        <ele>193.8430176</ele>
        <time>2012-08-17T06:56:57Z</time>
      </trkpt>
      <trkpt lat="49.00462" lon="5.93764">
        <ele>194.3237305</ele>
        <time>2012-08-17T06:57:04Z</time>
      </trkpt>
      <trkpt lat="49.00422" lon="5.93678">
        <ele>194.8043213</ele>
        <time>2012-08-17T06:57:13Z</time>
      </trkpt>
      <trkpt lat="49.00373" lon="5.93571">
        <ele>194.8043213</ele>
        <time>2012-08-17T06:57:24Z</time>
      </trkpt>
      <trkpt lat="49.00333" lon="5.93483">
        <ele>195.765625</ele>
        <time>2012-08-17T06:57:33Z</time>
      </trkpt>
      <trkpt lat="49.00294" lon="5.93397">
        <ele>197.2075195</ele>
        <time>2012-08-17T06:57:42Z</time>
      </trkpt>
      <trkpt lat="49.0027" lon="5.93326">
        <ele>198.1689453</ele>
        <time>2012-08-17T06:57:49Z</time>
      </trkpt>
      <trkpt lat="49.00248" lon="5.93244">
        <ele>196.7269287</ele>
        <time>2012-08-17T06:57:56Z</time>
      </trkpt>
      <trkpt lat="49.00223" lon="5.93166">
        <ele>195.2849121</ele>
        <time>2012-08-17T06:58:03Z</time>
      </trkpt>
      <trkpt lat="49.00187" lon="5.93082">
        <ele>195.765625</ele>
        <time>2012-08-17T06:58:11Z</time>
      </trkpt>
      <trkpt lat="49.00152" lon="5.93013">
        <ele>195.2849121</ele>
        <time>2012-08-17T06:58:18Z</time>
      </trkpt>
      <trkpt lat="49.00112" lon="5.92938">
        <ele>195.765625</ele>
        <time>2012-08-17T06:58:26Z</time>
      </trkpt>
      <trkpt lat="49.00067" lon="5.92864">
        <ele>194.8043213</ele>
        <time>2012-08-17T06:58:34Z</time>
      </trkpt>
      <trkpt lat="49.00022" lon="5.92809">
        <ele>194.8043213</ele>
        <time>2012-08-17T06:58:41Z</time>
      </trkpt>
      <trkpt lat="48.99971" lon="5.92767">
        <ele>194.8043213</ele>
        <time>2012-08-17T06:58:48Z</time>
      </trkpt>
      <trkpt lat="48.99883" lon="5.92707">
        <ele>196.7269287</ele>
        <time>2012-08-17T06:59:00Z</time>
      </trkpt>
      <trkpt lat="48.99821" lon="5.92655">
        <ele>198.6495361</ele>
        <time>2012-08-17T06:59:09Z</time>
      </trkpt>
      <trkpt lat="48.99769" lon="5.92602">
        <ele>199.6108398</ele>
        <time>2012-08-17T06:59:17Z</time>
      </trkpt>
      <trkpt lat="48.99733" lon="5.92557">
        <ele>199.6108398</ele>
        <time>2012-08-17T06:59:23Z</time>
      </trkpt>
      <trkpt lat="48.99699" lon="5.9252">
        <ele>199.6108398</ele>
        <time>2012-08-17T06:59:28Z</time>
      </trkpt>
      <trkpt lat="48.99683" lon="5.92477">
        <ele>199.130127</ele>
        <time>2012-08-17T06:59:32Z</time>
      </trkpt>
      <trkpt lat="48.99671" lon="5.92385">
        <ele>202.494873</ele>
        <time>2012-08-17T06:59:40Z</time>
      </trkpt>
      <trkpt lat="48.99668" lon="5.9233">
        <ele>202.9754639</ele>
        <time>2012-08-17T06:59:45Z</time>
      </trkpt>
      <trkpt lat="48.99655" lon="5.92273">
        <ele>202.494873</ele>
        <time>2012-08-17T06:59:50Z</time>
      </trkpt>
      <trkpt lat="48.9963" lon="5.92188">
        <ele>200.0916748</ele>
        <time>2012-08-17T06:59:57Z</time>
      </trkpt>
      <trkpt lat="48.99598" lon="5.92095">
        <ele>199.130127</ele>
        <time>2012-08-17T07:00:04Z</time>
      </trkpt>
      <trkpt lat="48.99565" lon="5.91996">
        <ele>197.2075195</ele>
        <time>2012-08-17T07:00:11Z</time>
      </trkpt>
      <trkpt lat="48.99542" lon="5.91919">
        <ele>198.6495361</ele>
        <time>2012-08-17T07:00:17Z</time>
      </trkpt>
      <trkpt lat="48.9952" lon="5.9185">
        <ele>200.0916748</ele>
        <time>2012-08-17T07:00:23Z</time>
      </trkpt>
      <trkpt lat="48.99493" lon="5.91761">
        <ele>201.0528564</ele>
        <time>2012-08-17T07:00:31Z</time>
      </trkpt>
      <trkpt lat="48.99462" lon="5.91662">
        <ele>202.0142822</ele>
        <time>2012-08-17T07:00:40Z</time>
      </trkpt>
      <trkpt lat="48.99434" lon="5.91576">
        <ele>202.494873</ele>
        <time>2012-08-17T07:00:48Z</time>
      </trkpt>
      <trkpt lat="48.99411" lon="5.91512">
        <ele>203.4561768</ele>
        <time>2012-08-17T07:00:54Z</time>
      </trkpt>
      <trkpt lat="48.99372" lon="5.9142">
        <ele>204.4174805</ele>
        <time>2012-08-17T07:01:03Z</time>
      </trkpt>
      <trkpt lat="48.99336" lon="5.91351">
        <ele>203.9368896</ele>
        <time>2012-08-17T07:01:10Z</time>
      </trkpt>
      <trkpt lat="48.99291" lon="5.9127">
        <ele>202.9754639</ele>
        <time>2012-08-17T07:01:18Z</time>
      </trkpt>
      <trkpt lat="48.99244" lon="5.91197">
        <ele>202.9754639</ele>
        <time>2012-08-17T07:01:26Z</time>
      </trkpt>
      <trkpt lat="48.99181" lon="5.91115">
        <ele>202.9754639</ele>
        <time>2012-08-17T07:01:36Z</time>
      </trkpt>
      <trkpt lat="48.99127" lon="5.91045">
        <ele>203.4561768</ele>
        <time>2012-08-17T07:01:45Z</time>
      </trkpt>
      <trkpt lat="48.99067" lon="5.90969">
        <ele>204.8980713</ele>
        <time>2012-08-17T07:01:55Z</time>
      </trkpt>
      <trkpt lat="48.99021" lon="5.90926">
        <ele>204.4174805</ele>
        <time>2012-08-17T07:02:02Z</time>
      </trkpt>
      <trkpt lat="48.98969" lon="5.90889">
        <ele>204.4174805</ele>
        <time>2012-08-17T07:02:09Z</time>
      </trkpt>
      <trkpt lat="48.98911" lon="5.90858">
        <ele>203.4561768</ele>
        <time>2012-08-17T07:02:16Z</time>
      </trkpt>
      <trkpt lat="48.98894" lon="5.90848">
        <ele>202.9754639</ele>
        <time>2012-08-17T07:02:18Z</time>
      </trkpt>
      <trkpt lat="48.9886" lon="5.90806">
        <ele>202.494873</ele>
        <time>2012-08-17T07:02:23Z</time>
      </trkpt>
      <trkpt lat="48.98855" lon="5.90796">
        <ele>203.4561768</ele>
        <time>2012-08-17T07:02:24Z</time>
      </trkpt>
      <trkpt lat="48.98822" lon="5.90718">
        <ele>202.0142822</ele>
        <time>2012-08-17T07:02:31Z</time>
      </trkpt>
      <trkpt lat="48.98812" lon="5.90697">
        <ele>201.5335693</ele>
        <time>2012-08-17T07:02:33Z</time>
      </trkpt>
      <trkpt lat="48.98787" lon="5.90654">
        <ele>199.6108398</ele>
        <time>2012-08-17T07:02:37Z</time>
      </trkpt>
      <trkpt lat="48.98766" lon="5.90603">
        <ele>199.6108398</ele>
        <time>2012-08-17T07:02:41Z</time>
      </trkpt>
      <trkpt lat="48.98748" lon="5.90536">
        <ele>199.130127</ele>
        <time>2012-08-17T07:02:46Z</time>
      </trkpt>
      <trkpt lat="48.9874" lon="5.90502">
        <ele>199.130127</ele>
        <time>2012-08-17T07:02:49Z</time>
      </trkpt>
      <trkpt lat="48.98722" lon="5.90477">
        <ele>199.6108398</ele>
        <time>2012-08-17T07:02:53Z</time>
      </trkpt>
      <trkpt lat="48.98711" lon="5.9048">
        <ele>200.0916748</ele>
        <time>2012-08-17T07:02:55Z</time>
      </trkpt>
      <trkpt lat="48.98666" lon="5.9051">
        <ele>199.6108398</ele>
        <time>2012-08-17T07:03:02Z</time>
      </trkpt>
      <trkpt lat="48.98659" lon="5.90515">
        <ele>200.0916748</ele>
        <time>2012-08-17T07:03:03Z</time>
      </trkpt>
      <trkpt lat="48.98631" lon="5.90514">
        <ele>201.5335693</ele>
        <time>2012-08-17T07:03:07Z</time>
      </trkpt>
      <trkpt lat="48.98626" lon="5.90507">
        <ele>202.0142822</ele>
        <time>2012-08-17T07:03:08Z</time>
      </trkpt>
      <trkpt lat="48.98607" lon="5.90482">
        <ele>202.9754639</ele>
        <time>2012-08-17T07:03:12Z</time>
      </trkpt>
      <trkpt lat="48.98579" lon="5.90436">
        <ele>204.8980713</ele>
        <time>2012-08-17T07:03:19Z</time>
      </trkpt>
      <trkpt lat="48.98575" lon="5.90428">
        <ele>205.3787842</ele>
        <time>2012-08-17T07:03:20Z</time>
      </trkpt>
      <trkpt lat="48.98563" lon="5.9039">
        <ele>206.8206787</ele>
        <time>2012-08-17T07:03:25Z</time>
      </trkpt>
      <trkpt lat="48.98545" lon="5.90363">
        <ele>208.7434082</ele>
        <time>2012-08-17T07:03:30Z</time>
      </trkpt>
      <trkpt lat="48.98529" lon="5.90358">
        <ele>209.2241211</ele>
        <time>2012-08-17T07:03:33Z</time>
      </trkpt>
      <trkpt lat="48.98491" lon="5.90366">
        <ele>210.6660156</ele>
        <time>2012-08-17T07:03:41Z</time>
      </trkpt>
      <trkpt lat="48.98481" lon="5.9037">
        <ele>210.6660156</ele>
        <time>2012-08-17T07:03:45Z</time>
      </trkpt>
      <trkpt lat="48.98475" lon="5.90366">
        <ele>211.6274414</ele>
        <time>2012-08-17T07:03:52Z</time>
      </trkpt>
      <trkpt lat="48.98477" lon="5.90366">
        <ele>211.1467285</ele>
        <time>2012-08-17T07:04:36Z</time>
      </trkpt>
      <trkpt lat="48.98476" lon="5.90365">
        <ele>210.6660156</ele>
        <time>2012-08-17T07:04:37Z</time>
      </trkpt>
      <trkpt lat="48.98476" lon="5.90364">
        <ele>211.6274414</ele>
        <time>2012-08-17T07:04:38Z</time>
      </trkpt>
      <trkpt lat="48.9848" lon="5.90367">
        <ele>210.6660156</ele>
        <time>2012-08-17T07:05:22Z</time>
      </trkpt>
      <trkpt lat="48.9848" lon="5.90365">
        <ele>211.1467285</ele>
        <time>2012-08-17T07:05:23Z</time>
      </trkpt>
      <trkpt lat="48.98479" lon="5.90357">
        <ele>210.6660156</ele>
        <time>2012-08-17T07:05:25Z</time>
      </trkpt>
      <trkpt lat="48.9847" lon="5.90341">
        <ele>211.6274414</ele>
        <time>2012-08-17T07:05:32Z</time>
      </trkpt>
      <trkpt lat="48.98457" lon="5.9033">
        <ele>212.588623</ele>
        <time>2012-08-17T07:05:40Z</time>
      </trkpt>
      <trkpt lat="48.98456" lon="5.90327">
        <ele>212.1080322</ele>
        <time>2012-08-17T07:05:43Z</time>
      </trkpt>
      <trkpt lat="48.98456" lon="5.90326">
        <ele>212.1080322</ele>
        <time>2012-08-17T07:05:50Z</time>
      </trkpt>
      <trkpt lat="48.98453" lon="5.9031">
        <ele>212.1080322</ele>
        <time>2012-08-17T07:05:54Z</time>
      </trkpt>
      <trkpt lat="48.98439" lon="5.90279">
        <ele>212.1080322</ele>
        <time>2012-08-17T07:06:00Z</time>
      </trkpt>
      <trkpt lat="48.98415" lon="5.90233">
        <ele>211.6274414</ele>
        <time>2012-08-17T07:06:07Z</time>
      </trkpt>
      <trkpt lat="48.98384" lon="5.90195">
        <ele>211.1467285</ele>
        <time>2012-08-17T07:06:13Z</time>
      </trkpt>
      <trkpt lat="48.98343" lon="5.90157">
        <ele>211.1467285</ele>
        <time>2012-08-17T07:06:20Z</time>
      </trkpt>
      <trkpt lat="48.98297" lon="5.90131">
        <ele>211.1467285</ele>
        <time>2012-08-17T07:06:27Z</time>
      </trkpt>
      <trkpt lat="48.98229" lon="5.90097">
        <ele>210.1854248</ele>
        <time>2012-08-17T07:06:37Z</time>
      </trkpt>
      <trkpt lat="48.98151" lon="5.90058">
        <ele>209.2241211</ele>
        <time>2012-08-17T07:06:48Z</time>
      </trkpt>
      <trkpt lat="48.98111" lon="5.90036">
        <ele>209.704834</ele>
        <time>2012-08-17T07:06:54Z</time>
      </trkpt>
      <trkpt lat="48.98053" lon="5.90001">
        <ele>211.1467285</ele>
        <time>2012-08-17T07:07:03Z</time>
      </trkpt>
      <trkpt lat="48.98011" lon="5.89964">
        <ele>211.1467285</ele>
        <time>2012-08-17T07:07:10Z</time>
      </trkpt>
      <trkpt lat="48.97967" lon="5.89912">
        <ele>211.1467285</ele>
        <time>2012-08-17T07:07:18Z</time>
      </trkpt>
      <trkpt lat="48.97925" lon="5.89849">
        <ele>211.1467285</ele>
        <time>2012-08-17T07:07:27Z</time>
      </trkpt>
      <trkpt lat="48.97899" lon="5.89802">
        <ele>211.1467285</ele>
        <time>2012-08-17T07:07:33Z</time>
      </trkpt>
      <trkpt lat="48.97878" lon="5.89752">
        <ele>210.6660156</ele>
        <time>2012-08-17T07:07:39Z</time>
      </trkpt>
      <trkpt lat="48.97856" lon="5.89688">
        <ele>211.1467285</ele>
        <time>2012-08-17T07:07:46Z</time>
      </trkpt>
      <trkpt lat="48.97839" lon="5.89616">
        <ele>211.6274414</ele>
        <time>2012-08-17T07:07:53Z</time>
      </trkpt>
      <trkpt lat="48.97822" lon="5.89522">
        <ele>211.1467285</ele>
        <time>2012-08-17T07:08:02Z</time>
      </trkpt>
      <trkpt lat="48.97824" lon="5.89474">
        <ele>210.1854248</ele>
        <time>2012-08-17T07:08:07Z</time>
      </trkpt>
      <trkpt lat="48.97823" lon="5.89462">
        <ele>210.1854248</ele>
        <time>2012-08-17T07:08:08Z</time>
      </trkpt>
      <trkpt lat="48.97823" lon="5.89437">
        <ele>209.704834</ele>
        <time>2012-08-17T07:08:10Z</time>
      </trkpt>
      <trkpt lat="48.97823" lon="5.89356">
        <ele>208.7434082</ele>
        <time>2012-08-17T07:08:16Z</time>
      </trkpt>
      <trkpt lat="48.97823" lon="5.89311">
        <ele>207.7821045</ele>
        <time>2012-08-17T07:08:19Z</time>
      </trkpt>
      <trkpt lat="48.97825" lon="5.89283">
        <ele>206.3400879</ele>
        <time>2012-08-17T07:08:21Z</time>
      </trkpt>
      <trkpt lat="48.97839" lon="5.89179">
        <ele>203.9368896</ele>
        <time>2012-08-17T07:08:28Z</time>
      </trkpt>
      <trkpt lat="48.97838" lon="5.89145">
        <ele>202.9754639</ele>
        <time>2012-08-17T07:08:30Z</time>
      </trkpt>
      <trkpt lat="48.97841" lon="5.89097">
        <ele>201.0528564</ele>
        <time>2012-08-17T07:08:33Z</time>
      </trkpt>
      <trkpt lat="48.97851" lon="5.89035">
        <ele>200.5722656</ele>
        <time>2012-08-17T07:08:37Z</time>
      </trkpt>
      <trkpt lat="48.97847" lon="5.88982">
        <ele>201.0528564</ele>
        <time>2012-08-17T07:08:41Z</time>
      </trkpt>
      <trkpt lat="48.97837" lon="5.88962">
        <ele>202.0142822</ele>
        <time>2012-08-17T07:08:43Z</time>
      </trkpt>
      <trkpt lat="48.97802" lon="5.88895">
        <ele>203.9368896</ele>
        <time>2012-08-17T07:08:51Z</time>
      </trkpt>
      <trkpt lat="48.97784" lon="5.88835">
        <ele>204.4174805</ele>
        <time>2012-08-17T07:08:57Z</time>
      </trkpt>
      <trkpt lat="48.97772" lon="5.88759">
        <ele>204.4174805</ele>
        <time>2012-08-17T07:09:04Z</time>
      </trkpt>
      <trkpt lat="48.97769" lon="5.8875">
        <ele>203.9368896</ele>
        <time>2012-08-17T07:09:05Z</time>
      </trkpt>
      <trkpt lat="48.97748" lon="5.88705">
        <ele>204.4174805</ele>
        <time>2012-08-17T07:09:10Z</time>
      </trkpt>
      <trkpt lat="48.97721" lon="5.88678">
        <ele>204.4174805</ele>
        <time>2012-08-17T07:09:14Z</time>
      </trkpt>
      <trkpt lat="48.97689" lon="5.88667">
        <ele>203.9368896</ele>
        <time>2012-08-17T07:09:18Z</time>
      </trkpt>
      <trkpt lat="48.97655" lon="5.88675">
        <ele>202.9754639</ele>
        <time>2012-08-17T07:09:22Z</time>
      </trkpt>
      <trkpt lat="48.97639" lon="5.88688">
        <ele>202.9754639</ele>
        <time>2012-08-17T07:09:24Z</time>
      </trkpt>
      <trkpt lat="48.97617" lon="5.8871">
        <ele>201.5335693</ele>
        <time>2012-08-17T07:09:27Z</time>
      </trkpt>
      <trkpt lat="48.9761" lon="5.88717">
        <ele>201.5335693</ele>
        <time>2012-08-17T07:09:28Z</time>
      </trkpt>
      <trkpt lat="48.97573" lon="5.88761">
        <ele>200.0916748</ele>
        <time>2012-08-17T07:09:33Z</time>
      </trkpt>
      <trkpt lat="48.97537" lon="5.88803">
        <ele>199.6108398</ele>
        <time>2012-08-17T07:09:38Z</time>
      </trkpt>
      <trkpt lat="48.975" lon="5.88847">
        <ele>201.0528564</ele>
        <time>2012-08-17T07:09:44Z</time>
      </trkpt>
      <trkpt lat="48.97466" lon="5.8888">
        <ele>202.0142822</ele>
        <time>2012-08-17T07:09:50Z</time>
      </trkpt>
      <trkpt lat="48.97435" lon="5.88896">
        <ele>202.0142822</ele>
        <time>2012-08-17T07:09:55Z</time>
      </trkpt>
      <trkpt lat="48.97398" lon="5.8891">
        <ele>202.9754639</ele>
        <time>2012-08-17T07:10:01Z</time>
      </trkpt>
      <trkpt lat="48.97358" lon="5.88915">
        <ele>203.4561768</ele>
        <time>2012-08-17T07:10:07Z</time>
      </trkpt>
      <trkpt lat="48.97313" lon="5.8893">
        <ele>204.8980713</ele>
        <time>2012-08-17T07:10:14Z</time>
      </trkpt>
      <trkpt lat="48.97295" lon="5.88937">
        <ele>205.3787842</ele>
        <time>2012-08-17T07:10:17Z</time>
      </trkpt>
      <trkpt lat="48.97269" lon="5.88934">
        <ele>204.8980713</ele>
        <time>2012-08-17T07:10:21Z</time>
      </trkpt>
      <trkpt lat="48.97248" lon="5.88907">
        <ele>205.3787842</ele>
        <time>2012-08-17T07:10:25Z</time>
      </trkpt>
      <trkpt lat="48.9721" lon="5.88809">
        <ele>205.8594971</ele>
        <time>2012-08-17T07:10:35Z</time>
      </trkpt>
      <trkpt lat="48.97174" lon="5.88721">
        <ele>205.8594971</ele>
        <time>2012-08-17T07:10:44Z</time>
      </trkpt>
      <trkpt lat="48.97138" lon="5.88631">
        <ele>207.3013916</ele>
        <time>2012-08-17T07:10:54Z</time>
      </trkpt>
      <trkpt lat="48.97109" lon="5.8856">
        <ele>206.8206787</ele>
        <time>2012-08-17T07:11:02Z</time>
      </trkpt>
      <trkpt lat="48.97088" lon="5.8852">
        <ele>206.3400879</ele>
        <time>2012-08-17T07:11:06Z</time>
      </trkpt>
      <trkpt lat="48.97076" lon="5.88499">
        <ele>204.8980713</ele>
        <time>2012-08-17T07:11:08Z</time>
      </trkpt>
      <trkpt lat="48.97063" lon="5.88446">
        <ele>203.9368896</ele>
        <time>2012-08-17T07:11:12Z</time>
      </trkpt>
      <trkpt lat="48.97059" lon="5.88393">
        <ele>204.4174805</ele>
        <time>2012-08-17T07:11:16Z</time>
      </trkpt>
      <trkpt lat="48.9706" lon="5.8837">
        <ele>205.3787842</ele>
        <time>2012-08-17T07:11:18Z</time>
      </trkpt>
      <trkpt lat="48.97052" lon="5.88316">
        <ele>206.3400879</ele>
        <time>2012-08-17T07:11:23Z</time>
      </trkpt>
      <trkpt lat="48.97033" lon="5.88287">
        <ele>205.8594971</ele>
        <time>2012-08-17T07:11:27Z</time>
      </trkpt>
      <trkpt lat="48.97007" lon="5.88274">
        <ele>206.3400879</ele>
        <time>2012-08-17T07:11:31Z</time>
      </trkpt>
      <trkpt lat="48.96988" lon="5.88274">
        <ele>207.3013916</ele>
        <time>2012-08-17T07:11:34Z</time>
      </trkpt>
      <trkpt lat="48.96927" lon="5.88288">
        <ele>209.2241211</ele>
        <time>2012-08-17T07:11:44Z</time>
      </trkpt>
      <trkpt lat="48.96871" lon="5.88297">
        <ele>210.6660156</ele>
        <time>2012-08-17T07:11:54Z</time>
      </trkpt>
      <trkpt lat="48.96838" lon="5.8828">
        <ele>210.6660156</ele>
        <time>2012-08-17T07:12:00Z</time>
      </trkpt>
      <trkpt lat="48.96808" lon="5.88247">
        <ele>211.1467285</ele>
        <time>2012-08-17T07:12:06Z</time>
      </trkpt>
      <trkpt lat="48.96789" lon="5.88207">
        <ele>212.1080322</ele>
        <time>2012-08-17T07:12:12Z</time>
      </trkpt>
      <trkpt lat="48.96783" lon="5.88183">
        <ele>213.5500488</ele>
        <time>2012-08-17T07:12:16Z</time>
      </trkpt>
      <trkpt lat="48.96774" lon="5.8815">
        <ele>215.4726563</ele>
        <time>2012-08-17T07:12:22Z</time>
      </trkpt>
      <trkpt lat="48.9677" lon="5.88115">
        <ele>216.43396</ele>
        <time>2012-08-17T07:12:28Z</time>
      </trkpt>
      <trkpt lat="48.96776" lon="5.88082">
        <ele>218.3565674</ele>
        <time>2012-08-17T07:12:34Z</time>
      </trkpt>
      <trkpt lat="48.96788" lon="5.88032">
        <ele>219.798584</ele>
        <time>2012-08-17T07:12:43Z</time>
      </trkpt>
      <trkpt lat="48.96792" lon="5.88017">
        <ele>221.7211914</ele>
        <time>2012-08-17T07:12:46Z</time>
      </trkpt>
      <trkpt lat="48.96803" lon="5.87977">
        <ele>223.6437988</ele>
        <time>2012-08-17T07:12:54Z</time>
      </trkpt>
      <trkpt lat="48.96815" lon="5.87935">
        <ele>225.5665283</ele>
        <time>2012-08-17T07:13:03Z</time>
      </trkpt>
      <trkpt lat="48.96827" lon="5.87898">
        <ele>227.4891357</ele>
        <time>2012-08-17T07:13:11Z</time>
      </trkpt>
      <trkpt lat="48.96837" lon="5.87867">
        <ele>229.892334</ele>
        <time>2012-08-17T07:13:18Z</time>
      </trkpt>
      <trkpt lat="48.9685" lon="5.87837">
        <ele>230.8537598</ele>
        <time>2012-08-17T07:13:25Z</time>
      </trkpt>
      <trkpt lat="48.96862" lon="5.87816">
        <ele>232.2957764</ele>
        <time>2012-08-17T07:13:31Z</time>
      </trkpt>
      <trkpt lat="48.96883" lon="5.87793">
        <ele>232.7764893</ele>
        <time>2012-08-17T07:13:38Z</time>
      </trkpt>
      <trkpt lat="48.96906" lon="5.87771">
        <ele>235.6602783</ele>
        <time>2012-08-17T07:13:45Z</time>
      </trkpt>
      <trkpt lat="48.96929" lon="5.87739">
        <ele>237.1022949</ele>
        <time>2012-08-17T07:13:54Z</time>
      </trkpt>
      <trkpt lat="48.96945" lon="5.87703">
        <ele>238.5443115</ele>
        <time>2012-08-17T07:14:02Z</time>
      </trkpt>
      <trkpt lat="48.96955" lon="5.87661">
        <ele>239.9862061</ele>
        <time>2012-08-17T07:14:10Z</time>
      </trkpt>
      <trkpt lat="48.96965" lon="5.87607">
        <ele>241.9089355</ele>
        <time>2012-08-17T07:14:20Z</time>
      </trkpt>
      <trkpt lat="48.96973" lon="5.87549">
        <ele>245.2734375</ele>
        <time>2012-08-17T07:14:31Z</time>
      </trkpt>
      <trkpt lat="48.96971" lon="5.87503">
        <ele>246.7154541</ele>
        <time>2012-08-17T07:14:39Z</time>
      </trkpt>
      <trkpt lat="48.96962" lon="5.8746">
        <ele>248.6381836</ele>
        <time>2012-08-17T07:14:47Z</time>
      </trkpt>
      <trkpt lat="48.9695" lon="5.87417">
        <ele>250.560791</ele>
        <time>2012-08-17T07:14:55Z</time>
      </trkpt>
      <trkpt lat="48.96934" lon="5.87359">
        <ele>252.0028076</ele>
        <time>2012-08-17T07:15:06Z</time>
      </trkpt>
      <trkpt lat="48.96922" lon="5.87316">
        <ele>252.9639893</ele>
        <time>2012-08-17T07:15:14Z</time>
      </trkpt>
      <trkpt lat="48.96912" lon="5.87263">
        <ele>254.4060059</ele>
        <time>2012-08-17T07:15:23Z</time>
      </trkpt>
      <trkpt lat="48.96905" lon="5.872">
        <ele>257.2900391</ele>
        <time>2012-08-17T07:15:33Z</time>
      </trkpt>
      <trkpt lat="48.96902" lon="5.87158">
        <ele>259.2126465</ele>
        <time>2012-08-17T07:15:40Z</time>
      </trkpt>
      <trkpt lat="48.96896" lon="5.87107">
        <ele>260.654541</ele>
        <time>2012-08-17T07:15:49Z</time>
      </trkpt>
      <trkpt lat="48.96889" lon="5.87042">
        <ele>262.5771484</ele>
        <time>2012-08-17T07:16:00Z</time>
      </trkpt>
      <trkpt lat="48.96884" lon="5.86979">
        <ele>264.4998779</ele>
        <time>2012-08-17T07:16:10Z</time>
      </trkpt>
      <trkpt lat="48.96879" lon="5.86919">
        <ele>265.9418945</ele>
        <time>2012-08-17T07:16:19Z</time>
      </trkpt>
      <trkpt lat="48.96873" lon="5.86842">
        <ele>267.3839111</ele>
        <time>2012-08-17T07:16:30Z</time>
      </trkpt>
      <trkpt lat="48.9687" lon="5.86779">
        <ele>269.3065186</ele>
        <time>2012-08-17T07:16:38Z</time>
      </trkpt>
      <trkpt lat="48.96864" lon="5.86697">
        <ele>270.2677002</ele>
        <time>2012-08-17T07:16:48Z</time>
      </trkpt>
      <trkpt lat="48.96858" lon="5.86618">
        <ele>271.229126</ele>
        <time>2012-08-17T07:16:57Z</time>
      </trkpt>
      <trkpt lat="48.96855" lon="5.86582">
        <ele>272.1904297</ele>
        <time>2012-08-17T07:17:01Z</time>
      </trkpt>
      <trkpt lat="48.96847" lon="5.86482">
        <ele>271.229126</ele>
        <time>2012-08-17T07:17:13Z</time>
      </trkpt>
      <trkpt lat="48.96841" lon="5.86406">
        <ele>270.2677002</ele>
        <time>2012-08-17T07:17:22Z</time>
      </trkpt>
      <trkpt lat="48.96836" lon="5.86351">
        <ele>269.3065186</ele>
        <time>2012-08-17T07:17:28Z</time>
      </trkpt>
      <trkpt lat="48.96826" lon="5.86293">
        <ele>267.864502</ele>
        <time>2012-08-17T07:17:34Z</time>
      </trkpt>
      <trkpt lat="48.96808" lon="5.86238">
        <ele>267.3839111</ele>
        <time>2012-08-17T07:17:40Z</time>
      </trkpt>
      <trkpt lat="48.96779" lon="5.8618">
        <ele>266.4224854</ele>
        <time>2012-08-17T07:17:47Z</time>
      </trkpt>
      <trkpt lat="48.96758" lon="5.86151">
        <ele>265.4613037</ele>
        <time>2012-08-17T07:17:51Z</time>
      </trkpt>
      <trkpt lat="48.96722" lon="5.86115">
        <ele>264.4998779</ele>
        <time>2012-08-17T07:17:57Z</time>
      </trkpt>
      <trkpt lat="48.96671" lon="5.86084">
        <ele>264.0192871</ele>
        <time>2012-08-17T07:18:05Z</time>
      </trkpt>
      <trkpt lat="48.96613" lon="5.86055">
        <ele>263.5385742</ele>
        <time>2012-08-17T07:18:14Z</time>
      </trkpt>
      <trkpt lat="48.96561" lon="5.86029">
        <ele>264.4998779</ele>
        <time>2012-08-17T07:18:22Z</time>
      </trkpt>
      <trkpt lat="48.96509" lon="5.86002">
        <ele>264.9805908</ele>
        <time>2012-08-17T07:18:30Z</time>
      </trkpt>
      <trkpt lat="48.96434" lon="5.85963">
        <ele>264.0192871</ele>
        <time>2012-08-17T07:18:41Z</time>
      </trkpt>
      <trkpt lat="48.96367" lon="5.8593">
        <ele>264.0192871</ele>
        <time>2012-08-17T07:18:51Z</time>
      </trkpt>
      <trkpt lat="48.96297" lon="5.85893">
        <ele>263.0578613</ele>
        <time>2012-08-17T07:19:02Z</time>
      </trkpt>
      <trkpt lat="48.96236" lon="5.85862">
        <ele>261.6159668</ele>
        <time>2012-08-17T07:19:11Z</time>
      </trkpt>
      <trkpt lat="48.96177" lon="5.85832">
        <ele>258.7319336</ele>
        <time>2012-08-17T07:19:19Z</time>
      </trkpt>
      <trkpt lat="48.96134" lon="5.8581">
        <ele>256.3287354</ele>
        <time>2012-08-17T07:19:24Z</time>
      </trkpt>
      <trkpt lat="48.96087" lon="5.85787">
        <ele>252.0028076</ele>
        <time>2012-08-17T07:19:29Z</time>
      </trkpt>
      <trkpt lat="48.96045" lon="5.85775">
        <ele>249.5994873</ele>
        <time>2012-08-17T07:19:33Z</time>
      </trkpt>
      <trkpt lat="48.95998" lon="5.85776">
        <ele>246.2348633</ele>
        <time>2012-08-17T07:19:37Z</time>
      </trkpt>
      <trkpt lat="48.95961" lon="5.85788">
        <ele>241.9089355</ele>
        <time>2012-08-17T07:19:40Z</time>
      </trkpt>
      <trkpt lat="48.95949" lon="5.85793">
        <ele>241.9089355</ele>
        <time>2012-08-17T07:19:41Z</time>
      </trkpt>
      <trkpt lat="48.959" lon="5.85816">
        <ele>239.0249023</ele>
        <time>2012-08-17T07:19:45Z</time>
      </trkpt>
      <trkpt lat="48.95866" lon="5.85832">
        <ele>237.1022949</ele>
        <time>2012-08-17T07:19:48Z</time>
      </trkpt>
      <trkpt lat="48.95832" lon="5.85847">
        <ele>235.6602783</ele>
        <time>2012-08-17T07:19:51Z</time>
      </trkpt>
      <trkpt lat="48.95759" lon="5.85882">
        <ele>234.2183838</ele>
        <time>2012-08-17T07:19:58Z</time>
      </trkpt>
      <trkpt lat="48.95719" lon="5.85914">
        <ele>234.6990967</ele>
        <time>2012-08-17T07:20:03Z</time>
      </trkpt>
      <trkpt lat="48.95699" lon="5.85933">
        <ele>236.1409912</ele>
        <time>2012-08-17T07:20:06Z</time>
      </trkpt>
      <trkpt lat="48.95682" lon="5.85953">
        <ele>234.6990967</ele>
        <time>2012-08-17T07:20:09Z</time>
      </trkpt>
      <trkpt lat="48.95673" lon="5.85968">
        <ele>234.6990967</ele>
        <time>2012-08-17T07:20:11Z</time>
      </trkpt>
      <trkpt lat="48.95649" lon="5.8603">
        <ele>234.6990967</ele>
        <time>2012-08-17T07:20:18Z</time>
      </trkpt>
      <trkpt lat="48.95626" lon="5.86108">
        <ele>233.7376709</ele>
        <time>2012-08-17T07:20:26Z</time>
      </trkpt>
      <trkpt lat="48.956" lon="5.86186">
        <ele>233.2570801</ele>
        <time>2012-08-17T07:20:34Z</time>
      </trkpt>
      <trkpt lat="48.9557" lon="5.86264">
        <ele>232.7764893</ele>
        <time>2012-08-17T07:20:42Z</time>
      </trkpt>
      <trkpt lat="48.95538" lon="5.86342">
        <ele>231.3343506</ele>
        <time>2012-08-17T07:20:50Z</time>
      </trkpt>
      <trkpt lat="48.95524" lon="5.86366">
        <ele>229.892334</ele>
        <time>2012-08-17T07:20:53Z</time>
      </trkpt>
      <trkpt lat="48.95516" lon="5.86376">
        <ele>228.9311523</ele>
        <time>2012-08-17T07:20:55Z</time>
      </trkpt>
      <trkpt lat="48.955" lon="5.86387">
        <ele>228.4504395</ele>
        <time>2012-08-17T07:20:59Z</time>
      </trkpt>
      <trkpt lat="48.95495" lon="5.864">
        <ele>227.9697266</ele>
        <time>2012-08-17T07:21:01Z</time>
      </trkpt>
      <trkpt lat="48.95472" lon="5.86456">
        <ele>226.527832</ele>
        <time>2012-08-17T07:21:07Z</time>
      </trkpt>
      <trkpt lat="48.9545" lon="5.86513">
        <ele>223.6437988</ele>
        <time>2012-08-17T07:21:13Z</time>
      </trkpt>
      <trkpt lat="48.95426" lon="5.86552">
        <ele>219.3179932</ele>
        <time>2012-08-17T07:21:18Z</time>
      </trkpt>
      <trkpt lat="48.95416" lon="5.86565">
        <ele>218.3565674</ele>
        <time>2012-08-17T07:21:20Z</time>
      </trkpt>
      <trkpt lat="48.95391" lon="5.86576">
        <ele>215.9532471</ele>
        <time>2012-08-17T07:21:24Z</time>
      </trkpt>
      <trkpt lat="48.95374" lon="5.8656">
        <ele>215.9532471</ele>
        <time>2012-08-17T07:21:27Z</time>
      </trkpt>
      <trkpt lat="48.95366" lon="5.86539">
        <ele>216.43396</ele>
        <time>2012-08-17T07:21:29Z</time>
      </trkpt>
      <trkpt lat="48.95343" lon="5.86482">
        <ele>216.9146729</ele>
        <time>2012-08-17T07:21:35Z</time>
      </trkpt>
      <trkpt lat="48.95322" lon="5.86425">
        <ele>215.4726563</ele>
        <time>2012-08-17T07:21:41Z</time>
      </trkpt>
      <trkpt lat="48.95311" lon="5.86366">
        <ele>214.9919434</ele>
        <time>2012-08-17T07:21:46Z</time>
      </trkpt>
      <trkpt lat="48.95304" lon="5.86311">
        <ele>212.588623</ele>
        <time>2012-08-17T07:21:50Z</time>
      </trkpt>
      <trkpt lat="48.95305" lon="5.86283">
        <ele>211.6274414</ele>
        <time>2012-08-17T07:21:52Z</time>
      </trkpt>
      <trkpt lat="48.95309" lon="5.86255">
        <ele>210.6660156</ele>
        <time>2012-08-17T07:21:54Z</time>
      </trkpt>
      <trkpt lat="48.95335" lon="5.86168">
        <ele>209.704834</ele>
        <time>2012-08-17T07:22:01Z</time>
      </trkpt>
      <trkpt lat="48.95366" lon="5.86093">
        <ele>208.7434082</ele>
        <time>2012-08-17T07:22:08Z</time>
      </trkpt>
      <trkpt lat="48.9539" lon="5.86022">
        <ele>209.2241211</ele>
        <time>2012-08-17T07:22:15Z</time>
      </trkpt>
      <trkpt lat="48.95412" lon="5.85944">
        <ele>210.6660156</ele>
        <time>2012-08-17T07:22:23Z</time>
      </trkpt>
      <trkpt lat="48.95422" lon="5.85865">
        <ele>210.6660156</ele>
        <time>2012-08-17T07:22:31Z</time>
      </trkpt>
      <trkpt lat="48.95417" lon="5.85805">
        <ele>210.6660156</ele>
        <time>2012-08-17T07:22:37Z</time>
      </trkpt>
      <trkpt lat="48.954" lon="5.85735">
        <ele>210.6660156</ele>
        <time>2012-08-17T07:22:44Z</time>
      </trkpt>
      <trkpt lat="48.95374" lon="5.85671">
        <ele>211.1467285</ele>
        <time>2012-08-17T07:22:51Z</time>
      </trkpt>
      <trkpt lat="48.95345" lon="5.85622">
        <ele>212.588623</ele>
        <time>2012-08-17T07:22:57Z</time>
      </trkpt>
      <trkpt lat="48.95314" lon="5.85593">
        <ele>212.588623</ele>
        <time>2012-08-17T07:23:02Z</time>
      </trkpt>
      <trkpt lat="48.95276" lon="5.85571">
        <ele>212.1080322</ele>
        <time>2012-08-17T07:23:08Z</time>
      </trkpt>
      <trkpt lat="48.95218" lon="5.85546">
        <ele>214.0306396</ele>
        <time>2012-08-17T07:23:17Z</time>
      </trkpt>
      <trkpt lat="48.95155" lon="5.85519">
        <ele>215.9532471</ele>
        <time>2012-08-17T07:23:27Z</time>
      </trkpt>
      <trkpt lat="48.95113" lon="5.85499">
        <ele>215.9532471</ele>
        <time>2012-08-17T07:23:34Z</time>
      </trkpt>
      <trkpt lat="48.95074" lon="5.85473">
        <ele>217.3953857</ele>
        <time>2012-08-17T07:23:41Z</time>
      </trkpt>
      <trkpt lat="48.95069" lon="5.85469">
        <ele>217.3953857</ele>
        <time>2012-08-17T07:23:42Z</time>
      </trkpt>
      <trkpt lat="48.95025" lon="5.85437">
        <ele>219.3179932</ele>
        <time>2012-08-17T07:23:51Z</time>
      </trkpt>
      <trkpt lat="48.94975" lon="5.85398">
        <ele>222.2017822</ele>
        <time>2012-08-17T07:24:02Z</time>
      </trkpt>
      <trkpt lat="48.94939" lon="5.85371">
        <ele>225.0859375</ele>
        <time>2012-08-17T07:24:11Z</time>
      </trkpt>
      <trkpt lat="48.94905" lon="5.85344">
        <ele>227.9697266</ele>
        <time>2012-08-17T07:24:20Z</time>
      </trkpt>
      <trkpt lat="48.94887" lon="5.85328">
        <ele>229.4117432</ele>
        <time>2012-08-17T07:24:25Z</time>
      </trkpt>
      <trkpt lat="48.94881" lon="5.8532">
        <ele>229.4117432</ele>
        <time>2012-08-17T07:24:27Z</time>
      </trkpt>
      <trkpt lat="48.94848" lon="5.85287">
        <ele>231.3343506</ele>
        <time>2012-08-17T07:24:36Z</time>
      </trkpt>
      <trkpt lat="48.94814" lon="5.85252">
        <ele>232.7764893</ele>
        <time>2012-08-17T07:24:45Z</time>
      </trkpt>
      <trkpt lat="48.94775" lon="5.85209">
        <ele>233.7376709</ele>
        <time>2012-08-17T07:24:54Z</time>
      </trkpt>
      <trkpt lat="48.9474" lon="5.85166">
        <ele>232.7764893</ele>
        <time>2012-08-17T07:25:01Z</time>
      </trkpt>
      <trkpt lat="48.94696" lon="5.85106">
        <ele>231.3343506</ele>
        <time>2012-08-17T07:25:09Z</time>
      </trkpt>
      <trkpt lat="48.94661" lon="5.85062">
        <ele>232.7764893</ele>
        <time>2012-08-17T07:25:16Z</time>
      </trkpt>
      <trkpt lat="48.94625" lon="5.85033">
        <ele>234.6990967</ele>
        <time>2012-08-17T07:25:23Z</time>
      </trkpt>
      <trkpt lat="48.94572" lon="5.85001">
        <ele>235.6602783</ele>
        <time>2012-08-17T07:25:32Z</time>
      </trkpt>
      <trkpt lat="48.94518" lon="5.84968">
        <ele>235.6602783</ele>
        <time>2012-08-17T07:25:41Z</time>
      </trkpt>
      <trkpt lat="48.94499" lon="5.84956">
        <ele>236.1409912</ele>
        <time>2012-08-17T07:25:44Z</time>
      </trkpt>
      <trkpt lat="48.9447" lon="5.84946">
        <ele>235.1796875</ele>
        <time>2012-08-17T07:25:48Z</time>
      </trkpt>
      <trkpt lat="48.94425" lon="5.84941">
        <ele>231.8149414</ele>
        <time>2012-08-17T07:25:53Z</time>
      </trkpt>
      <trkpt lat="48.94376" lon="5.84932">
        <ele>228.4504395</ele>
        <time>2012-08-17T07:25:58Z</time>
      </trkpt>
      <trkpt lat="48.94336" lon="5.8491">
        <ele>226.527832</ele>
        <time>2012-08-17T07:26:02Z</time>
      </trkpt>
      <trkpt lat="48.94305" lon="5.8489">
        <ele>223.6437988</ele>
        <time>2012-08-17T07:26:05Z</time>
      </trkpt>
      <trkpt lat="48.94264" lon="5.84863">
        <ele>220.2791748</ele>
        <time>2012-08-17T07:26:09Z</time>
      </trkpt>
      <trkpt lat="48.9423" lon="5.84812">
        <ele>216.9146729</ele>
        <time>2012-08-17T07:26:13Z</time>
      </trkpt>
      <trkpt lat="48.94219" lon="5.84756">
        <ele>214.0306396</ele>
        <time>2012-08-17T07:26:16Z</time>
      </trkpt>
      <trkpt lat="48.94225" lon="5.84698">
        <ele>211.6274414</ele>
        <time>2012-08-17T07:26:19Z</time>
      </trkpt>
      <trkpt lat="48.94246" lon="5.84652">
        <ele>211.6274414</ele>
        <time>2012-08-17T07:26:22Z</time>
      </trkpt>
      <trkpt lat="48.94255" lon="5.8464">
        <ele>211.1467285</ele>
        <time>2012-08-17T07:26:23Z</time>
      </trkpt>
      <trkpt lat="48.94272" lon="5.84617">
        <ele>210.1854248</ele>
        <time>2012-08-17T07:26:25Z</time>
      </trkpt>
      <trkpt lat="48.94302" lon="5.84576">
        <ele>209.704834</ele>
        <time>2012-08-17T07:26:29Z</time>
      </trkpt>
      <trkpt lat="48.94347" lon="5.84508">
        <ele>210.1854248</ele>
        <time>2012-08-17T07:26:36Z</time>
      </trkpt>
      <trkpt lat="48.94385" lon="5.84465">
        <ele>210.6660156</ele>
        <time>2012-08-17T07:26:42Z</time>
      </trkpt>
      <trkpt lat="48.9442" lon="5.84424">
        <ele>211.6274414</ele>
        <time>2012-08-17T07:26:48Z</time>
      </trkpt>
      <trkpt lat="48.94441" lon="5.84387">
        <ele>210.6660156</ele>
        <time>2012-08-17T07:26:52Z</time>
      </trkpt>
      <trkpt lat="48.94481" lon="5.84311">
        <ele>210.6660156</ele>
        <time>2012-08-17T07:27:00Z</time>
      </trkpt>
      <trkpt lat="48.94506" lon="5.84244">
        <ele>211.1467285</ele>
        <time>2012-08-17T07:27:07Z</time>
      </trkpt>
      <trkpt lat="48.94512" lon="5.84213">
        <ele>211.1467285</ele>
        <time>2012-08-17T07:27:10Z</time>
      </trkpt>
      <trkpt lat="48.94513" lon="5.84168">
        <ele>210.6660156</ele>
        <time>2012-08-17T07:27:14Z</time>
      </trkpt>
      <trkpt lat="48.94506" lon="5.84074">
        <ele>209.2241211</ele>
        <time>2012-08-17T07:27:22Z</time>
      </trkpt>
      <trkpt lat="48.9449" lon="5.84019">
        <ele>210.1854248</ele>
        <time>2012-08-17T07:27:27Z</time>
      </trkpt>
      <trkpt lat="48.94454" lon="5.83961">
        <ele>211.1467285</ele>
        <time>2012-08-17T07:27:34Z</time>
      </trkpt>
      <trkpt lat="48.94442" lon="5.83947">
        <ele>210.6660156</ele>
        <time>2012-08-17T07:27:36Z</time>
      </trkpt>
      <trkpt lat="48.94412" lon="5.83932">
        <ele>211.1467285</ele>
        <time>2012-08-17T07:27:40Z</time>
      </trkpt>
      <trkpt lat="48.94348" lon="5.8392">
        <ele>212.1080322</ele>
        <time>2012-08-17T07:27:49Z</time>
      </trkpt>
      <trkpt lat="48.94342" lon="5.83916">
        <ele>213.0693359</ele>
        <time>2012-08-17T07:27:50Z</time>
      </trkpt>
      <trkpt lat="48.94292" lon="5.83872">
        <ele>214.5112305</ele>
        <time>2012-08-17T07:27:59Z</time>
      </trkpt>
      <trkpt lat="48.94286" lon="5.83868">
        <ele>214.9919434</ele>
        <time>2012-08-17T07:28:00Z</time>
      </trkpt>
      <trkpt lat="48.94248" lon="5.83861">
        <ele>214.9919434</ele>
        <time>2012-08-17T07:28:06Z</time>
      </trkpt>
      <trkpt lat="48.94185" lon="5.83867">
        <ele>216.9146729</ele>
        <time>2012-08-17T07:28:16Z</time>
      </trkpt>
      <trkpt lat="48.94129" lon="5.83874">
        <ele>216.9146729</ele>
        <time>2012-08-17T07:28:25Z</time>
      </trkpt>
      <trkpt lat="48.94082" lon="5.83889">
        <ele>215.4726563</ele>
        <time>2012-08-17T07:28:32Z</time>
      </trkpt>
      <trkpt lat="48.94051" lon="5.83894">
        <ele>213.5500488</ele>
        <time>2012-08-17T07:28:36Z</time>
      </trkpt>
      <trkpt lat="48.94025" lon="5.83894">
        <ele>214.0306396</ele>
        <time>2012-08-17T07:28:39Z</time>
      </trkpt>
      <trkpt lat="48.93993" lon="5.83882">
        <ele>214.5112305</ele>
        <time>2012-08-17T07:28:43Z</time>
      </trkpt>
      <trkpt lat="48.93959" lon="5.83857">
        <ele>213.0693359</ele>
        <time>2012-08-17T07:28:48Z</time>
      </trkpt>
      <trkpt lat="48.93939" lon="5.83827">
        <ele>214.0306396</ele>
        <time>2012-08-17T07:28:52Z</time>
      </trkpt>
      <trkpt lat="48.93933" lon="5.83808">
        <ele>213.5500488</ele>
        <time>2012-08-17T07:28:54Z</time>
      </trkpt>
      <trkpt lat="48.93922" lon="5.83746">
        <ele>216.43396</ele>
        <time>2012-08-17T07:29:01Z</time>
      </trkpt>
      <trkpt lat="48.9391" lon="5.83675">
        <ele>218.8372803</ele>
        <time>2012-08-17T07:29:10Z</time>
      </trkpt>
      <trkpt lat="48.93894" lon="5.8361">
        <ele>220.7598877</ele>
        <time>2012-08-17T07:29:19Z</time>
      </trkpt>
      <trkpt lat="48.93887" lon="5.83598">
        <ele>221.7211914</ele>
        <time>2012-08-17T07:29:21Z</time>
      </trkpt>
      <trkpt lat="48.93875" lon="5.83583">
        <ele>222.6824951</ele>
        <time>2012-08-17T07:29:24Z</time>
      </trkpt>
      <trkpt lat="48.93842" lon="5.83566">
        <ele>225.0859375</ele>
        <time>2012-08-17T07:29:31Z</time>
      </trkpt>
      <trkpt lat="48.93803" lon="5.83569">
        <ele>226.0471191</ele>
        <time>2012-08-17T07:29:39Z</time>
      </trkpt>
      <trkpt lat="48.93756" lon="5.83571">
        <ele>228.9311523</ele>
        <time>2012-08-17T07:29:49Z</time>
      </trkpt>
      <trkpt lat="48.93738" lon="5.83572">
        <ele>229.4117432</ele>
        <time>2012-08-17T07:29:53Z</time>
      </trkpt>
      <trkpt lat="48.93703" lon="5.83565">
        <ele>231.3343506</ele>
        <time>2012-08-17T07:30:01Z</time>
      </trkpt>
      <trkpt lat="48.93662" lon="5.83552">
        <ele>233.7376709</ele>
        <time>2012-08-17T07:30:11Z</time>
      </trkpt>
      <trkpt lat="48.93623" lon="5.8354">
        <ele>234.6990967</ele>
        <time>2012-08-17T07:30:21Z</time>
      </trkpt>
      <trkpt lat="48.93589" lon="5.83524">
        <ele>236.6217041</ele>
        <time>2012-08-17T07:30:30Z</time>
      </trkpt>
      <trkpt lat="48.93568" lon="5.83507">
        <ele>238.5443115</ele>
        <time>2012-08-17T07:30:36Z</time>
      </trkpt>
      <trkpt lat="48.9354" lon="5.83481">
        <ele>240.467041</ele>
        <time>2012-08-17T07:30:44Z</time>
      </trkpt>
      <trkpt lat="48.93513" lon="5.83456">
        <ele>241.9089355</ele>
        <time>2012-08-17T07:30:52Z</time>
      </trkpt>
      <trkpt lat="48.93485" lon="5.8343">
        <ele>244.3122559</ele>
        <time>2012-08-17T07:31:01Z</time>
      </trkpt>
      <trkpt lat="48.9346" lon="5.83409">
        <ele>246.2348633</ele>
        <time>2012-08-17T07:31:08Z</time>
      </trkpt>
      <trkpt lat="48.93426" lon="5.83389">
        <ele>246.7154541</ele>
        <time>2012-08-17T07:31:16Z</time>
      </trkpt>
      <trkpt lat="48.93379" lon="5.83373">
        <ele>247.1960449</ele>
        <time>2012-08-17T07:31:25Z</time>
      </trkpt>
      <trkpt lat="48.93328" lon="5.83358">
        <ele>247.6767578</ele>
        <time>2012-08-17T07:31:34Z</time>
      </trkpt>
      <trkpt lat="48.93263" lon="5.8334">
        <ele>247.1960449</ele>
        <time>2012-08-17T07:31:45Z</time>
      </trkpt>
      <trkpt lat="48.93197" lon="5.83318">
        <ele>248.6381836</ele>
        <time>2012-08-17T07:31:56Z</time>
      </trkpt>
      <trkpt lat="48.9315" lon="5.8329">
        <ele>248.1575928</ele>
        <time>2012-08-17T07:32:04Z</time>
      </trkpt>
      <trkpt lat="48.93096" lon="5.83252">
        <ele>248.1575928</ele>
        <time>2012-08-17T07:32:13Z</time>
      </trkpt>
      <trkpt lat="48.93065" lon="5.83208">
        <ele>247.6767578</ele>
        <time>2012-08-17T07:32:19Z</time>
      </trkpt>
      <trkpt lat="48.93017" lon="5.83125">
        <ele>246.2348633</ele>
        <time>2012-08-17T07:32:29Z</time>
      </trkpt>
      <trkpt lat="48.92965" lon="5.83031">
        <ele>245.2734375</ele>
        <time>2012-08-17T07:32:40Z</time>
      </trkpt>
      <trkpt lat="48.92924" lon="5.82949">
        <ele>244.7928467</ele>
        <time>2012-08-17T07:32:49Z</time>
      </trkpt>
      <trkpt lat="48.92875" lon="5.82864">
        <ele>244.3122559</ele>
        <time>2012-08-17T07:32:59Z</time>
      </trkpt>
      <trkpt lat="48.92863" lon="5.82824">
        <ele>243.3508301</ele>
        <time>2012-08-17T07:33:03Z</time>
      </trkpt>
      <trkpt lat="48.92861" lon="5.82802">
        <ele>242.3896484</ele>
        <time>2012-08-17T07:33:05Z</time>
      </trkpt>
      <trkpt lat="48.92858" lon="5.82714">
        <ele>240.467041</ele>
        <time>2012-08-17T07:33:13Z</time>
      </trkpt>
      <trkpt lat="48.92857" lon="5.8266">
        <ele>240.467041</ele>
        <time>2012-08-17T07:33:18Z</time>
      </trkpt>
      <trkpt lat="48.92855" lon="5.82562">
        <ele>240.467041</ele>
        <time>2012-08-17T07:33:27Z</time>
      </trkpt>
      <trkpt lat="48.92852" lon="5.82462">
        <ele>239.0249023</ele>
        <time>2012-08-17T07:33:36Z</time>
      </trkpt>
      <trkpt lat="48.9285" lon="5.82381">
        <ele>239.0249023</ele>
        <time>2012-08-17T07:33:44Z</time>
      </trkpt>
      <trkpt lat="48.9285" lon="5.82286">
        <ele>238.5443115</ele>
        <time>2012-08-17T07:33:53Z</time>
      </trkpt>
      <trkpt lat="48.92862" lon="5.82246">
        <ele>237.5828857</ele>
        <time>2012-08-17T07:33:57Z</time>
      </trkpt>
      <trkpt lat="48.92898" lon="5.8219">
        <ele>238.0635986</ele>
        <time>2012-08-17T07:34:04Z</time>
      </trkpt>
      <trkpt lat="48.92943" lon="5.82125">
        <ele>239.5054932</ele>
        <time>2012-08-17T07:34:13Z</time>
      </trkpt>
      <trkpt lat="48.92981" lon="5.82067">
        <ele>239.0249023</ele>
        <time>2012-08-17T07:34:21Z</time>
      </trkpt>
      <trkpt lat="48.93012" lon="5.82006">
        <ele>239.0249023</ele>
        <time>2012-08-17T07:34:28Z</time>
      </trkpt>
      <trkpt lat="48.93045" lon="5.81925">
        <ele>238.5443115</ele>
        <time>2012-08-17T07:34:36Z</time>
      </trkpt>
      <trkpt lat="48.93055" lon="5.81872">
        <ele>239.0249023</ele>
        <time>2012-08-17T07:34:41Z</time>
      </trkpt>
      <trkpt lat="48.93056" lon="5.81819">
        <ele>239.5054932</ele>
        <time>2012-08-17T07:34:46Z</time>
      </trkpt>
      <trkpt lat="48.93042" lon="5.81758">
        <ele>239.5054932</ele>
        <time>2012-08-17T07:34:52Z</time>
      </trkpt>
      <trkpt lat="48.93033" lon="5.81718">
        <ele>239.9862061</ele>
        <time>2012-08-17T07:34:56Z</time>
      </trkpt>
      <trkpt lat="48.93028" lon="5.81633">
        <ele>239.5054932</ele>
        <time>2012-08-17T07:35:04Z</time>
      </trkpt>
      <trkpt lat="48.93032" lon="5.81558">
        <ele>238.0635986</ele>
        <time>2012-08-17T07:35:11Z</time>
      </trkpt>
      <trkpt lat="48.9304" lon="5.81464">
        <ele>237.5828857</ele>
        <time>2012-08-17T07:35:20Z</time>
      </trkpt>
      <trkpt lat="48.93051" lon="5.8138">
        <ele>236.6217041</ele>
        <time>2012-08-17T07:35:28Z</time>
      </trkpt>
      <trkpt lat="48.93067" lon="5.81258">
        <ele>234.6990967</ele>
        <time>2012-08-17T07:35:39Z</time>
      </trkpt>
      <trkpt lat="48.9307" lon="5.81179">
        <ele>233.2570801</ele>
        <time>2012-08-17T07:35:46Z</time>
      </trkpt>
      <trkpt lat="48.93068" lon="5.81075">
        <ele>231.3343506</ele>
        <time>2012-08-17T07:35:55Z</time>
      </trkpt>
      <trkpt lat="48.93061" lon="5.81006">
        <ele>230.3730469</ele>
        <time>2012-08-17T07:36:01Z</time>
      </trkpt>
      <trkpt lat="48.9306" lon="5.80994">
        <ele>230.3730469</ele>
        <time>2012-08-17T07:36:02Z</time>
      </trkpt>
      <trkpt lat="48.93065" lon="5.80948">
        <ele>229.892334</ele>
        <time>2012-08-17T07:36:06Z</time>
      </trkpt>
      <trkpt lat="48.93084" lon="5.80855">
        <ele>225.5665283</ele>
        <time>2012-08-17T07:36:14Z</time>
      </trkpt>
      <trkpt lat="48.93091" lon="5.80771">
        <ele>222.6824951</ele>
        <time>2012-08-17T07:36:20Z</time>
      </trkpt>
      <trkpt lat="48.93094" lon="5.80743">
        <ele>220.7598877</ele>
        <time>2012-08-17T07:36:22Z</time>
      </trkpt>
      <trkpt lat="48.93099" lon="5.80699">
        <ele>219.798584</ele>
        <time>2012-08-17T07:36:25Z</time>
      </trkpt>
      <trkpt lat="48.93118" lon="5.80646">
        <ele>218.3565674</ele>
        <time>2012-08-17T07:36:29Z</time>
      </trkpt>
      <trkpt lat="48.93135" lon="5.80611">
        <ele>216.9146729</ele>
        <time>2012-08-17T07:36:32Z</time>
      </trkpt>
      <trkpt lat="48.93149" lon="5.80574">
        <ele>215.9532471</ele>
        <time>2012-08-17T07:36:35Z</time>
      </trkpt>
      <trkpt lat="48.93158" lon="5.80516">
        <ele>215.9532471</ele>
        <time>2012-08-17T07:36:40Z</time>
      </trkpt>
      <trkpt lat="48.93162" lon="5.80478">
        <ele>216.43396</ele>
        <time>2012-08-17T07:36:45Z</time>
      </trkpt>
      <trkpt lat="48.93176" lon="5.80457">
        <ele>216.9146729</ele>
        <time>2012-08-17T07:36:50Z</time>
      </trkpt>
      <trkpt lat="48.93181" lon="5.80455">
        <ele>216.9146729</ele>
        <time>2012-08-17T07:36:51Z</time>
      </trkpt>
      <trkpt lat="48.93233" lon="5.80442">
        <ele>214.5112305</ele>
        <time>2012-08-17T07:36:59Z</time>
      </trkpt>
      <trkpt lat="48.9326" lon="5.80424">
        <ele>214.0306396</ele>
        <time>2012-08-17T07:37:03Z</time>
      </trkpt>
      <trkpt lat="48.93273" lon="5.804">
        <ele>214.0306396</ele>
        <time>2012-08-17T07:37:06Z</time>
      </trkpt>
      <trkpt lat="48.93286" lon="5.80367">
        <ele>214.5112305</ele>
        <time>2012-08-17T07:37:10Z</time>
      </trkpt>
      <trkpt lat="48.93289" lon="5.80337">
        <ele>214.5112305</ele>
        <time>2012-08-17T07:37:14Z</time>
      </trkpt>
      <trkpt lat="48.93282" lon="5.80317">
        <ele>214.0306396</ele>
        <time>2012-08-17T07:37:18Z</time>
      </trkpt>
      <trkpt lat="48.93276" lon="5.80309">
        <ele>214.0306396</ele>
        <time>2012-08-17T07:37:20Z</time>
      </trkpt>
      <trkpt lat="48.93245" lon="5.80279">
        <ele>214.5112305</ele>
        <time>2012-08-17T07:37:27Z</time>
      </trkpt>
      <trkpt lat="48.93213" lon="5.80231">
        <ele>216.9146729</ele>
        <time>2012-08-17T07:37:36Z</time>
      </trkpt>
      <trkpt lat="48.93193" lon="5.80191">
        <ele>218.3565674</ele>
        <time>2012-08-17T07:37:43Z</time>
      </trkpt>
      <trkpt lat="48.93185" lon="5.80172">
        <ele>219.798584</ele>
        <time>2012-08-17T07:37:46Z</time>
      </trkpt>
      <trkpt lat="48.93172" lon="5.8013">
        <ele>220.7598877</ele>
        <time>2012-08-17T07:37:52Z</time>
      </trkpt>
      <trkpt lat="48.93163" lon="5.80091">
        <ele>221.7211914</ele>
        <time>2012-08-17T07:37:57Z</time>
      </trkpt>
      <trkpt lat="48.93154" lon="5.80031">
        <ele>222.6824951</ele>
        <time>2012-08-17T07:38:04Z</time>
      </trkpt>
      <trkpt lat="48.93152" lon="5.79962">
        <ele>224.1245117</ele>
        <time>2012-08-17T07:38:12Z</time>
      </trkpt>
      <trkpt lat="48.9316" lon="5.79896">
        <ele>225.5665283</ele>
        <time>2012-08-17T07:38:20Z</time>
      </trkpt>
      <trkpt lat="48.93171" lon="5.79824">
        <ele>227.0085449</ele>
        <time>2012-08-17T07:38:29Z</time>
      </trkpt>
      <trkpt lat="48.9317" lon="5.79766">
        <ele>226.527832</ele>
        <time>2012-08-17T07:38:36Z</time>
      </trkpt>
      <trkpt lat="48.93159" lon="5.79699">
        <ele>228.4504395</ele>
        <time>2012-08-17T07:38:44Z</time>
      </trkpt>
      <trkpt lat="48.93138" lon="5.79642">
        <ele>228.4504395</ele>
        <time>2012-08-17T07:38:51Z</time>
      </trkpt>
      <trkpt lat="48.93107" lon="5.79564">
        <ele>228.4504395</ele>
        <time>2012-08-17T07:39:00Z</time>
      </trkpt>
      <trkpt lat="48.93077" lon="5.79487">
        <ele>227.9697266</ele>
        <time>2012-08-17T07:39:08Z</time>
      </trkpt>
      <trkpt lat="48.9304" lon="5.79397">
        <ele>227.0085449</ele>
        <time>2012-08-17T07:39:17Z</time>
      </trkpt>
      <trkpt lat="48.93016" lon="5.79317">
        <ele>227.0085449</ele>
        <time>2012-08-17T07:39:24Z</time>
      </trkpt>
      <trkpt lat="48.93008" lon="5.79253">
        <ele>226.527832</ele>
        <time>2012-08-17T07:39:29Z</time>
      </trkpt>
      <trkpt lat="48.93012" lon="5.79178">
        <ele>226.0471191</ele>
        <time>2012-08-17T07:39:35Z</time>
      </trkpt>
      <trkpt lat="48.93022" lon="5.79107">
        <ele>224.6052246</ele>
        <time>2012-08-17T07:39:41Z</time>
      </trkpt>
      <trkpt lat="48.9303" lon="5.7902">
        <ele>222.2017822</ele>
        <time>2012-08-17T07:39:48Z</time>
      </trkpt>
      <trkpt lat="48.93031" lon="5.79006">
        <ele>222.2017822</ele>
        <time>2012-08-17T07:39:49Z</time>
      </trkpt>
      <trkpt lat="48.93026" lon="5.78918">
        <ele>219.798584</ele>
        <time>2012-08-17T07:39:55Z</time>
      </trkpt>
      <trkpt lat="48.93019" lon="5.78872">
        <ele>218.3565674</ele>
        <time>2012-08-17T07:39:58Z</time>
      </trkpt>
      <trkpt lat="48.93012" lon="5.78782">
        <ele>218.3565674</ele>
        <time>2012-08-17T07:40:04Z</time>
      </trkpt>
      <trkpt lat="48.93024" lon="5.78713">
        <ele>220.2791748</ele>
        <time>2012-08-17T07:40:09Z</time>
      </trkpt>
      <trkpt lat="48.93028" lon="5.78701">
        <ele>219.798584</ele>
        <time>2012-08-17T07:40:10Z</time>
      </trkpt>
      <trkpt lat="48.93061" lon="5.7863">
        <ele>221.7211914</ele>
        <time>2012-08-17T07:40:17Z</time>
      </trkpt>
      <trkpt lat="48.93089" lon="5.78565">
        <ele>222.6824951</ele>
        <time>2012-08-17T07:40:24Z</time>
      </trkpt>
      <trkpt lat="48.93098" lon="5.78518">
        <ele>223.163208</ele>
        <time>2012-08-17T07:40:29Z</time>
      </trkpt>
      <trkpt lat="48.93099" lon="5.785">
        <ele>225.0859375</ele>
        <time>2012-08-17T07:40:31Z</time>
      </trkpt>
      <trkpt lat="48.93094" lon="5.78438">
        <ele>227.0085449</ele>
        <time>2012-08-17T07:40:38Z</time>
      </trkpt>
      <trkpt lat="48.93079" lon="5.78369">
        <ele>227.4891357</ele>
        <time>2012-08-17T07:40:46Z</time>
      </trkpt>
      <trkpt lat="48.9306" lon="5.78287">
        <ele>227.4891357</ele>
        <time>2012-08-17T07:40:55Z</time>
      </trkpt>
      <trkpt lat="48.93052" lon="5.78218">
        <ele>227.9697266</ele>
        <time>2012-08-17T07:41:02Z</time>
      </trkpt>
      <trkpt lat="48.93048" lon="5.7812">
        <ele>227.9697266</ele>
        <time>2012-08-17T07:41:11Z</time>
      </trkpt>
      <trkpt lat="48.93043" lon="5.78015">
        <ele>227.0085449</ele>
        <time>2012-08-17T07:41:20Z</time>
      </trkpt>
      <trkpt lat="48.93038" lon="5.77896">
        <ele>225.5665283</ele>
        <time>2012-08-17T07:41:30Z</time>
      </trkpt>
      <trkpt lat="48.93033" lon="5.77786">
        <ele>224.1245117</ele>
        <time>2012-08-17T07:41:39Z</time>
      </trkpt>
      <trkpt lat="48.9303" lon="5.77735">
        <ele>222.6824951</ele>
        <time>2012-08-17T07:41:43Z</time>
      </trkpt>
      <trkpt lat="48.93025" lon="5.77633">
        <ele>222.6824951</ele>
        <time>2012-08-17T07:41:51Z</time>
      </trkpt>
      <trkpt lat="48.93022" lon="5.77547">
        <ele>222.2017822</ele>
        <time>2012-08-17T07:41:58Z</time>
      </trkpt>
      <trkpt lat="48.93016" lon="5.77415">
        <ele>223.163208</ele>
        <time>2012-08-17T07:42:09Z</time>
      </trkpt>
      <trkpt lat="48.93011" lon="5.77314">
        <ele>223.6437988</ele>
        <time>2012-08-17T07:42:18Z</time>
      </trkpt>
      <trkpt lat="48.93007" lon="5.77244">
        <ele>222.6824951</ele>
        <time>2012-08-17T07:42:24Z</time>
      </trkpt>
      <trkpt lat="48.93001" lon="5.77127">
        <ele>221.7211914</ele>
        <time>2012-08-17T07:42:34Z</time>
      </trkpt>
      <trkpt lat="48.93001" lon="5.77115">
        <ele>221.7211914</ele>
        <time>2012-08-17T07:42:35Z</time>
      </trkpt>
      <trkpt lat="48.92993" lon="5.76972">
        <ele>221.7211914</ele>
        <time>2012-08-17T07:42:47Z</time>
      </trkpt>
      <trkpt lat="48.92986" lon="5.76836">
        <ele>220.7598877</ele>
        <time>2012-08-17T07:42:58Z</time>
      </trkpt>
      <trkpt lat="48.92979" lon="5.76713">
        <ele>219.3179932</ele>
        <time>2012-08-17T07:43:08Z</time>
      </trkpt>
      <trkpt lat="48.92976" lon="5.76637">
        <ele>218.3565674</ele>
        <time>2012-08-17T07:43:15Z</time>
      </trkpt>
      <trkpt lat="48.92977" lon="5.76608">
        <ele>218.8372803</ele>
        <time>2012-08-17T07:43:18Z</time>
      </trkpt>
      <trkpt lat="48.9297" lon="5.76572">
        <ele>218.8372803</ele>
        <time>2012-08-17T07:43:22Z</time>
      </trkpt>
      <trkpt lat="48.92943" lon="5.76506">
        <ele>218.3565674</ele>
        <time>2012-08-17T07:43:29Z</time>
      </trkpt>
      <trkpt lat="48.92919" lon="5.76464">
        <ele>219.3179932</ele>
        <time>2012-08-17T07:43:34Z</time>
      </trkpt>
      <trkpt lat="48.92875" lon="5.76403">
        <ele>217.8759766</ele>
        <time>2012-08-17T07:43:43Z</time>
      </trkpt>
      <trkpt lat="48.92836" lon="5.7635">
        <ele>219.3179932</ele>
        <time>2012-08-17T07:43:51Z</time>
      </trkpt>
      <trkpt lat="48.92801" lon="5.763">
        <ele>219.798584</ele>
        <time>2012-08-17T07:43:58Z</time>
      </trkpt>
      <trkpt lat="48.92773" lon="5.76246">
        <ele>222.2017822</ele>
        <time>2012-08-17T07:44:05Z</time>
      </trkpt>
      <trkpt lat="48.92762" lon="5.76213">
        <ele>222.6824951</ele>
        <time>2012-08-17T07:44:09Z</time>
      </trkpt>
      <trkpt lat="48.9275" lon="5.76143">
        <ele>223.163208</ele>
        <time>2012-08-17T07:44:17Z</time>
      </trkpt>
      <trkpt lat="48.92747" lon="5.76076">
        <ele>224.6052246</ele>
        <time>2012-08-17T07:44:25Z</time>
      </trkpt>
      <trkpt lat="48.92749" lon="5.76045">
        <ele>225.0859375</ele>
        <time>2012-08-17T07:44:29Z</time>
      </trkpt>
      <trkpt lat="48.92755" lon="5.76015">
        <ele>226.0471191</ele>
        <time>2012-08-17T07:44:33Z</time>
      </trkpt>
      <trkpt lat="48.92777" lon="5.75979">
        <ele>226.0471191</ele>
        <time>2012-08-17T07:44:40Z</time>
      </trkpt>
      <trkpt lat="48.9279" lon="5.75972">
        <ele>226.0471191</ele>
        <time>2012-08-17T07:44:43Z</time>
      </trkpt>
      <trkpt lat="48.92809" lon="5.75953">
        <ele>226.0471191</ele>
        <time>2012-08-17T07:44:48Z</time>
      </trkpt>
      <trkpt lat="48.92807" lon="5.75935">
        <ele>226.0471191</ele>
        <time>2012-08-17T07:44:51Z</time>
      </trkpt>
      <trkpt lat="48.92804" lon="5.7593">
        <ele>225.5665283</ele>
        <time>2012-08-17T07:44:52Z</time>
      </trkpt>
      <trkpt lat="48.92782" lon="5.75897">
        <ele>227.0085449</ele>
        <time>2012-08-17T07:45:00Z</time>
      </trkpt>
      <trkpt lat="48.92767" lon="5.75873">
        <ele>227.0085449</ele>
        <time>2012-08-17T07:45:07Z</time>
      </trkpt>
      <trkpt lat="48.92758" lon="5.75854">
        <ele>227.9697266</ele>
        <time>2012-08-17T07:45:13Z</time>
      </trkpt>
      <trkpt lat="48.92749" lon="5.75838">
        <ele>228.4504395</ele>
        <time>2012-08-17T07:45:17Z</time>
      </trkpt>
      <trkpt lat="48.9273" lon="5.75809">
        <ele>229.4117432</ele>
        <time>2012-08-17T07:45:23Z</time>
      </trkpt>
      <trkpt lat="48.92702" lon="5.75766">
        <ele>230.3730469</ele>
        <time>2012-08-17T07:45:31Z</time>
      </trkpt>
      <trkpt lat="48.92675" lon="5.75724">
        <ele>230.8537598</ele>
        <time>2012-08-17T07:45:40Z</time>
      </trkpt>
      <trkpt lat="48.92665" lon="5.75703">
        <ele>230.8537598</ele>
        <time>2012-08-17T07:45:45Z</time>
      </trkpt>
      <trkpt lat="48.92674" lon="5.75678">
        <ele>230.3730469</ele>
        <time>2012-08-17T07:45:50Z</time>
      </trkpt>
      <trkpt lat="48.92691" lon="5.75654">
        <ele>230.8537598</ele>
        <time>2012-08-17T07:45:56Z</time>
      </trkpt>
      <trkpt lat="48.92719" lon="5.75613">
        <ele>230.3730469</ele>
        <time>2012-08-17T07:46:05Z</time>
      </trkpt>
      <trkpt lat="48.92744" lon="5.75574">
        <ele>230.8537598</ele>
        <time>2012-08-17T07:46:13Z</time>
      </trkpt>
      <trkpt lat="48.92747" lon="5.75569">
        <ele>230.8537598</ele>
        <time>2012-08-17T07:46:14Z</time>
      </trkpt>
      <trkpt lat="48.92771" lon="5.75521">
        <ele>231.3343506</ele>
        <time>2012-08-17T07:46:22Z</time>
      </trkpt>
      <trkpt lat="48.92773" lon="5.75514">
        <ele>230.8537598</ele>
        <time>2012-08-17T07:46:23Z</time>
      </trkpt>
      <trkpt lat="48.92778" lon="5.75465">
        <ele>230.8537598</ele>
        <time>2012-08-17T07:46:29Z</time>
      </trkpt>
      <trkpt lat="48.92777" lon="5.75457">
        <ele>230.8537598</ele>
        <time>2012-08-17T07:46:30Z</time>
      </trkpt>
      <trkpt lat="48.92769" lon="5.75396">
        <ele>229.892334</ele>
        <time>2012-08-17T07:46:38Z</time>
      </trkpt>
      <trkpt lat="48.92768" lon="5.75372">
        <ele>229.4117432</ele>
        <time>2012-08-17T07:46:41Z</time>
      </trkpt>
      <trkpt lat="48.92774" lon="5.75326">
        <ele>227.4891357</ele>
        <time>2012-08-17T07:46:47Z</time>
      </trkpt>
      <trkpt lat="48.92797" lon="5.75256">
        <ele>227.9697266</ele>
        <time>2012-08-17T07:46:56Z</time>
      </trkpt>
      <trkpt lat="48.92821" lon="5.75189">
        <ele>227.0085449</ele>
        <time>2012-08-17T07:47:04Z</time>
      </trkpt>
      <trkpt lat="48.92838" lon="5.75143">
        <ele>227.0085449</ele>
        <time>2012-08-17T07:47:10Z</time>
      </trkpt>
      <trkpt lat="48.9285" lon="5.75105">
        <ele>227.9697266</ele>
        <time>2012-08-17T07:47:15Z</time>
      </trkpt>
      <trkpt lat="48.92852" lon="5.75053">
        <ele>229.4117432</ele>
        <time>2012-08-17T07:47:22Z</time>
      </trkpt>
      <trkpt lat="48.92852" lon="5.75039">
        <ele>229.4117432</ele>
        <time>2012-08-17T07:47:24Z</time>
      </trkpt>
      <trkpt lat="48.92858" lon="5.75013">
        <ele>229.4117432</ele>
        <time>2012-08-17T07:47:28Z</time>
      </trkpt>
      <trkpt lat="48.92878" lon="5.7497">
        <ele>228.9311523</ele>
        <time>2012-08-17T07:47:37Z</time>
      </trkpt>
      <trkpt lat="48.92876" lon="5.74952">
        <ele>228.9311523</ele>
        <time>2012-08-17T07:47:41Z</time>
      </trkpt>
      <trkpt lat="48.92868" lon="5.74935">
        <ele>227.9697266</ele>
        <time>2012-08-17T07:47:46Z</time>
      </trkpt>
      <trkpt lat="48.9286" lon="5.74939">
        <ele>227.9697266</ele>
        <time>2012-08-17T07:47:52Z</time>
      </trkpt>
      <trkpt lat="48.92854" lon="5.74947">
        <ele>228.4504395</ele>
        <time>2012-08-17T07:48:00Z</time>
      </trkpt>
      <trkpt lat="48.92852" lon="5.74948">
        <ele>228.4504395</ele>
        <time>2012-08-17T07:48:03Z</time>
      </trkpt>
      <trkpt lat="48.92853" lon="5.74946">
        <ele>227.9697266</ele>
        <time>2012-08-17T07:48:18Z</time>
      </trkpt>
      <trkpt lat="48.92852" lon="5.74939">
        <ele>227.9697266</ele>
        <time>2012-08-17T07:48:25Z</time>
      </trkpt>
      <trkpt lat="48.92852" lon="5.74939">
        <ele>228.4504395</ele>
        <time>2012-08-17T07:48:26Z</time>
      </trkpt>
      <trkpt lat="48.92852" lon="5.7494">
        <ele>227.9697266</ele>
        <time>2012-08-17T07:48:43Z</time>
      </trkpt>
      <trkpt lat="48.92852" lon="5.74941">
        <ele>227.4891357</ele>
        <time>2012-08-17T07:48:44Z</time>
      </trkpt>
      <trkpt lat="48.92853" lon="5.74945">
        <ele>228.4504395</ele>
        <time>2012-08-17T07:48:49Z</time>
      </trkpt>
      <trkpt lat="48.92853" lon="5.74948">
        <ele>227.9697266</ele>
        <time>2012-08-17T07:49:22Z</time>
      </trkpt>
      <trkpt lat="48.92853" lon="5.74954">
        <ele>227.9697266</ele>
        <time>2012-08-17T07:49:30Z</time>
      </trkpt>
      <trkpt lat="48.92853" lon="5.74955">
        <ele>227.9697266</ele>
        <time>2012-08-17T07:49:33Z</time>
      </trkpt>
      <trkpt lat="48.92853" lon="5.74956">
        <ele>227.4891357</ele>
        <time>2012-08-17T07:49:34Z</time>
      </trkpt>
      <trkpt lat="48.92852" lon="5.74963">
        <ele>227.0085449</ele>
        <time>2012-08-17T07:49:42Z</time>
      </trkpt>
      <trkpt lat="48.92849" lon="5.74971">
        <ele>227.4891357</ele>
        <time>2012-08-17T07:49:52Z</time>
      </trkpt>
      <trkpt lat="48.92848" lon="5.74971">
        <ele>227.4891357</ele>
        <time>2012-08-17T07:49:55Z</time>
      </trkpt>
      <trkpt lat="48.92847" lon="5.74971">
        <ele>227.4891357</ele>
        <time>2012-08-17T07:49:58Z</time>
      </trkpt>
      <trkpt lat="48.92846" lon="5.74973">
        <ele>227.4891357</ele>
        <time>2012-08-17T07:49:59Z</time>
      </trkpt>
      <trkpt lat="48.92846" lon="5.74973">
        <ele>227.9697266</ele>
        <time>2012-08-17T07:50:00Z</time>
      </trkpt>
      <trkpt lat="48.92846" lon="5.74974">
        <ele>227.0085449</ele>
        <time>2012-08-17T07:50:04Z</time>
      </trkpt>
      <trkpt lat="48.92846" lon="5.74975">
        <ele>227.0085449</ele>
        <time>2012-08-17T07:50:05Z</time>
      </trkpt>
      <trkpt lat="48.92844" lon="5.74976">
        <ele>227.9697266</ele>
        <time>2012-08-17T07:50:11Z</time>
      </trkpt>
      <trkpt lat="48.92844" lon="5.74976">
        <ele>227.9697266</ele>
        <time>2012-08-17T07:50:12Z</time>
      </trkpt>
      <trkpt lat="48.92844" lon="5.74975">
        <ele>227.9697266</ele>
        <time>2012-08-17T07:50:34Z</time>
      </trkpt>
      <trkpt lat="48.92843" lon="5.74977">
        <ele>227.4891357</ele>
        <time>2012-08-17T07:50:35Z</time>
      </trkpt>
      <trkpt lat="48.92842" lon="5.74974">
        <ele>227.4891357</ele>
        <time>2012-08-17T07:50:59Z</time>
      </trkpt>
      <trkpt lat="48.92842" lon="5.74972">
        <ele>227.4891357</ele>
        <time>2012-08-17T07:51:01Z</time>
      </trkpt>
      <trkpt lat="48.92842" lon="5.74972">
        <ele>227.4891357</ele>
        <time>2012-08-17T07:51:05Z</time>
      </trkpt>
      <trkpt lat="48.92843" lon="5.74973">
        <ele>227.4891357</ele>
        <time>2012-08-17T07:51:06Z</time>
      </trkpt>
      <trkpt lat="48.92842" lon="5.74976">
        <ele>227.9697266</ele>
        <time>2012-08-17T07:51:09Z</time>
      </trkpt>
      <trkpt lat="48.92841" lon="5.74977">
        <ele>227.9697266</ele>
        <time>2012-08-17T07:51:12Z</time>
      </trkpt>
      <trkpt lat="48.92839" lon="5.74977">
        <ele>227.4891357</ele>
        <time>2012-08-17T07:51:13Z</time>
      </trkpt>
      <trkpt lat="48.92839" lon="5.74977">
        <ele>227.9697266</ele>
        <time>2012-08-17T07:51:14Z</time>
      </trkpt>
      <trkpt lat="48.92837" lon="5.74972">
        <ele>227.4891357</ele>
        <time>2012-08-17T07:51:21Z</time>
      </trkpt>
      <trkpt lat="48.92835" lon="5.74971">
        <ele>227.9697266</ele>
        <time>2012-08-17T07:51:23Z</time>
      </trkpt>
      <trkpt lat="48.92835" lon="5.74971">
        <ele>227.9697266</ele>
        <time>2012-08-17T07:51:24Z</time>
      </trkpt>
      <trkpt lat="48.92835" lon="5.74972">
        <ele>227.9697266</ele>
        <time>2012-08-17T07:51:28Z</time>
      </trkpt>
      <trkpt lat="48.92837" lon="5.74974">
        <ele>227.9697266</ele>
        <time>2012-08-17T07:51:30Z</time>
      </trkpt>
      <trkpt lat="48.92841" lon="5.74972">
        <ele>227.4891357</ele>
        <time>2012-08-17T07:51:46Z</time>
      </trkpt>
      <trkpt lat="48.92844" lon="5.74973">
        <ele>227.9697266</ele>
        <time>2012-08-17T07:51:48Z</time>
      </trkpt>
      <trkpt lat="48.92842" lon="5.74971">
        <ele>227.4891357</ele>
        <time>2012-08-17T07:51:59Z</time>
      </trkpt>
      <trkpt lat="48.92841" lon="5.74971">
        <ele>227.9697266</ele>
        <time>2012-08-17T07:52:00Z</time>
      </trkpt>
      <trkpt lat="48.92841" lon="5.74969">
        <ele>227.9697266</ele>
        <time>2012-08-17T07:52:05Z</time>
      </trkpt>
      <trkpt lat="48.92842" lon="5.74969">
        <ele>227.4891357</ele>
        <time>2012-08-17T07:52:06Z</time>
      </trkpt>
      <trkpt lat="48.92841" lon="5.74968">
        <ele>227.4891357</ele>
        <time>2012-08-17T07:52:09Z</time>
      </trkpt>
      <trkpt lat="48.92841" lon="5.74966">
        <ele>227.9697266</ele>
        <time>2012-08-17T07:52:16Z</time>
      </trkpt>
      <trkpt lat="48.92842" lon="5.74967">
        <ele>227.9697266</ele>
        <time>2012-08-17T07:52:17Z</time>
      </trkpt>
      <trkpt lat="48.92842" lon="5.74972">
        <ele>227.9697266</ele>
        <time>2012-08-17T07:52:31Z</time>
      </trkpt>
      <trkpt lat="48.92844" lon="5.74972">
        <ele>227.9697266</ele>
        <time>2012-08-17T07:52:32Z</time>
      </trkpt>
      <trkpt lat="48.92847" lon="5.74972">
        <ele>227.9697266</ele>
        <time>2012-08-17T07:52:39Z</time>
      </trkpt>
      <trkpt lat="48.92848" lon="5.74973">
        <ele>227.9697266</ele>
        <time>2012-08-17T07:52:40Z</time>
      </trkpt>
      <trkpt lat="48.92849" lon="5.74971">
        <ele>227.9697266</ele>
        <time>2012-08-17T07:52:44Z</time>
      </trkpt>
      <trkpt lat="48.92852" lon="5.74969">
        <ele>227.4891357</ele>
        <time>2012-08-17T07:52:46Z</time>
      </trkpt>
      <trkpt lat="48.92854" lon="5.74969">
        <ele>227.9697266</ele>
        <time>2012-08-17T07:52:49Z</time>
      </trkpt>
      <trkpt lat="48.92861" lon="5.74967">
        <ele>227.4891357</ele>
        <time>2012-08-17T07:53:03Z</time>
      </trkpt>
      <trkpt lat="48.92864" lon="5.74966">
        <ele>227.4891357</ele>
        <time>2012-08-17T07:53:04Z</time>
      </trkpt>
      <trkpt lat="48.92865" lon="5.74964">
        <ele>227.4891357</ele>
        <time>2012-08-17T07:53:07Z</time>
      </trkpt>
      <trkpt lat="48.92867" lon="5.74961">
        <ele>227.9697266</ele>
        <time>2012-08-17T07:53:08Z</time>
      </trkpt>
      <trkpt lat="48.92871" lon="5.7496">
        <ele>227.9697266</ele>
        <time>2012-08-17T07:53:17Z</time>
      </trkpt>
      <trkpt lat="48.92872" lon="5.7496">
        <ele>227.9697266</ele>
        <time>2012-08-17T07:53:19Z</time>
      </trkpt>
      <trkpt lat="48.92871" lon="5.74959">
        <ele>227.9697266</ele>
        <time>2012-08-17T07:53:29Z</time>
      </trkpt>
      <trkpt lat="48.92869" lon="5.74961">
        <ele>228.4504395</ele>
        <time>2012-08-17T07:53:30Z</time>
      </trkpt>
      <trkpt lat="48.92864" lon="5.74963">
        <ele>227.9697266</ele>
        <time>2012-08-17T07:53:38Z</time>
      </trkpt>
      <trkpt lat="48.92862" lon="5.74963">
        <ele>227.9697266</ele>
        <time>2012-08-17T07:53:39Z</time>
      </trkpt>
      <trkpt lat="48.92859" lon="5.74965">
        <ele>227.9697266</ele>
        <time>2012-08-17T07:53:42Z</time>
      </trkpt>
      <trkpt lat="48.92853" lon="5.74966">
        <ele>227.9697266</ele>
        <time>2012-08-17T07:53:54Z</time>
      </trkpt>
      <trkpt lat="48.92852" lon="5.74963">
        <ele>227.9697266</ele>
        <time>2012-08-17T07:53:56Z</time>
      </trkpt>
      <trkpt lat="48.92852" lon="5.74964">
        <ele>227.9697266</ele>
        <time>2012-08-17T07:53:59Z</time>
      </trkpt>
      <trkpt lat="48.92851" lon="5.74964">
        <ele>228.4504395</ele>
        <time>2012-08-17T07:54:00Z</time>
      </trkpt>
      <trkpt lat="48.9285" lon="5.74963">
        <ele>228.4504395</ele>
        <time>2012-08-17T07:54:03Z</time>
      </trkpt>
      <trkpt lat="48.92846" lon="5.74963">
        <ele>228.4504395</ele>
        <time>2012-08-17T07:54:09Z</time>
      </trkpt>
      <trkpt lat="48.92845" lon="5.74965">
        <ele>228.4504395</ele>
        <time>2012-08-17T07:54:10Z</time>
      </trkpt>
      <trkpt lat="48.92842" lon="5.74967">
        <ele>228.4504395</ele>
        <time>2012-08-17T07:54:15Z</time>
      </trkpt>
      <trkpt lat="48.9284" lon="5.74966">
        <ele>227.9697266</ele>
        <time>2012-08-17T07:54:21Z</time>
      </trkpt>
      <trkpt lat="48.92839" lon="5.74965">
        <ele>227.9697266</ele>
        <time>2012-08-17T07:54:26Z</time>
      </trkpt>
      <trkpt lat="48.92836" lon="5.74968">
        <ele>228.4504395</ele>
        <time>2012-08-17T07:54:50Z</time>
      </trkpt>
      <trkpt lat="48.92835" lon="5.74968">
        <ele>227.9697266</ele>
        <time>2012-08-17T07:54:53Z</time>
      </trkpt>
      <trkpt lat="48.92834" lon="5.74966">
        <ele>228.4504395</ele>
        <time>2012-08-17T07:54:58Z</time>
      </trkpt>
      <trkpt lat="48.92833" lon="5.74966">
        <ele>227.9697266</ele>
        <time>2012-08-17T07:55:00Z</time>
      </trkpt>
      <trkpt lat="48.92837" lon="5.74961">
        <ele>227.9697266</ele>
        <time>2012-08-17T07:56:09Z</time>
      </trkpt>
      <trkpt lat="48.92837" lon="5.74961">
        <ele>227.4891357</ele>
        <time>2012-08-17T07:56:10Z</time>
      </trkpt>
      <trkpt lat="48.92838" lon="5.74965">
        <ele>227.9697266</ele>
        <time>2012-08-17T07:56:21Z</time>
      </trkpt>
      <trkpt lat="48.92839" lon="5.74966">
        <ele>227.9697266</ele>
        <time>2012-08-17T07:56:22Z</time>
      </trkpt>
      <trkpt lat="48.92839" lon="5.74965">
        <ele>228.4504395</ele>
        <time>2012-08-17T07:56:29Z</time>
      </trkpt>
      <trkpt lat="48.92839" lon="5.74967">
        <ele>227.9697266</ele>
        <time>2012-08-17T07:56:30Z</time>
      </trkpt>
      <trkpt lat="48.9284" lon="5.74966">
        <ele>227.9697266</ele>
        <time>2012-08-17T07:56:45Z</time>
      </trkpt>
      <trkpt lat="48.9284" lon="5.74966">
        <ele>227.4891357</ele>
        <time>2012-08-17T07:56:46Z</time>
      </trkpt>
      <trkpt lat="48.9284" lon="5.74965">
        <ele>227.9697266</ele>
        <time>2012-08-17T07:56:47Z</time>
      </trkpt>
      <trkpt lat="48.9284" lon="5.74964">
        <ele>227.9697266</ele>
        <time>2012-08-17T07:56:50Z</time>
      </trkpt>
      <trkpt lat="48.92839" lon="5.74964">
        <ele>227.9697266</ele>
        <time>2012-08-17T07:56:51Z</time>
      </trkpt>
      <trkpt lat="48.92838" lon="5.74964">
        <ele>227.9697266</ele>
        <time>2012-08-17T07:56:52Z</time>
      </trkpt>
      <trkpt lat="48.92838" lon="5.74965">
        <ele>227.4891357</ele>
        <time>2012-08-17T07:56:55Z</time>
      </trkpt>
      <trkpt lat="48.92838" lon="5.7497">
        <ele>227.4891357</ele>
        <time>2012-08-17T07:56:59Z</time>
      </trkpt>
      <trkpt lat="48.9284" lon="5.74978">
        <ele>228.4504395</ele>
        <time>2012-08-17T07:57:04Z</time>
      </trkpt>
      <trkpt lat="48.92841" lon="5.7498">
        <ele>227.9697266</ele>
        <time>2012-08-17T07:57:07Z</time>
      </trkpt>
      <trkpt lat="48.9284" lon="5.74978">
        <ele>227.9697266</ele>
        <time>2012-08-17T07:57:11Z</time>
      </trkpt>
      <trkpt lat="48.92839" lon="5.74976">
        <ele>227.4891357</ele>
        <time>2012-08-17T07:57:12Z</time>
      </trkpt>
      <trkpt lat="48.92838" lon="5.74976">
        <ele>228.4504395</ele>
        <time>2012-08-17T07:57:13Z</time>
      </trkpt>
      <trkpt lat="48.92837" lon="5.74977">
        <ele>227.9697266</ele>
        <time>2012-08-17T07:57:20Z</time>
      </trkpt>
      <trkpt lat="48.92838" lon="5.74976">
        <ele>227.9697266</ele>
        <time>2012-08-17T07:57:21Z</time>
      </trkpt>
      <trkpt lat="48.92838" lon="5.74975">
        <ele>228.4504395</ele>
        <time>2012-08-17T07:57:35Z</time>
      </trkpt>
      <trkpt lat="48.92838" lon="5.7497">
        <ele>228.4504395</ele>
        <time>2012-08-17T07:57:38Z</time>
      </trkpt>
      <trkpt lat="48.92838" lon="5.74969">
        <ele>228.4504395</ele>
        <time>2012-08-17T07:57:39Z</time>
      </trkpt>
      <trkpt lat="48.9284" lon="5.74974">
        <ele>228.4504395</ele>
        <time>2012-08-17T07:57:55Z</time>
      </trkpt>
      <trkpt lat="48.9284" lon="5.74971">
        <ele>227.9697266</ele>
        <time>2012-08-17T07:57:57Z</time>
      </trkpt>
      <trkpt lat="48.92837" lon="5.74971">
        <ele>227.9697266</ele>
        <time>2012-08-17T07:58:02Z</time>
      </trkpt>
      <trkpt lat="48.92837" lon="5.74971">
        <ele>227.9697266</ele>
        <time>2012-08-17T07:58:03Z</time>
      </trkpt>
      <trkpt lat="48.92836" lon="5.74971">
        <ele>228.4504395</ele>
        <time>2012-08-17T07:58:05Z</time>
      </trkpt>
      <trkpt lat="48.92839" lon="5.7497">
        <ele>227.9697266</ele>
        <time>2012-08-17T07:58:22Z</time>
      </trkpt>
      <trkpt lat="48.92838" lon="5.74972">
        <ele>228.4504395</ele>
        <time>2012-08-17T07:58:24Z</time>
      </trkpt>
      <trkpt lat="48.92839" lon="5.74973">
        <ele>227.9697266</ele>
        <time>2012-08-17T07:58:44Z</time>
      </trkpt>
      <trkpt lat="48.92839" lon="5.74974">
        <ele>228.4504395</ele>
        <time>2012-08-17T07:58:45Z</time>
      </trkpt>
      <trkpt lat="48.92837" lon="5.74967">
        <ele>228.4504395</ele>
        <time>2012-08-17T07:59:37Z</time>
      </trkpt>
      <trkpt lat="48.92836" lon="5.74969">
        <ele>227.9697266</ele>
        <time>2012-08-17T07:59:38Z</time>
      </trkpt>
      <trkpt lat="48.92835" lon="5.74969">
        <ele>227.9697266</ele>
        <time>2012-08-17T07:59:42Z</time>
      </trkpt>
      <trkpt lat="48.92835" lon="5.74971">
        <ele>227.9697266</ele>
        <time>2012-08-17T07:59:43Z</time>
      </trkpt>
      <trkpt lat="48.92835" lon="5.74973">
        <ele>228.4504395</ele>
        <time>2012-08-17T07:59:46Z</time>
      </trkpt>
      <trkpt lat="48.92834" lon="5.74975">
        <ele>227.4891357</ele>
        <time>2012-08-17T07:59:47Z</time>
      </trkpt>
      <trkpt lat="48.92834" lon="5.74965">
        <ele>227.4891357</ele>
        <time>2012-08-17T08:00:03Z</time>
      </trkpt>
      <trkpt lat="48.92833" lon="5.74964">
        <ele>227.4891357</ele>
        <time>2012-08-17T08:00:05Z</time>
      </trkpt>
      <trkpt lat="48.92833" lon="5.74964">
        <ele>227.0085449</ele>
        <time>2012-08-17T08:00:08Z</time>
      </trkpt>
      <trkpt lat="48.92836" lon="5.74961">
        <ele>227.4891357</ele>
        <time>2012-08-17T08:00:11Z</time>
      </trkpt>
      <trkpt lat="48.92836" lon="5.7496">
        <ele>227.4891357</ele>
        <time>2012-08-17T08:00:20Z</time>
      </trkpt>
      <trkpt lat="48.92834" lon="5.74956">
        <ele>227.0085449</ele>
        <time>2012-08-17T08:00:23Z</time>
      </trkpt>
      <trkpt lat="48.92832" lon="5.74957">
        <ele>227.4891357</ele>
        <time>2012-08-17T08:00:28Z</time>
      </trkpt>
      <trkpt lat="48.92833" lon="5.74959">
        <ele>227.0085449</ele>
        <time>2012-08-17T08:00:30Z</time>
      </trkpt>
      <trkpt lat="48.92836" lon="5.74961">
        <ele>227.0085449</ele>
        <time>2012-08-17T08:01:03Z</time>
      </trkpt>
      <trkpt lat="48.92835" lon="5.7496">
        <ele>227.0085449</ele>
        <time>2012-08-17T08:01:04Z</time>
      </trkpt>
      <trkpt lat="48.92834" lon="5.74965">
        <ele>227.0085449</ele>
        <time>2012-08-17T08:01:26Z</time>
      </trkpt>
      <trkpt lat="48.92834" lon="5.74967">
        <ele>226.527832</ele>
        <time>2012-08-17T08:01:29Z</time>
      </trkpt>
      <trkpt lat="48.92834" lon="5.74975">
        <ele>227.0085449</ele>
        <time>2012-08-17T08:01:37Z</time>
      </trkpt>
      <trkpt lat="48.92834" lon="5.7498">
        <ele>226.527832</ele>
        <time>2012-08-17T08:01:41Z</time>
      </trkpt>
      <trkpt lat="48.92833" lon="5.74981">
        <ele>226.527832</ele>
        <time>2012-08-17T08:01:45Z</time>
      </trkpt>
      <trkpt lat="48.92833" lon="5.74982">
        <ele>226.0471191</ele>
        <time>2012-08-17T08:01:46Z</time>
      </trkpt>
      <trkpt lat="48.92833" lon="5.74981">
        <ele>226.527832</ele>
        <time>2012-08-17T08:01:49Z</time>
      </trkpt>
      <trkpt lat="48.92833" lon="5.74982">
        <ele>226.527832</ele>
        <time>2012-08-17T08:01:50Z</time>
      </trkpt>
      <trkpt lat="48.92833" lon="5.74983">
        <ele>226.527832</ele>
        <time>2012-08-17T08:01:54Z</time>
      </trkpt>
      <trkpt lat="48.92835" lon="5.74981">
        <ele>225.5665283</ele>
        <time>2012-08-17T08:02:31Z</time>
      </trkpt>
      <trkpt lat="48.92834" lon="5.74981">
        <ele>225.0859375</ele>
        <time>2012-08-17T08:02:32Z</time>
      </trkpt>
      <trkpt lat="48.92834" lon="5.74981">
        <ele>225.0859375</ele>
        <time>2012-08-17T08:02:35Z</time>
      </trkpt>
      <trkpt lat="48.92832" lon="5.74982">
        <ele>225.5665283</ele>
        <time>2012-08-17T08:02:36Z</time>
      </trkpt>
      <trkpt lat="48.92837" lon="5.74984">
        <ele>225.0859375</ele>
        <time>2012-08-17T08:02:43Z</time>
      </trkpt>
      <trkpt lat="48.92837" lon="5.74984">
        <ele>225.0859375</ele>
        <time>2012-08-17T08:02:44Z</time>
      </trkpt>
      <trkpt lat="48.92839" lon="5.74978">
        <ele>224.6052246</ele>
        <time>2012-08-17T08:02:49Z</time>
      </trkpt>
      <trkpt lat="48.9284" lon="5.74976">
        <ele>224.6052246</ele>
        <time>2012-08-17T08:02:50Z</time>
      </trkpt>
      <trkpt lat="48.92841" lon="5.74969">
        <ele>225.0859375</ele>
        <time>2012-08-17T08:02:58Z</time>
      </trkpt>
      <trkpt lat="48.92842" lon="5.74963">
        <ele>225.0859375</ele>
        <time>2012-08-17T08:03:02Z</time>
      </trkpt>
      <trkpt lat="48.92842" lon="5.74963">
        <ele>224.6052246</ele>
        <time>2012-08-17T08:03:05Z</time>
      </trkpt>
      <trkpt lat="48.92841" lon="5.74964">
        <ele>224.6052246</ele>
        <time>2012-08-17T08:03:06Z</time>
      </trkpt>
      <trkpt lat="48.9284" lon="5.74964">
        <ele>224.6052246</ele>
        <time>2012-08-17T08:03:07Z</time>
      </trkpt>
      <trkpt lat="48.9284" lon="5.74963">
        <ele>225.0859375</ele>
        <time>2012-08-17T08:03:10Z</time>
      </trkpt>
      <trkpt lat="48.9284" lon="5.74963">
        <ele>225.0859375</ele>
        <time>2012-08-17T08:03:11Z</time>
      </trkpt>
      <trkpt lat="48.9284" lon="5.74961">
        <ele>225.0859375</ele>
        <time>2012-08-17T08:03:12Z</time>
      </trkpt>
      <trkpt lat="48.9284" lon="5.74962">
        <ele>225.0859375</ele>
        <time>2012-08-17T08:03:17Z</time>
      </trkpt>
      <trkpt lat="48.9284" lon="5.74962">
        <ele>225.0859375</ele>
        <time>2012-08-17T08:03:18Z</time>
      </trkpt>
      <trkpt lat="48.9284" lon="5.74962">
        <ele>225.0859375</ele>
        <time>2012-08-17T08:03:19Z</time>
      </trkpt>
      <trkpt lat="48.92839" lon="5.74959">
        <ele>225.5665283</ele>
        <time>2012-08-17T08:03:23Z</time>
      </trkpt>
      <trkpt lat="48.92839" lon="5.74957">
        <ele>224.6052246</ele>
        <time>2012-08-17T08:03:25Z</time>
      </trkpt>
      <trkpt lat="48.92841" lon="5.7496">
        <ele>224.6052246</ele>
        <time>2012-08-17T08:03:33Z</time>
      </trkpt>
      <trkpt lat="48.92842" lon="5.74961">
        <ele>225.0859375</ele>
        <time>2012-08-17T08:03:34Z</time>
      </trkpt>
      <trkpt lat="48.92841" lon="5.74961">
        <ele>224.6052246</ele>
        <time>2012-08-17T08:03:37Z</time>
      </trkpt>
      <trkpt lat="48.92841" lon="5.74961">
        <ele>224.6052246</ele>
        <time>2012-08-17T08:03:38Z</time>
      </trkpt>
      <trkpt lat="48.92842" lon="5.7496">
        <ele>224.6052246</ele>
        <time>2012-08-17T08:03:41Z</time>
      </trkpt>
      <trkpt lat="48.92842" lon="5.74959">
        <ele>224.6052246</ele>
        <time>2012-08-17T08:03:42Z</time>
      </trkpt>
      <trkpt lat="48.92843" lon="5.74956">
        <ele>224.1245117</ele>
        <time>2012-08-17T08:03:45Z</time>
      </trkpt>
      <trkpt lat="48.92843" lon="5.74956">
        <ele>224.6052246</ele>
        <time>2012-08-17T08:03:46Z</time>
      </trkpt>
      <trkpt lat="48.92841" lon="5.7496">
        <ele>224.1245117</ele>
        <time>2012-08-17T08:03:48Z</time>
      </trkpt>
      <trkpt lat="48.92842" lon="5.7496">
        <ele>224.6052246</ele>
        <time>2012-08-17T08:03:51Z</time>
      </trkpt>
      <trkpt lat="48.92842" lon="5.74961">
        <ele>224.6052246</ele>
        <time>2012-08-17T08:03:54Z</time>
      </trkpt>
      <trkpt lat="48.92843" lon="5.74963">
        <ele>224.6052246</ele>
        <time>2012-08-17T08:04:02Z</time>
      </trkpt>
      <trkpt lat="48.92845" lon="5.74964">
        <ele>224.6052246</ele>
        <time>2012-08-17T08:04:06Z</time>
      </trkpt>
      <trkpt lat="48.92846" lon="5.74966">
        <ele>224.6052246</ele>
        <time>2012-08-17T08:04:08Z</time>
      </trkpt>
      <trkpt lat="48.92846" lon="5.74965">
        <ele>224.6052246</ele>
        <time>2012-08-17T08:04:12Z</time>
      </trkpt>
      <trkpt lat="48.92847" lon="5.74965">
        <ele>225.0859375</ele>
        <time>2012-08-17T08:04:13Z</time>
      </trkpt>
      <trkpt lat="48.92845" lon="5.74963">
        <ele>225.0859375</ele>
        <time>2012-08-17T08:04:18Z</time>
      </trkpt>
      <trkpt lat="48.92845" lon="5.74961">
        <ele>224.6052246</ele>
        <time>2012-08-17T08:04:20Z</time>
      </trkpt>
      <trkpt lat="48.92843" lon="5.74959">
        <ele>225.0859375</ele>
        <time>2012-08-17T08:04:30Z</time>
      </trkpt>
      <trkpt lat="48.92842" lon="5.7496">
        <ele>225.0859375</ele>
        <time>2012-08-17T08:04:31Z</time>
      </trkpt>
      <trkpt lat="48.92839" lon="5.74971">
        <ele>225.0859375</ele>
        <time>2012-08-17T08:05:27Z</time>
      </trkpt>
      <trkpt lat="48.92841" lon="5.74973">
        <ele>224.6052246</ele>
        <time>2012-08-17T08:05:29Z</time>
      </trkpt>
      <trkpt lat="48.9284" lon="5.74974">
        <ele>224.1245117</ele>
        <time>2012-08-17T08:05:35Z</time>
      </trkpt>
      <trkpt lat="48.9284" lon="5.74976">
        <ele>224.6052246</ele>
        <time>2012-08-17T08:05:39Z</time>
      </trkpt>
      <trkpt lat="48.92846" lon="5.7497">
        <ele>224.1245117</ele>
        <time>2012-08-17T08:06:35Z</time>
      </trkpt>
      <trkpt lat="48.92846" lon="5.7497">
        <ele>224.1245117</ele>
        <time>2012-08-17T08:06:36Z</time>
      </trkpt>
      <trkpt lat="48.92848" lon="5.74973">
        <ele>224.1245117</ele>
        <time>2012-08-17T08:06:52Z</time>
      </trkpt>
      <trkpt lat="48.92847" lon="5.74974">
        <ele>224.6052246</ele>
        <time>2012-08-17T08:06:53Z</time>
      </trkpt>
      <trkpt lat="48.9284" lon="5.74971">
        <ele>224.6052246</ele>
        <time>2012-08-17T08:07:30Z</time>
      </trkpt>
      <trkpt lat="48.9284" lon="5.7497">
        <ele>224.6052246</ele>
        <time>2012-08-17T08:07:32Z</time>
      </trkpt>
      <trkpt lat="48.9284" lon="5.74977">
        <ele>224.1245117</ele>
        <time>2012-08-17T08:07:38Z</time>
      </trkpt>
      <trkpt lat="48.92839" lon="5.74978">
        <ele>224.6052246</ele>
        <time>2012-08-17T08:07:39Z</time>
      </trkpt>
      <trkpt lat="48.9283" lon="5.7497">
        <ele>224.1245117</ele>
        <time>2012-08-17T08:08:13Z</time>
      </trkpt>
      <trkpt lat="48.92831" lon="5.74969">
        <ele>223.6437988</ele>
        <time>2012-08-17T08:08:14Z</time>
      </trkpt>
      <trkpt lat="48.9283" lon="5.7497">
        <ele>224.1245117</ele>
        <time>2012-08-17T08:08:15Z</time>
      </trkpt>
      <trkpt lat="48.9283" lon="5.74968">
        <ele>224.1245117</ele>
        <time>2012-08-17T08:08:19Z</time>
      </trkpt>
      <trkpt lat="48.92829" lon="5.74967">
        <ele>224.1245117</ele>
        <time>2012-08-17T08:08:20Z</time>
      </trkpt>
      <trkpt lat="48.92828" lon="5.74964">
        <ele>224.1245117</ele>
        <time>2012-08-17T08:08:24Z</time>
      </trkpt>
      <trkpt lat="48.9283" lon="5.74965">
        <ele>224.1245117</ele>
        <time>2012-08-17T08:08:28Z</time>
      </trkpt>
      <trkpt lat="48.92831" lon="5.74969">
        <ele>224.1245117</ele>
        <time>2012-08-17T08:08:31Z</time>
      </trkpt>
      <trkpt lat="48.92835" lon="5.74981">
        <ele>223.163208</ele>
        <time>2012-08-17T08:09:09Z</time>
      </trkpt>
      <trkpt lat="48.92841" lon="5.74976">
        <ele>223.163208</ele>
        <time>2012-08-17T08:09:12Z</time>
      </trkpt>
      <trkpt lat="48.92846" lon="5.74964">
        <ele>223.163208</ele>
        <time>2012-08-17T08:09:21Z</time>
      </trkpt>
      <trkpt lat="48.92846" lon="5.74958">
        <ele>223.163208</ele>
        <time>2012-08-17T08:09:27Z</time>
      </trkpt>
      <trkpt lat="48.9285" lon="5.74956">
        <ele>223.6437988</ele>
        <time>2012-08-17T08:12:02Z</time>
      </trkpt>
      <trkpt lat="48.92854" lon="5.74957">
        <ele>224.6052246</ele>
        <time>2012-08-17T08:12:08Z</time>
      </trkpt>
      <trkpt lat="48.92854" lon="5.74955">
        <ele>225.0859375</ele>
        <time>2012-08-17T08:12:10Z</time>
      </trkpt>
      <trkpt lat="48.92854" lon="5.74954">
        <ele>225.0859375</ele>
        <time>2012-08-17T08:12:13Z</time>
      </trkpt>
      <trkpt lat="48.92854" lon="5.74954">
        <ele>225.5665283</ele>
        <time>2012-08-17T08:12:14Z</time>
      </trkpt>
      <trkpt lat="48.92855" lon="5.74952">
        <ele>225.0859375</ele>
        <time>2012-08-17T08:12:23Z</time>
      </trkpt>
      <trkpt lat="48.92857" lon="5.74949">
        <ele>224.6052246</ele>
        <time>2012-08-17T08:12:25Z</time>
      </trkpt>
      <trkpt lat="48.92862" lon="5.74941">
        <ele>225.0859375</ele>
        <time>2012-08-17T08:12:30Z</time>
      </trkpt>
      <trkpt lat="48.92874" lon="5.74937">
        <ele>224.6052246</ele>
        <time>2012-08-17T08:12:36Z</time>
      </trkpt>
      <trkpt lat="48.9288" lon="5.74953">
        <ele>224.6052246</ele>
        <time>2012-08-17T08:12:41Z</time>
      </trkpt>
      <trkpt lat="48.92875" lon="5.74985">
        <ele>224.6052246</ele>
        <time>2012-08-17T08:12:48Z</time>
      </trkpt>
      <trkpt lat="48.92861" lon="5.75011">
        <ele>224.1245117</ele>
        <time>2012-08-17T08:12:54Z</time>
      </trkpt>
      <trkpt lat="48.92853" lon="5.75047">
        <ele>223.6437988</ele>
        <time>2012-08-17T08:13:00Z</time>
      </trkpt>
      <trkpt lat="48.92853" lon="5.75092">
        <ele>223.163208</ele>
        <time>2012-08-17T08:13:07Z</time>
      </trkpt>
      <trkpt lat="48.92849" lon="5.75117">
        <ele>222.6824951</ele>
        <time>2012-08-17T08:13:10Z</time>
      </trkpt>
      <trkpt lat="48.92827" lon="5.75178">
        <ele>221.7211914</ele>
        <time>2012-08-17T08:13:17Z</time>
      </trkpt>
      <trkpt lat="48.92808" lon="5.75229">
        <ele>221.7211914</ele>
        <time>2012-08-17T08:13:23Z</time>
      </trkpt>
      <trkpt lat="48.92794" lon="5.75268">
        <ele>222.2017822</ele>
        <time>2012-08-17T08:13:29Z</time>
      </trkpt>
      <trkpt lat="48.92779" lon="5.75309">
        <ele>223.6437988</ele>
        <time>2012-08-17T08:13:36Z</time>
      </trkpt>
      <trkpt lat="48.92772" lon="5.75332">
        <ele>223.163208</ele>
        <time>2012-08-17T08:13:40Z</time>
      </trkpt>
      <trkpt lat="48.92769" lon="5.75358">
        <ele>223.6437988</ele>
        <time>2012-08-17T08:13:44Z</time>
      </trkpt>
      <trkpt lat="48.92774" lon="5.75422">
        <ele>224.6052246</ele>
        <time>2012-08-17T08:13:53Z</time>
      </trkpt>
      <trkpt lat="48.92779" lon="5.75457">
        <ele>225.0859375</ele>
        <time>2012-08-17T08:13:58Z</time>
      </trkpt>
      <trkpt lat="48.92779" lon="5.75487">
        <ele>224.6052246</ele>
        <time>2012-08-17T08:14:02Z</time>
      </trkpt>
      <trkpt lat="48.92771" lon="5.75524">
        <ele>224.6052246</ele>
        <time>2012-08-17T08:14:08Z</time>
      </trkpt>
      <trkpt lat="48.9275" lon="5.75566">
        <ele>226.0471191</ele>
        <time>2012-08-17T08:14:16Z</time>
      </trkpt>
      <trkpt lat="48.92718" lon="5.75614">
        <ele>225.0859375</ele>
        <time>2012-08-17T08:14:26Z</time>
      </trkpt>
      <trkpt lat="48.92696" lon="5.75649">
        <ele>225.5665283</ele>
        <time>2012-08-17T08:14:33Z</time>
      </trkpt>
      <trkpt lat="48.9267" lon="5.75688">
        <ele>225.0859375</ele>
        <time>2012-08-17T08:14:41Z</time>
      </trkpt>
      <trkpt lat="48.92668" lon="5.7571">
        <ele>225.0859375</ele>
        <time>2012-08-17T08:14:45Z</time>
      </trkpt>
      <trkpt lat="48.92674" lon="5.7572">
        <ele>225.0859375</ele>
        <time>2012-08-17T08:14:47Z</time>
      </trkpt>
      <trkpt lat="48.92704" lon="5.7576">
        <ele>225.0859375</ele>
        <time>2012-08-17T08:14:55Z</time>
      </trkpt>
      <trkpt lat="48.92732" lon="5.75801">
        <ele>225.0859375</ele>
        <time>2012-08-17T08:15:02Z</time>
      </trkpt>
      <trkpt lat="48.92749" lon="5.75834">
        <ele>224.6052246</ele>
        <time>2012-08-17T08:15:08Z</time>
      </trkpt>
      <trkpt lat="48.9276" lon="5.75855">
        <ele>223.163208</ele>
        <time>2012-08-17T08:15:14Z</time>
      </trkpt>
      <trkpt lat="48.9277" lon="5.75874">
        <ele>223.6437988</ele>
        <time>2012-08-17T08:15:20Z</time>
      </trkpt>
      <trkpt lat="48.92786" lon="5.75898">
        <ele>223.6437988</ele>
        <time>2012-08-17T08:15:25Z</time>
      </trkpt>
      <trkpt lat="48.92813" lon="5.75938">
        <ele>222.6824951</ele>
        <time>2012-08-17T08:15:33Z</time>
      </trkpt>
      <trkpt lat="48.92848" lon="5.75989">
        <ele>222.2017822</ele>
        <time>2012-08-17T08:15:42Z</time>
      </trkpt>
      <trkpt lat="48.92892" lon="5.76057">
        <ele>221.7211914</ele>
        <time>2012-08-17T08:15:52Z</time>
      </trkpt>
      <trkpt lat="48.92921" lon="5.76102">
        <ele>220.2791748</ele>
        <time>2012-08-17T08:15:58Z</time>
      </trkpt>
      <trkpt lat="48.92953" lon="5.76133">
        <ele>216.9146729</ele>
        <time>2012-08-17T08:16:03Z</time>
      </trkpt>
      <trkpt lat="48.92992" lon="5.76169">
        <ele>214.9919434</ele>
        <time>2012-08-17T08:16:09Z</time>
      </trkpt>
      <trkpt lat="48.93023" lon="5.76198">
        <ele>214.5112305</ele>
        <time>2012-08-17T08:16:14Z</time>
      </trkpt>
      <trkpt lat="48.93061" lon="5.76242">
        <ele>214.0306396</ele>
        <time>2012-08-17T08:16:21Z</time>
      </trkpt>
      <trkpt lat="48.93081" lon="5.76267">
        <ele>214.0306396</ele>
        <time>2012-08-17T08:16:26Z</time>
      </trkpt>
      <trkpt lat="48.93086" lon="5.76276">
        <ele>214.5112305</ele>
        <time>2012-08-17T08:16:30Z</time>
      </trkpt>
      <trkpt lat="48.93095" lon="5.76285">
        <ele>214.9919434</ele>
        <time>2012-08-17T08:16:35Z</time>
      </trkpt>
      <trkpt lat="48.93115" lon="5.76295">
        <ele>216.9146729</ele>
        <time>2012-08-17T08:16:42Z</time>
      </trkpt>
      <trkpt lat="48.93131" lon="5.7631">
        <ele>218.3565674</ele>
        <time>2012-08-17T08:16:47Z</time>
      </trkpt>
      <trkpt lat="48.93141" lon="5.76319">
        <ele>219.798584</ele>
        <time>2012-08-17T08:16:50Z</time>
      </trkpt>
      <trkpt lat="48.9316" lon="5.76331">
        <ele>220.7598877</ele>
        <time>2012-08-17T08:16:55Z</time>
      </trkpt>
      <trkpt lat="48.93185" lon="5.76342">
        <ele>221.2406006</ele>
        <time>2012-08-17T08:17:01Z</time>
      </trkpt>
      <trkpt lat="48.93218" lon="5.76351">
        <ele>221.7211914</ele>
        <time>2012-08-17T08:17:08Z</time>
      </trkpt>
      <trkpt lat="48.93244" lon="5.76357">
        <ele>222.2017822</ele>
        <time>2012-08-17T08:17:13Z</time>
      </trkpt>
      <trkpt lat="48.93287" lon="5.76368">
        <ele>223.6437988</ele>
        <time>2012-08-17T08:17:21Z</time>
      </trkpt>
      <trkpt lat="48.93333" lon="5.76379">
        <ele>225.0859375</ele>
        <time>2012-08-17T08:17:30Z</time>
      </trkpt>
      <trkpt lat="48.93378" lon="5.76388">
        <ele>225.5665283</ele>
        <time>2012-08-17T08:17:39Z</time>
      </trkpt>
      <trkpt lat="48.93415" lon="5.76397">
        <ele>226.527832</ele>
        <time>2012-08-17T08:17:47Z</time>
      </trkpt>
      <trkpt lat="48.9345" lon="5.76405">
        <ele>226.527832</ele>
        <time>2012-08-17T08:17:54Z</time>
      </trkpt>
      <trkpt lat="48.93461" lon="5.76411">
        <ele>226.0471191</ele>
        <time>2012-08-17T08:17:56Z</time>
      </trkpt>
      <trkpt lat="48.93482" lon="5.76432">
        <ele>225.5665283</ele>
        <time>2012-08-17T08:18:00Z</time>
      </trkpt>
      <trkpt lat="48.93515" lon="5.76498">
        <ele>224.6052246</ele>
        <time>2012-08-17T08:18:08Z</time>
      </trkpt>
      <trkpt lat="48.93547" lon="5.76564">
        <ele>223.163208</ele>
        <time>2012-08-17T08:18:15Z</time>
      </trkpt>
      <trkpt lat="48.93566" lon="5.76603">
        <ele>222.6824951</ele>
        <time>2012-08-17T08:18:19Z</time>
      </trkpt>
      <trkpt lat="48.93602" lon="5.76676">
        <ele>220.2791748</ele>
        <time>2012-08-17T08:18:26Z</time>
      </trkpt>
      <trkpt lat="48.93623" lon="5.76718">
        <ele>218.8372803</ele>
        <time>2012-08-17T08:18:30Z</time>
      </trkpt>
      <trkpt lat="48.93628" lon="5.76729">
        <ele>218.8372803</ele>
        <time>2012-08-17T08:18:31Z</time>
      </trkpt>
      <trkpt lat="48.93639" lon="5.7675">
        <ele>219.3179932</ele>
        <time>2012-08-17T08:18:33Z</time>
      </trkpt>
      <trkpt lat="48.93665" lon="5.76802">
        <ele>217.8759766</ele>
        <time>2012-08-17T08:18:38Z</time>
      </trkpt>
      <trkpt lat="48.93695" lon="5.76866">
        <ele>216.9146729</ele>
        <time>2012-08-17T08:18:44Z</time>
      </trkpt>
      <trkpt lat="48.93705" lon="5.76886">
        <ele>216.43396</ele>
        <time>2012-08-17T08:18:46Z</time>
      </trkpt>
      <trkpt lat="48.93734" lon="5.76947">
        <ele>215.4726563</ele>
        <time>2012-08-17T08:18:52Z</time>
      </trkpt>
      <trkpt lat="48.93748" lon="5.76975">
        <ele>215.9532471</ele>
        <time>2012-08-17T08:18:55Z</time>
      </trkpt>
      <trkpt lat="48.9377" lon="5.7702">
        <ele>215.9532471</ele>
        <time>2012-08-17T08:19:00Z</time>
      </trkpt>
      <trkpt lat="48.93797" lon="5.77076">
        <ele>217.3953857</ele>
        <time>2012-08-17T08:19:07Z</time>
      </trkpt>
      <trkpt lat="48.93812" lon="5.77106">
        <ele>218.3565674</ele>
        <time>2012-08-17T08:19:11Z</time>
      </trkpt>
      <trkpt lat="48.93823" lon="5.77129">
        <ele>218.8372803</ele>
        <time>2012-08-17T08:19:14Z</time>
      </trkpt>
      <trkpt lat="48.93851" lon="5.77186">
        <ele>219.3179932</ele>
        <time>2012-08-17T08:19:22Z</time>
      </trkpt>
      <trkpt lat="48.93881" lon="5.77246">
        <ele>220.2791748</ele>
        <time>2012-08-17T08:19:30Z</time>
      </trkpt>
      <trkpt lat="48.93914" lon="5.77311">
        <ele>220.7598877</ele>
        <time>2012-08-17T08:19:39Z</time>
      </trkpt>
      <trkpt lat="48.93942" lon="5.77369">
        <ele>221.2406006</ele>
        <time>2012-08-17T08:19:47Z</time>
      </trkpt>
      <trkpt lat="48.9396" lon="5.77406">
        <ele>222.2017822</ele>
        <time>2012-08-17T08:19:52Z</time>
      </trkpt>
      <trkpt lat="48.93989" lon="5.77464">
        <ele>222.6824951</ele>
        <time>2012-08-17T08:20:00Z</time>
      </trkpt>
      <trkpt lat="48.94025" lon="5.77538">
        <ele>225.5665283</ele>
        <time>2012-08-17T08:20:10Z</time>
      </trkpt>
      <trkpt lat="48.94055" lon="5.77598">
        <ele>225.5665283</ele>
        <time>2012-08-17T08:20:18Z</time>
      </trkpt>
      <trkpt lat="48.9408" lon="5.77651">
        <ele>227.0085449</ele>
        <time>2012-08-17T08:20:25Z</time>
      </trkpt>
      <trkpt lat="48.94114" lon="5.7772">
        <ele>226.527832</ele>
        <time>2012-08-17T08:20:34Z</time>
      </trkpt>
      <trkpt lat="48.94151" lon="5.77796">
        <ele>225.0859375</ele>
        <time>2012-08-17T08:20:43Z</time>
      </trkpt>
      <trkpt lat="48.94192" lon="5.77882">
        <ele>223.6437988</ele>
        <time>2012-08-17T08:20:52Z</time>
      </trkpt>
      <trkpt lat="48.9422" lon="5.77937">
        <ele>222.6824951</ele>
        <time>2012-08-17T08:20:58Z</time>
      </trkpt>
      <trkpt lat="48.94269" lon="5.78037">
        <ele>222.6824951</ele>
        <time>2012-08-17T08:21:09Z</time>
      </trkpt>
      <trkpt lat="48.94296" lon="5.78092">
        <ele>222.2017822</ele>
        <time>2012-08-17T08:21:15Z</time>
      </trkpt>
      <trkpt lat="48.94341" lon="5.78183">
        <ele>221.2406006</ele>
        <time>2012-08-17T08:21:25Z</time>
      </trkpt>
      <trkpt lat="48.94359" lon="5.78219">
        <ele>220.2791748</ele>
        <time>2012-08-17T08:21:29Z</time>
      </trkpt>
      <trkpt lat="48.94397" lon="5.78301">
        <ele>219.3179932</ele>
        <time>2012-08-17T08:21:38Z</time>
      </trkpt>
      <trkpt lat="48.94427" lon="5.78366">
        <ele>218.3565674</ele>
        <time>2012-08-17T08:21:45Z</time>
      </trkpt>
      <trkpt lat="48.9446" lon="5.78443">
        <ele>217.3953857</ele>
        <time>2012-08-17T08:21:53Z</time>
      </trkpt>
      <trkpt lat="48.94492" lon="5.78518">
        <ele>216.9146729</ele>
        <time>2012-08-17T08:22:01Z</time>
      </trkpt>
      <trkpt lat="48.94515" lon="5.78581">
        <ele>216.43396</ele>
        <time>2012-08-17T08:22:07Z</time>
      </trkpt>
      <trkpt lat="48.94533" lon="5.78639">
        <ele>215.9532471</ele>
        <time>2012-08-17T08:22:12Z</time>
      </trkpt>
      <trkpt lat="48.94562" lon="5.78736">
        <ele>214.9919434</ele>
        <time>2012-08-17T08:22:20Z</time>
      </trkpt>
      <trkpt lat="48.94595" lon="5.78845">
        <ele>214.5112305</ele>
        <time>2012-08-17T08:22:29Z</time>
      </trkpt>
      <trkpt lat="48.94626" lon="5.78949">
        <ele>213.0693359</ele>
        <time>2012-08-17T08:22:38Z</time>
      </trkpt>
      <trkpt lat="48.94652" lon="5.79034">
        <ele>212.588623</ele>
        <time>2012-08-17T08:22:46Z</time>
      </trkpt>
      <trkpt lat="48.9468" lon="5.79127">
        <ele>213.0693359</ele>
        <time>2012-08-17T08:22:55Z</time>
      </trkpt>
      <trkpt lat="48.94701" lon="5.79198">
        <ele>213.0693359</ele>
        <time>2012-08-17T08:23:02Z</time>
      </trkpt>
      <trkpt lat="48.94725" lon="5.79277">
        <ele>214.9919434</ele>
        <time>2012-08-17T08:23:10Z</time>
      </trkpt>
      <trkpt lat="48.94754" lon="5.79372">
        <ele>214.9919434</ele>
        <time>2012-08-17T08:23:20Z</time>
      </trkpt>
      <trkpt lat="48.94779" lon="5.79455">
        <ele>215.9532471</ele>
        <time>2012-08-17T08:23:29Z</time>
      </trkpt>
      <trkpt lat="48.94803" lon="5.79534">
        <ele>217.3953857</ele>
        <time>2012-08-17T08:23:38Z</time>
      </trkpt>
      <trkpt lat="48.94823" lon="5.79598">
        <ele>217.3953857</ele>
        <time>2012-08-17T08:23:45Z</time>
      </trkpt>
      <trkpt lat="48.94833" lon="5.79647">
        <ele>217.8759766</ele>
        <time>2012-08-17T08:23:50Z</time>
      </trkpt>
      <trkpt lat="48.9484" lon="5.79703">
        <ele>217.3953857</ele>
        <time>2012-08-17T08:23:56Z</time>
      </trkpt>
      <trkpt lat="48.94849" lon="5.79768">
        <ele>217.3953857</ele>
        <time>2012-08-17T08:24:03Z</time>
      </trkpt>
      <trkpt lat="48.94859" lon="5.79841">
        <ele>217.8759766</ele>
        <time>2012-08-17T08:24:10Z</time>
      </trkpt>
      <trkpt lat="48.9487" lon="5.79932">
        <ele>216.9146729</ele>
        <time>2012-08-17T08:24:18Z</time>
      </trkpt>
      <trkpt lat="48.94878" lon="5.80001">
        <ele>216.43396</ele>
        <time>2012-08-17T08:24:24Z</time>
      </trkpt>
      <trkpt lat="48.94882" lon="5.80048">
        <ele>215.9532471</ele>
        <time>2012-08-17T08:24:28Z</time>
      </trkpt>
      <trkpt lat="48.94891" lon="5.80139">
        <ele>214.5112305</ele>
        <time>2012-08-17T08:24:36Z</time>
      </trkpt>
      <trkpt lat="48.949" lon="5.80218">
        <ele>215.9532471</ele>
        <time>2012-08-17T08:24:43Z</time>
      </trkpt>
      <trkpt lat="48.94916" lon="5.80316">
        <ele>216.9146729</ele>
        <time>2012-08-17T08:24:52Z</time>
      </trkpt>
      <trkpt lat="48.94938" lon="5.80384">
        <ele>217.8759766</ele>
        <time>2012-08-17T08:24:59Z</time>
      </trkpt>
      <trkpt lat="48.94966" lon="5.80446">
        <ele>218.3565674</ele>
        <time>2012-08-17T08:25:06Z</time>
      </trkpt>
      <trkpt lat="48.94986" lon="5.8049">
        <ele>219.798584</ele>
        <time>2012-08-17T08:25:11Z</time>
      </trkpt>
      <trkpt lat="48.95019" lon="5.80562">
        <ele>219.798584</ele>
        <time>2012-08-17T08:25:19Z</time>
      </trkpt>
      <trkpt lat="48.9505" lon="5.80632">
        <ele>220.2791748</ele>
        <time>2012-08-17T08:25:27Z</time>
      </trkpt>
      <trkpt lat="48.9507" lon="5.80686">
        <ele>221.7211914</ele>
        <time>2012-08-17T08:25:33Z</time>
      </trkpt>
      <trkpt lat="48.95075" lon="5.80737">
        <ele>221.7211914</ele>
        <time>2012-08-17T08:25:38Z</time>
      </trkpt>
      <trkpt lat="48.95067" lon="5.80786">
        <ele>222.2017822</ele>
        <time>2012-08-17T08:25:43Z</time>
      </trkpt>
      <trkpt lat="48.95047" lon="5.80837">
        <ele>222.2017822</ele>
        <time>2012-08-17T08:25:49Z</time>
      </trkpt>
      <trkpt lat="48.95017" lon="5.80901">
        <ele>222.6824951</ele>
        <time>2012-08-17T08:25:57Z</time>
      </trkpt>
      <trkpt lat="48.94988" lon="5.80967">
        <ele>222.2017822</ele>
        <time>2012-08-17T08:26:04Z</time>
      </trkpt>
      <trkpt lat="48.9496" lon="5.81042">
        <ele>221.2406006</ele>
        <time>2012-08-17T08:26:12Z</time>
      </trkpt>
      <trkpt lat="48.94945" lon="5.81111">
        <ele>223.163208</ele>
        <time>2012-08-17T08:26:19Z</time>
      </trkpt>
      <trkpt lat="48.94931" lon="5.81185">
        <ele>224.6052246</ele>
        <time>2012-08-17T08:26:27Z</time>
      </trkpt>
      <trkpt lat="48.94916" lon="5.81262">
        <ele>224.6052246</ele>
        <time>2012-08-17T08:26:36Z</time>
      </trkpt>
      <trkpt lat="48.94904" lon="5.81318">
        <ele>224.1245117</ele>
        <time>2012-08-17T08:26:44Z</time>
      </trkpt>
      <trkpt lat="48.94901" lon="5.81339">
        <ele>223.6437988</ele>
        <time>2012-08-17T08:26:49Z</time>
      </trkpt>
      <trkpt lat="48.94902" lon="5.81357">
        <ele>223.6437988</ele>
        <time>2012-08-17T08:26:56Z</time>
      </trkpt>
      <trkpt lat="48.94902" lon="5.81357">
        <ele>223.6437988</ele>
        <time>2012-08-17T08:26:58Z</time>
      </trkpt>
      <trkpt lat="48.94902" lon="5.81358">
        <ele>223.6437988</ele>
        <time>2012-08-17T08:27:01Z</time>
      </trkpt>
      <trkpt lat="48.94902" lon="5.81359">
        <ele>223.6437988</ele>
        <time>2012-08-17T08:27:02Z</time>
      </trkpt>
      <trkpt lat="48.94913" lon="5.81371">
        <ele>224.1245117</ele>
        <time>2012-08-17T08:27:06Z</time>
      </trkpt>
      <trkpt lat="48.94932" lon="5.81383">
        <ele>226.0471191</ele>
        <time>2012-08-17T08:27:11Z</time>
      </trkpt>
      <trkpt lat="48.94968" lon="5.81405">
        <ele>227.9697266</ele>
        <time>2012-08-17T08:27:18Z</time>
      </trkpt>
      <trkpt lat="48.95007" lon="5.81427">
        <ele>228.4504395</ele>
        <time>2012-08-17T08:27:25Z</time>
      </trkpt>
      <trkpt lat="48.95067" lon="5.81461">
        <ele>229.4117432</ele>
        <time>2012-08-17T08:27:35Z</time>
      </trkpt>
      <trkpt lat="48.95124" lon="5.81494">
        <ele>229.892334</ele>
        <time>2012-08-17T08:27:44Z</time>
      </trkpt>
      <trkpt lat="48.95192" lon="5.81533">
        <ele>229.4117432</ele>
        <time>2012-08-17T08:27:54Z</time>
      </trkpt>
      <trkpt lat="48.95252" lon="5.81568">
        <ele>228.4504395</ele>
        <time>2012-08-17T08:28:02Z</time>
      </trkpt>
      <trkpt lat="48.95319" lon="5.81607">
        <ele>228.9311523</ele>
        <time>2012-08-17T08:28:10Z</time>
      </trkpt>
      <trkpt lat="48.95328" lon="5.81612">
        <ele>225.5665283</ele>
        <time>2012-08-17T08:28:11Z</time>
      </trkpt>
      <trkpt lat="48.95336" lon="5.81617">
        <ele>226.0471191</ele>
        <time>2012-08-17T08:28:12Z</time>
      </trkpt>
      <trkpt lat="48.95405" lon="5.81657">
        <ele>226.0471191</ele>
        <time>2012-08-17T08:28:20Z</time>
      </trkpt>
      <trkpt lat="48.95476" lon="5.81698">
        <ele>227.4891357</ele>
        <time>2012-08-17T08:28:29Z</time>
      </trkpt>
      <trkpt lat="48.95548" lon="5.81739">
        <ele>227.0085449</ele>
        <time>2012-08-17T08:28:38Z</time>
      </trkpt>
      <trkpt lat="48.95625" lon="5.81783">
        <ele>226.0471191</ele>
        <time>2012-08-17T08:28:47Z</time>
      </trkpt>
      <trkpt lat="48.95719" lon="5.81837">
        <ele>227.4891357</ele>
        <time>2012-08-17T08:28:58Z</time>
      </trkpt>
      <trkpt lat="48.9579" lon="5.81877">
        <ele>229.4117432</ele>
        <time>2012-08-17T08:29:07Z</time>
      </trkpt>
      <trkpt lat="48.95866" lon="5.81921">
        <ele>227.9697266</ele>
        <time>2012-08-17T08:29:17Z</time>
      </trkpt>
      <trkpt lat="48.95947" lon="5.81967">
        <ele>227.9697266</ele>
        <time>2012-08-17T08:29:27Z</time>
      </trkpt>
      <trkpt lat="48.96031" lon="5.82015">
        <ele>227.4891357</ele>
        <time>2012-08-17T08:29:37Z</time>
      </trkpt>
      <trkpt lat="48.96102" lon="5.82056">
        <ele>227.4891357</ele>
        <time>2012-08-17T08:29:46Z</time>
      </trkpt>
      <trkpt lat="48.96169" lon="5.82095">
        <ele>228.9311523</ele>
        <time>2012-08-17T08:29:55Z</time>
      </trkpt>
      <trkpt lat="48.96235" lon="5.82131">
        <ele>230.3730469</ele>
        <time>2012-08-17T08:30:04Z</time>
      </trkpt>
      <trkpt lat="48.96298" lon="5.82168">
        <ele>230.3730469</ele>
        <time>2012-08-17T08:30:13Z</time>
      </trkpt>
      <trkpt lat="48.96348" lon="5.82197">
        <ele>230.3730469</ele>
        <time>2012-08-17T08:30:21Z</time>
      </trkpt>
      <trkpt lat="48.96376" lon="5.82211">
        <ele>230.3730469</ele>
        <time>2012-08-17T08:30:26Z</time>
      </trkpt>
      <trkpt lat="48.96388" lon="5.82232">
        <ele>229.892334</ele>
        <time>2012-08-17T08:30:30Z</time>
      </trkpt>
      <trkpt lat="48.96382" lon="5.82247">
        <ele>230.8537598</ele>
        <time>2012-08-17T08:30:32Z</time>
      </trkpt>
      <trkpt lat="48.96377" lon="5.82254">
        <ele>230.3730469</ele>
        <time>2012-08-17T08:30:33Z</time>
      </trkpt>
      <trkpt lat="48.96354" lon="5.82291">
        <ele>230.3730469</ele>
        <time>2012-08-17T08:30:39Z</time>
      </trkpt>
      <trkpt lat="48.96335" lon="5.82325">
        <ele>231.3343506</ele>
        <time>2012-08-17T08:30:47Z</time>
      </trkpt>
      <trkpt lat="48.96317" lon="5.82358">
        <ele>231.8149414</ele>
        <time>2012-08-17T08:30:53Z</time>
      </trkpt>
      <trkpt lat="48.96293" lon="5.82406">
        <ele>231.8149414</ele>
        <time>2012-08-17T08:31:00Z</time>
      </trkpt>
      <trkpt lat="48.9627" lon="5.82468">
        <ele>228.4504395</ele>
        <time>2012-08-17T08:31:07Z</time>
      </trkpt>
      <trkpt lat="48.96244" lon="5.82541">
        <ele>227.0085449</ele>
        <time>2012-08-17T08:31:14Z</time>
      </trkpt>
      <trkpt lat="48.96233" lon="5.82572">
        <ele>227.0085449</ele>
        <time>2012-08-17T08:31:17Z</time>
      </trkpt>
      <trkpt lat="48.96226" lon="5.82626">
        <ele>227.4891357</ele>
        <time>2012-08-17T08:31:22Z</time>
      </trkpt>
      <trkpt lat="48.96226" lon="5.82636">
        <ele>227.0085449</ele>
        <time>2012-08-17T08:31:23Z</time>
      </trkpt>
      <trkpt lat="48.96227" lon="5.82666">
        <ele>228.9311523</ele>
        <time>2012-08-17T08:31:26Z</time>
      </trkpt>
      <trkpt lat="48.96224" lon="5.82684">
        <ele>229.4117432</ele>
        <time>2012-08-17T08:31:28Z</time>
      </trkpt>
      <trkpt lat="48.96207" lon="5.82735">
        <ele>232.2957764</ele>
        <time>2012-08-17T08:31:35Z</time>
      </trkpt>
      <trkpt lat="48.96187" lon="5.82775">
        <ele>233.7376709</ele>
        <time>2012-08-17T08:31:41Z</time>
      </trkpt>
      <trkpt lat="48.96171" lon="5.82807">
        <ele>234.6990967</ele>
        <time>2012-08-17T08:31:46Z</time>
      </trkpt>
      <trkpt lat="48.96165" lon="5.82819">
        <ele>235.6602783</ele>
        <time>2012-08-17T08:31:48Z</time>
      </trkpt>
      <trkpt lat="48.96153" lon="5.82849">
        <ele>235.6602783</ele>
        <time>2012-08-17T08:31:53Z</time>
      </trkpt>
      <trkpt lat="48.96138" lon="5.82897">
        <ele>236.6217041</ele>
        <time>2012-08-17T08:32:00Z</time>
      </trkpt>
      <trkpt lat="48.96122" lon="5.82962">
        <ele>235.6602783</ele>
        <time>2012-08-17T08:32:08Z</time>
      </trkpt>
      <trkpt lat="48.96106" lon="5.83042">
        <ele>235.6602783</ele>
        <time>2012-08-17T08:32:17Z</time>
      </trkpt>
      <trkpt lat="48.96092" lon="5.83118">
        <ele>235.1796875</ele>
        <time>2012-08-17T08:32:25Z</time>
      </trkpt>
      <trkpt lat="48.96077" lon="5.83204">
        <ele>234.6990967</ele>
        <time>2012-08-17T08:32:33Z</time>
      </trkpt>
      <trkpt lat="48.96059" lon="5.83302">
        <ele>234.2183838</ele>
        <time>2012-08-17T08:32:42Z</time>
      </trkpt>
      <trkpt lat="48.96041" lon="5.83399">
        <ele>235.1796875</ele>
        <time>2012-08-17T08:32:51Z</time>
      </trkpt>
      <trkpt lat="48.96034" lon="5.83441">
        <ele>236.6217041</ele>
        <time>2012-08-17T08:32:55Z</time>
      </trkpt>
      <trkpt lat="48.96015" lon="5.83544">
        <ele>237.5828857</ele>
        <time>2012-08-17T08:33:05Z</time>
      </trkpt>
      <trkpt lat="48.96" lon="5.83636">
        <ele>239.0249023</ele>
        <time>2012-08-17T08:33:14Z</time>
      </trkpt>
      <trkpt lat="48.95991" lon="5.83687">
        <ele>239.0249023</ele>
        <time>2012-08-17T08:33:20Z</time>
      </trkpt>
      <trkpt lat="48.95981" lon="5.83741">
        <ele>240.467041</ele>
        <time>2012-08-17T08:33:28Z</time>
      </trkpt>
      <trkpt lat="48.95979" lon="5.83757">
        <ele>240.467041</ele>
        <time>2012-08-17T08:33:31Z</time>
      </trkpt>
      <trkpt lat="48.95993" lon="5.83787">
        <ele>241.9089355</ele>
        <time>2012-08-17T08:33:36Z</time>
      </trkpt>
      <trkpt lat="48.96019" lon="5.83832">
        <ele>242.8702393</ele>
        <time>2012-08-17T08:33:42Z</time>
      </trkpt>
      <trkpt lat="48.96059" lon="5.83887">
        <ele>243.831543</ele>
        <time>2012-08-17T08:33:50Z</time>
      </trkpt>
      <trkpt lat="48.96106" lon="5.83948">
        <ele>243.3508301</ele>
        <time>2012-08-17T08:33:59Z</time>
      </trkpt>
      <trkpt lat="48.96157" lon="5.84011">
        <ele>241.9089355</ele>
        <time>2012-08-17T08:34:08Z</time>
      </trkpt>
      <trkpt lat="48.96217" lon="5.84082">
        <ele>241.9089355</ele>
        <time>2012-08-17T08:34:18Z</time>
      </trkpt>
      <trkpt lat="48.96284" lon="5.84162">
        <ele>242.8702393</ele>
        <time>2012-08-17T08:34:29Z</time>
      </trkpt>
      <trkpt lat="48.96336" lon="5.84223">
        <ele>242.8702393</ele>
        <time>2012-08-17T08:34:38Z</time>
      </trkpt>
      <trkpt lat="48.96378" lon="5.84275">
        <ele>244.7928467</ele>
        <time>2012-08-17T08:34:46Z</time>
      </trkpt>
      <trkpt lat="48.96419" lon="5.84328">
        <ele>246.2348633</ele>
        <time>2012-08-17T08:34:54Z</time>
      </trkpt>
      <trkpt lat="48.96461" lon="5.84383">
        <ele>246.2348633</ele>
        <time>2012-08-17T08:35:02Z</time>
      </trkpt>
      <trkpt lat="48.9651" lon="5.84442">
        <ele>245.2734375</ele>
        <time>2012-08-17T08:35:10Z</time>
      </trkpt>
      <trkpt lat="48.96551" lon="5.84493">
        <ele>242.8702393</ele>
        <time>2012-08-17T08:35:16Z</time>
      </trkpt>
      <trkpt lat="48.96604" lon="5.84559">
        <ele>243.3508301</ele>
        <time>2012-08-17T08:35:24Z</time>
      </trkpt>
      <trkpt lat="48.96651" lon="5.84606">
        <ele>243.3508301</ele>
        <time>2012-08-17T08:35:31Z</time>
      </trkpt>
      <trkpt lat="48.96683" lon="5.84627">
        <ele>245.7541504</ele>
        <time>2012-08-17T08:35:36Z</time>
      </trkpt>
      <trkpt lat="48.96728" lon="5.84648">
        <ele>248.6381836</ele>
        <time>2012-08-17T08:35:44Z</time>
      </trkpt>
      <trkpt lat="48.96774" lon="5.84666">
        <ele>249.5994873</ele>
        <time>2012-08-17T08:35:52Z</time>
      </trkpt>
      <trkpt lat="48.96833" lon="5.84689">
        <ele>250.560791</ele>
        <time>2012-08-17T08:36:02Z</time>
      </trkpt>
      <trkpt lat="48.9688" lon="5.84707">
        <ele>250.0802002</ele>
        <time>2012-08-17T08:36:09Z</time>
      </trkpt>
      <trkpt lat="48.96895" lon="5.84714">
        <ele>249.1187744</ele>
        <time>2012-08-17T08:36:11Z</time>
      </trkpt>
      <trkpt lat="48.9692" lon="5.84724">
        <ele>245.7541504</ele>
        <time>2012-08-17T08:36:14Z</time>
      </trkpt>
      <trkpt lat="48.96929" lon="5.84728">
        <ele>246.2348633</ele>
        <time>2012-08-17T08:36:15Z</time>
      </trkpt>
      <trkpt lat="48.96987" lon="5.84752">
        <ele>243.3508301</ele>
        <time>2012-08-17T08:36:21Z</time>
      </trkpt>
      <trkpt lat="48.96997" lon="5.84757">
        <ele>243.3508301</ele>
        <time>2012-08-17T08:36:22Z</time>
      </trkpt>
      <trkpt lat="48.97048" lon="5.84791">
        <ele>243.831543</ele>
        <time>2012-08-17T08:36:28Z</time>
      </trkpt>
      <trkpt lat="48.97073" lon="5.84811">
        <ele>242.3896484</ele>
        <time>2012-08-17T08:36:31Z</time>
      </trkpt>
      <trkpt lat="48.97112" lon="5.84855">
        <ele>241.4282227</ele>
        <time>2012-08-17T08:36:36Z</time>
      </trkpt>
      <trkpt lat="48.97152" lon="5.84915">
        <ele>240.467041</ele>
        <time>2012-08-17T08:36:42Z</time>
      </trkpt>
      <trkpt lat="48.9719" lon="5.84985">
        <ele>239.9862061</ele>
        <time>2012-08-17T08:36:48Z</time>
      </trkpt>
      <trkpt lat="48.97235" lon="5.85076">
        <ele>240.467041</ele>
        <time>2012-08-17T08:36:56Z</time>
      </trkpt>
      <trkpt lat="48.97273" lon="5.8515">
        <ele>241.4282227</ele>
        <time>2012-08-17T08:37:03Z</time>
      </trkpt>
      <trkpt lat="48.97307" lon="5.85216">
        <ele>240.467041</ele>
        <time>2012-08-17T08:37:10Z</time>
      </trkpt>
      <trkpt lat="48.97316" lon="5.85236">
        <ele>239.0249023</ele>
        <time>2012-08-17T08:37:12Z</time>
      </trkpt>
      <trkpt lat="48.97351" lon="5.85309">
        <ele>239.5054932</ele>
        <time>2012-08-17T08:37:19Z</time>
      </trkpt>
      <trkpt lat="48.97391" lon="5.85375">
        <ele>239.5054932</ele>
        <time>2012-08-17T08:37:26Z</time>
      </trkpt>
      <trkpt lat="48.97403" lon="5.85392">
        <ele>240.467041</ele>
        <time>2012-08-17T08:37:28Z</time>
      </trkpt>
      <trkpt lat="48.9744" lon="5.85442">
        <ele>240.9476318</ele>
        <time>2012-08-17T08:37:35Z</time>
      </trkpt>
      <trkpt lat="48.9748" lon="5.85505">
        <ele>241.9089355</ele>
        <time>2012-08-17T08:37:43Z</time>
      </trkpt>
      <trkpt lat="48.97495" lon="5.85528">
        <ele>243.831543</ele>
        <time>2012-08-17T08:37:46Z</time>
      </trkpt>
      <trkpt lat="48.97522" lon="5.85574">
        <ele>243.831543</ele>
        <time>2012-08-17T08:37:52Z</time>
      </trkpt>
      <trkpt lat="48.97538" lon="5.85603">
        <ele>243.831543</ele>
        <time>2012-08-17T08:37:56Z</time>
      </trkpt>
      <trkpt lat="48.97552" lon="5.85621">
        <ele>243.3508301</ele>
        <time>2012-08-17T08:37:59Z</time>
      </trkpt>
      <trkpt lat="48.97577" lon="5.85659">
        <ele>243.831543</ele>
        <time>2012-08-17T08:38:04Z</time>
      </trkpt>
      <trkpt lat="48.97605" lon="5.85736">
        <ele>244.7928467</ele>
        <time>2012-08-17T08:38:12Z</time>
      </trkpt>
      <trkpt lat="48.97626" lon="5.85805">
        <ele>244.7928467</ele>
        <time>2012-08-17T08:38:19Z</time>
      </trkpt>
      <trkpt lat="48.97653" lon="5.85842">
        <ele>245.2734375</ele>
        <time>2012-08-17T08:38:24Z</time>
      </trkpt>
      <trkpt lat="48.97704" lon="5.85875">
        <ele>245.7541504</ele>
        <time>2012-08-17T08:38:32Z</time>
      </trkpt>
      <trkpt lat="48.97735" lon="5.85904">
        <ele>248.6381836</ele>
        <time>2012-08-17T08:38:38Z</time>
      </trkpt>
      <trkpt lat="48.97775" lon="5.85953">
        <ele>250.560791</ele>
        <time>2012-08-17T08:38:46Z</time>
      </trkpt>
      <trkpt lat="48.9781" lon="5.8601">
        <ele>252.0028076</ele>
        <time>2012-08-17T08:38:54Z</time>
      </trkpt>
      <trkpt lat="48.97845" lon="5.8607">
        <ele>252.9639893</ele>
        <time>2012-08-17T08:39:02Z</time>
      </trkpt>
      <trkpt lat="48.97881" lon="5.86129">
        <ele>253.4447021</ele>
        <time>2012-08-17T08:39:10Z</time>
      </trkpt>
      <trkpt lat="48.97919" lon="5.8619">
        <ele>253.925415</ele>
        <time>2012-08-17T08:39:18Z</time>
      </trkpt>
      <trkpt lat="48.97952" lon="5.86229">
        <ele>253.925415</ele>
        <time>2012-08-17T08:39:24Z</time>
      </trkpt>
      <trkpt lat="48.97992" lon="5.86254">
        <ele>254.8865967</ele>
        <time>2012-08-17T08:39:30Z</time>
      </trkpt>
      <trkpt lat="48.98038" lon="5.86268">
        <ele>252.9639893</ele>
        <time>2012-08-17T08:39:36Z</time>
      </trkpt>
      <trkpt lat="48.98053" lon="5.86271">
        <ele>252.4833984</ele>
        <time>2012-08-17T08:39:38Z</time>
      </trkpt>
      <trkpt lat="48.98089" lon="5.86298">
        <ele>251.5220947</ele>
        <time>2012-08-17T08:39:43Z</time>
      </trkpt>
      <trkpt lat="48.98094" lon="5.86306">
        <ele>251.5220947</ele>
        <time>2012-08-17T08:39:44Z</time>
      </trkpt>
      <trkpt lat="48.98151" lon="5.86399">
        <ele>251.0413818</ele>
        <time>2012-08-17T08:39:54Z</time>
      </trkpt>
      <trkpt lat="48.98183" lon="5.86455">
        <ele>249.5994873</ele>
        <time>2012-08-17T08:40:00Z</time>
      </trkpt>
      <trkpt lat="48.98207" lon="5.86494">
        <ele>247.1960449</ele>
        <time>2012-08-17T08:40:04Z</time>
      </trkpt>
      <trkpt lat="48.9822" lon="5.86515">
        <ele>246.2348633</ele>
        <time>2012-08-17T08:40:06Z</time>
      </trkpt>
      <trkpt lat="48.98242" lon="5.86543">
        <ele>243.831543</ele>
        <time>2012-08-17T08:40:09Z</time>
      </trkpt>
      <trkpt lat="48.98259" lon="5.86561">
        <ele>243.3508301</ele>
        <time>2012-08-17T08:40:11Z</time>
      </trkpt>
      <trkpt lat="48.98296" lon="5.86592">
        <ele>239.9862061</ele>
        <time>2012-08-17T08:40:15Z</time>
      </trkpt>
      <trkpt lat="48.98337" lon="5.86629">
        <ele>237.1022949</ele>
        <time>2012-08-17T08:40:19Z</time>
      </trkpt>
      <trkpt lat="48.98381" lon="5.86672">
        <ele>233.2570801</ele>
        <time>2012-08-17T08:40:23Z</time>
      </trkpt>
      <trkpt lat="48.98392" lon="5.86684">
        <ele>233.7376709</ele>
        <time>2012-08-17T08:40:24Z</time>
      </trkpt>
      <trkpt lat="48.98422" lon="5.86723">
        <ele>231.3343506</ele>
        <time>2012-08-17T08:40:27Z</time>
      </trkpt>
      <trkpt lat="48.98447" lon="5.86794">
        <ele>227.0085449</ele>
        <time>2012-08-17T08:40:31Z</time>
      </trkpt>
      <trkpt lat="48.98452" lon="5.86813">
        <ele>226.527832</ele>
        <time>2012-08-17T08:40:32Z</time>
      </trkpt>
      <trkpt lat="48.98456" lon="5.86833">
        <ele>226.527832</ele>
        <time>2012-08-17T08:40:33Z</time>
      </trkpt>
      <trkpt lat="48.98465" lon="5.86888">
        <ele>223.163208</ele>
        <time>2012-08-17T08:40:36Z</time>
      </trkpt>
      <trkpt lat="48.98468" lon="5.86905">
        <ele>222.6824951</ele>
        <time>2012-08-17T08:40:37Z</time>
      </trkpt>
      <trkpt lat="48.98475" lon="5.86935">
        <ele>221.7211914</ele>
        <time>2012-08-17T08:40:39Z</time>
      </trkpt>
      <trkpt lat="48.98496" lon="5.86969">
        <ele>218.8372803</ele>
        <time>2012-08-17T08:40:42Z</time>
      </trkpt>
      <trkpt lat="48.9852" lon="5.86977">
        <ele>217.3953857</ele>
        <time>2012-08-17T08:40:44Z</time>
      </trkpt>
      <trkpt lat="48.98543" lon="5.86976">
        <ele>215.9532471</ele>
        <time>2012-08-17T08:40:46Z</time>
      </trkpt>
      <trkpt lat="48.98592" lon="5.86963">
        <ele>213.5500488</ele>
        <time>2012-08-17T08:40:50Z</time>
      </trkpt>
      <trkpt lat="48.98604" lon="5.86959">
        <ele>213.0693359</ele>
        <time>2012-08-17T08:40:51Z</time>
      </trkpt>
      <trkpt lat="48.98651" lon="5.86963">
        <ele>213.0693359</ele>
        <time>2012-08-17T08:40:55Z</time>
      </trkpt>
      <trkpt lat="48.98682" lon="5.86985">
        <ele>213.0693359</ele>
        <time>2012-08-17T08:40:58Z</time>
      </trkpt>
      <trkpt lat="48.98697" lon="5.87005">
        <ele>214.0306396</ele>
        <time>2012-08-17T08:41:00Z</time>
      </trkpt>
      <trkpt lat="48.98703" lon="5.87015">
        <ele>214.5112305</ele>
        <time>2012-08-17T08:41:01Z</time>
      </trkpt>
      <trkpt lat="48.98726" lon="5.87052">
        <ele>217.3953857</ele>
        <time>2012-08-17T08:41:05Z</time>
      </trkpt>
      <trkpt lat="48.98731" lon="5.87059">
        <ele>217.8759766</ele>
        <time>2012-08-17T08:41:06Z</time>
      </trkpt>
      <trkpt lat="48.98746" lon="5.87082">
        <ele>218.8372803</ele>
        <time>2012-08-17T08:41:10Z</time>
      </trkpt>
      <trkpt lat="48.98773" lon="5.87129">
        <ele>220.7598877</ele>
        <time>2012-08-17T08:41:18Z</time>
      </trkpt>
      <trkpt lat="48.98776" lon="5.87134">
        <ele>221.2406006</ele>
        <time>2012-08-17T08:41:19Z</time>
      </trkpt>
      <trkpt lat="48.98804" lon="5.87171">
        <ele>224.1245117</ele>
        <time>2012-08-17T08:41:27Z</time>
      </trkpt>
      <trkpt lat="48.98807" lon="5.87177">
        <ele>224.1245117</ele>
        <time>2012-08-17T08:41:28Z</time>
      </trkpt>
      <trkpt lat="48.98817" lon="5.87193">
        <ele>225.5665283</ele>
        <time>2012-08-17T08:41:31Z</time>
      </trkpt>
      <trkpt lat="48.98831" lon="5.8721">
        <ele>225.5665283</ele>
        <time>2012-08-17T08:41:35Z</time>
      </trkpt>
      <trkpt lat="48.98843" lon="5.87231">
        <ele>226.527832</ele>
        <time>2012-08-17T08:41:39Z</time>
      </trkpt>
      <trkpt lat="48.98854" lon="5.87244">
        <ele>227.9697266</ele>
        <time>2012-08-17T08:41:42Z</time>
      </trkpt>
      <trkpt lat="48.9888" lon="5.87279">
        <ele>229.892334</ele>
        <time>2012-08-17T08:41:49Z</time>
      </trkpt>
      <trkpt lat="48.98896" lon="5.87306">
        <ele>231.8149414</ele>
        <time>2012-08-17T08:41:55Z</time>
      </trkpt>
      <trkpt lat="48.98902" lon="5.87313">
        <ele>232.7764893</ele>
        <time>2012-08-17T08:41:57Z</time>
      </trkpt>
      <trkpt lat="48.98931" lon="5.87344">
        <ele>234.6990967</ele>
        <time>2012-08-17T08:42:04Z</time>
      </trkpt>
      <trkpt lat="48.98945" lon="5.87362">
        <ele>234.6990967</ele>
        <time>2012-08-17T08:42:08Z</time>
      </trkpt>
      <trkpt lat="48.9897" lon="5.87384">
        <ele>236.1409912</ele>
        <time>2012-08-17T08:42:14Z</time>
      </trkpt>
      <trkpt lat="48.98991" lon="5.87399">
        <ele>236.1409912</ele>
        <time>2012-08-17T08:42:18Z</time>
      </trkpt>
      <trkpt lat="48.99009" lon="5.87406">
        <ele>237.1022949</ele>
        <time>2012-08-17T08:42:21Z</time>
      </trkpt>
      <trkpt lat="48.99041" lon="5.87422">
        <ele>239.0249023</ele>
        <time>2012-08-17T08:42:27Z</time>
      </trkpt>
      <trkpt lat="48.99045" lon="5.87425">
        <ele>239.5054932</ele>
        <time>2012-08-17T08:42:28Z</time>
      </trkpt>
      <trkpt lat="48.99086" lon="5.87433">
        <ele>238.5443115</ele>
        <time>2012-08-17T08:42:35Z</time>
      </trkpt>
      <trkpt lat="48.9912" lon="5.87436">
        <ele>240.467041</ele>
        <time>2012-08-17T08:42:41Z</time>
      </trkpt>
      <trkpt lat="48.99167" lon="5.87437">
        <ele>240.467041</ele>
        <time>2012-08-17T08:42:49Z</time>
      </trkpt>
      <trkpt lat="48.99199" lon="5.87444">
        <ele>241.4282227</ele>
        <time>2012-08-17T08:42:54Z</time>
      </trkpt>
      <trkpt lat="48.99205" lon="5.87446">
        <ele>241.9089355</ele>
        <time>2012-08-17T08:42:55Z</time>
      </trkpt>
      <trkpt lat="48.99247" lon="5.87472">
        <ele>243.3508301</ele>
        <time>2012-08-17T08:43:03Z</time>
      </trkpt>
      <trkpt lat="48.9929" lon="5.87497">
        <ele>244.7928467</ele>
        <time>2012-08-17T08:43:11Z</time>
      </trkpt>
      <trkpt lat="48.99329" lon="5.87526">
        <ele>246.7154541</ele>
        <time>2012-08-17T08:43:19Z</time>
      </trkpt>
      <trkpt lat="48.9937" lon="5.87545">
        <ele>247.6767578</ele>
        <time>2012-08-17T08:43:27Z</time>
      </trkpt>
      <trkpt lat="48.99391" lon="5.87549">
        <ele>249.1187744</ele>
        <time>2012-08-17T08:43:31Z</time>
      </trkpt>
      <trkpt lat="48.9944" lon="5.87563">
        <ele>251.5220947</ele>
        <time>2012-08-17T08:43:40Z</time>
      </trkpt>
      <trkpt lat="48.99472" lon="5.87576">
        <ele>253.4447021</ele>
        <time>2012-08-17T08:43:47Z</time>
      </trkpt>
      <trkpt lat="48.99507" lon="5.87591">
        <ele>254.8865967</ele>
        <time>2012-08-17T08:43:55Z</time>
      </trkpt>
      <trkpt lat="48.99541" lon="5.87607">
        <ele>255.8480225</ele>
        <time>2012-08-17T08:44:02Z</time>
      </trkpt>
      <trkpt lat="48.99577" lon="5.87622">
        <ele>257.770752</ele>
        <time>2012-08-17T08:44:09Z</time>
      </trkpt>
      <trkpt lat="48.99605" lon="5.87628">
        <ele>259.2126465</ele>
        <time>2012-08-17T08:44:15Z</time>
      </trkpt>
      <trkpt lat="48.9964" lon="5.87635">
        <ele>261.6159668</ele>
        <time>2012-08-17T08:44:23Z</time>
      </trkpt>
      <trkpt lat="48.99684" lon="5.87649">
        <ele>261.1352539</ele>
        <time>2012-08-17T08:44:31Z</time>
      </trkpt>
      <trkpt lat="48.99733" lon="5.87678">
        <ele>259.6933594</ele>
        <time>2012-08-17T08:44:39Z</time>
      </trkpt>
      <trkpt lat="48.9977" lon="5.87705">
        <ele>258.2513428</ele>
        <time>2012-08-17T08:44:44Z</time>
      </trkpt>
      <trkpt lat="48.99778" lon="5.87712">
        <ele>257.770752</ele>
        <time>2012-08-17T08:44:45Z</time>
      </trkpt>
      <trkpt lat="48.99826" lon="5.87764">
        <ele>253.925415</ele>
        <time>2012-08-17T08:44:51Z</time>
      </trkpt>
      <trkpt lat="48.99852" lon="5.87795">
        <ele>252.4833984</ele>
        <time>2012-08-17T08:44:54Z</time>
      </trkpt>
      <trkpt lat="48.99879" lon="5.8783">
        <ele>249.5994873</ele>
        <time>2012-08-17T08:44:57Z</time>
      </trkpt>
      <trkpt lat="48.99933" lon="5.87908">
        <ele>246.7154541</ele>
        <time>2012-08-17T08:45:03Z</time>
      </trkpt>
      <trkpt lat="48.99969" lon="5.87948">
        <ele>242.8702393</ele>
        <time>2012-08-17T08:45:07Z</time>
      </trkpt>
      <trkpt lat="48.99979" lon="5.87955">
        <ele>241.9089355</ele>
        <time>2012-08-17T08:45:08Z</time>
      </trkpt>
      <trkpt lat="49" lon="5.87964">
        <ele>239.9862061</ele>
        <time>2012-08-17T08:45:10Z</time>
      </trkpt>
      <trkpt lat="49.0004" lon="5.87999">
        <ele>238.0635986</ele>
        <time>2012-08-17T08:45:14Z</time>
      </trkpt>
      <trkpt lat="49.00047" lon="5.8801">
        <ele>238.0635986</ele>
        <time>2012-08-17T08:45:15Z</time>
      </trkpt>
      <trkpt lat="49.00086" lon="5.88074">
        <ele>242.3896484</ele>
        <time>2012-08-17T08:45:21Z</time>
      </trkpt>
      <trkpt lat="49.00091" lon="5.88083">
        <ele>241.9089355</ele>
        <time>2012-08-17T08:45:22Z</time>
      </trkpt>
      <trkpt lat="49.0011" lon="5.88114">
        <ele>242.3896484</ele>
        <time>2012-08-17T08:45:26Z</time>
      </trkpt>
      <trkpt lat="49.00122" lon="5.88127">
        <ele>241.9089355</ele>
        <time>2012-08-17T08:45:28Z</time>
      </trkpt>
      <trkpt lat="49.0014" lon="5.88155">
        <ele>239.9862061</ele>
        <time>2012-08-17T08:45:31Z</time>
      </trkpt>
      <trkpt lat="49.00168" lon="5.88215">
        <ele>239.0249023</ele>
        <time>2012-08-17T08:45:36Z</time>
      </trkpt>
      <trkpt lat="49.00192" lon="5.88262">
        <ele>240.467041</ele>
        <time>2012-08-17T08:45:41Z</time>
      </trkpt>
      <trkpt lat="49.00223" lon="5.88319">
        <ele>242.3896484</ele>
        <time>2012-08-17T08:45:48Z</time>
      </trkpt>
      <trkpt lat="49.00262" lon="5.88382">
        <ele>243.831543</ele>
        <time>2012-08-17T08:45:56Z</time>
      </trkpt>
      <trkpt lat="49.00309" lon="5.88421">
        <ele>243.3508301</ele>
        <time>2012-08-17T08:46:03Z</time>
      </trkpt>
      <trkpt lat="49.0036" lon="5.88461">
        <ele>241.9089355</ele>
        <time>2012-08-17T08:46:10Z</time>
      </trkpt>
      <trkpt lat="49.00375" lon="5.88475">
        <ele>240.467041</ele>
        <time>2012-08-17T08:46:12Z</time>
      </trkpt>
      <trkpt lat="49.00424" lon="5.88529">
        <ele>240.9476318</ele>
        <time>2012-08-17T08:46:19Z</time>
      </trkpt>
      <trkpt lat="49.00466" lon="5.88578">
        <ele>242.3896484</ele>
        <time>2012-08-17T08:46:26Z</time>
      </trkpt>
      <trkpt lat="49.00503" lon="5.88623">
        <ele>243.831543</ele>
        <time>2012-08-17T08:46:33Z</time>
      </trkpt>
      <trkpt lat="49.00543" lon="5.88679">
        <ele>243.831543</ele>
        <time>2012-08-17T08:46:41Z</time>
      </trkpt>
      <trkpt lat="49.00573" lon="5.88732">
        <ele>242.8702393</ele>
        <time>2012-08-17T08:46:47Z</time>
      </trkpt>
      <trkpt lat="49.00611" lon="5.88791">
        <ele>242.8702393</ele>
        <time>2012-08-17T08:46:54Z</time>
      </trkpt>
      <trkpt lat="49.00642" lon="5.88835">
        <ele>243.831543</ele>
        <time>2012-08-17T08:47:00Z</time>
      </trkpt>
      <trkpt lat="49.00694" lon="5.88905">
        <ele>243.831543</ele>
        <time>2012-08-17T08:47:09Z</time>
      </trkpt>
      <trkpt lat="49.00744" lon="5.88981">
        <ele>243.831543</ele>
        <time>2012-08-17T08:47:18Z</time>
      </trkpt>
      <trkpt lat="49.00782" lon="5.89046">
        <ele>243.831543</ele>
        <time>2012-08-17T08:47:26Z</time>
      </trkpt>
      <trkpt lat="49.00806" lon="5.89083">
        <ele>243.3508301</ele>
        <time>2012-08-17T08:47:32Z</time>
      </trkpt>
      <trkpt lat="49.00822" lon="5.8911">
        <ele>243.3508301</ele>
        <time>2012-08-17T08:47:38Z</time>
      </trkpt>
      <trkpt lat="49.00832" lon="5.89126">
        <ele>243.831543</ele>
        <time>2012-08-17T08:47:43Z</time>
      </trkpt>
      <trkpt lat="49.00843" lon="5.89146">
        <ele>243.831543</ele>
        <time>2012-08-17T08:47:49Z</time>
      </trkpt>
      <trkpt lat="49.00857" lon="5.89176">
        <ele>243.831543</ele>
        <time>2012-08-17T08:47:57Z</time>
      </trkpt>
      <trkpt lat="49.00865" lon="5.89192">
        <ele>243.831543</ele>
        <time>2012-08-17T08:48:03Z</time>
      </trkpt>
      <trkpt lat="49.00865" lon="5.89193">
        <ele>243.831543</ele>
        <time>2012-08-17T08:48:05Z</time>
      </trkpt>
      <trkpt lat="49.00865" lon="5.89192">
        <ele>243.3508301</ele>
        <time>2012-08-17T08:48:08Z</time>
      </trkpt>
      <trkpt lat="49.00866" lon="5.89191">
        <ele>243.3508301</ele>
        <time>2012-08-17T08:48:09Z</time>
      </trkpt>
      <trkpt lat="49.00866" lon="5.89191">
        <ele>243.3508301</ele>
        <time>2012-08-17T08:48:10Z</time>
      </trkpt>
      <trkpt lat="49.00866" lon="5.8919">
        <ele>242.8702393</ele>
        <time>2012-08-17T08:48:50Z</time>
      </trkpt>
      <trkpt lat="49.00867" lon="5.8919">
        <ele>242.8702393</ele>
        <time>2012-08-17T08:48:51Z</time>
      </trkpt>
      <trkpt lat="49.00867" lon="5.8919">
        <ele>243.3508301</ele>
        <time>2012-08-17T08:49:11Z</time>
      </trkpt>
      <trkpt lat="49.00868" lon="5.89191">
        <ele>244.3122559</ele>
        <time>2012-08-17T08:49:12Z</time>
      </trkpt>
      <trkpt lat="49.00881" lon="5.89202">
        <ele>243.3508301</ele>
        <time>2012-08-17T08:49:18Z</time>
      </trkpt>
      <trkpt lat="49.00896" lon="5.89217">
        <ele>242.8702393</ele>
        <time>2012-08-17T08:49:24Z</time>
      </trkpt>
      <trkpt lat="49.00921" lon="5.89242">
        <ele>243.3508301</ele>
        <time>2012-08-17T08:49:32Z</time>
      </trkpt>
      <trkpt lat="49.00939" lon="5.89268">
        <ele>243.831543</ele>
        <time>2012-08-17T08:49:38Z</time>
      </trkpt>
      <trkpt lat="49.00959" lon="5.89307">
        <ele>245.2734375</ele>
        <time>2012-08-17T08:49:45Z</time>
      </trkpt>
      <trkpt lat="49.00986" lon="5.89352">
        <ele>246.7154541</ele>
        <time>2012-08-17T08:49:53Z</time>
      </trkpt>
      <trkpt lat="49.01017" lon="5.89397">
        <ele>247.1960449</ele>
        <time>2012-08-17T08:50:02Z</time>
      </trkpt>
      <trkpt lat="49.01043" lon="5.89436">
        <ele>246.7154541</ele>
        <time>2012-08-17T08:50:10Z</time>
      </trkpt>
      <trkpt lat="49.01066" lon="5.89487">
        <ele>247.6767578</ele>
        <time>2012-08-17T08:50:18Z</time>
      </trkpt>
      <trkpt lat="49.01082" lon="5.89533">
        <ele>251.0413818</ele>
        <time>2012-08-17T08:50:25Z</time>
      </trkpt>
      <trkpt lat="49.01084" lon="5.89539">
        <ele>251.0413818</ele>
        <time>2012-08-17T08:50:26Z</time>
      </trkpt>
      <trkpt lat="49.011" lon="5.89596">
        <ele>251.5220947</ele>
        <time>2012-08-17T08:50:35Z</time>
      </trkpt>
      <trkpt lat="49.01122" lon="5.89639">
        <ele>252.0028076</ele>
        <time>2012-08-17T08:50:42Z</time>
      </trkpt>
      <trkpt lat="49.01155" lon="5.89691">
        <ele>252.9639893</ele>
        <time>2012-08-17T08:50:51Z</time>
      </trkpt>
      <trkpt lat="49.01197" lon="5.89757">
        <ele>254.4060059</ele>
        <time>2012-08-17T08:51:02Z</time>
      </trkpt>
      <trkpt lat="49.01238" lon="5.89821">
        <ele>254.8865967</ele>
        <time>2012-08-17T08:51:12Z</time>
      </trkpt>
      <trkpt lat="49.01264" lon="5.89861">
        <ele>254.4060059</ele>
        <time>2012-08-17T08:51:18Z</time>
      </trkpt>
      <trkpt lat="49.01289" lon="5.89892">
        <ele>254.4060059</ele>
        <time>2012-08-17T08:51:23Z</time>
      </trkpt>
      <trkpt lat="49.01332" lon="5.89919">
        <ele>252.9639893</ele>
        <time>2012-08-17T08:51:30Z</time>
      </trkpt>
      <trkpt lat="49.01377" lon="5.89944">
        <ele>250.0802002</ele>
        <time>2012-08-17T08:51:36Z</time>
      </trkpt>
      <trkpt lat="49.01385" lon="5.89948">
        <ele>249.5994873</ele>
        <time>2012-08-17T08:51:37Z</time>
      </trkpt>
      <trkpt lat="49.0141" lon="5.8996">
        <ele>248.6381836</ele>
        <time>2012-08-17T08:51:40Z</time>
      </trkpt>
      <trkpt lat="49.01468" lon="5.89974">
        <ele>247.1960449</ele>
        <time>2012-08-17T08:51:46Z</time>
      </trkpt>
      <trkpt lat="49.01499" lon="5.89984">
        <ele>245.7541504</ele>
        <time>2012-08-17T08:51:49Z</time>
      </trkpt>
      <trkpt lat="49.01533" lon="5.90012">
        <ele>245.2734375</ele>
        <time>2012-08-17T08:51:53Z</time>
      </trkpt>
      <trkpt lat="49.01539" lon="5.90022">
        <ele>245.7541504</ele>
        <time>2012-08-17T08:51:54Z</time>
      </trkpt>
      <trkpt lat="49.01581" lon="5.90083">
        <ele>248.1575928</ele>
        <time>2012-08-17T08:52:01Z</time>
      </trkpt>
      <trkpt lat="49.01601" lon="5.90113">
        <ele>247.6767578</ele>
        <time>2012-08-17T08:52:05Z</time>
      </trkpt>
      <trkpt lat="49.01639" lon="5.90158">
        <ele>247.6767578</ele>
        <time>2012-08-17T08:52:12Z</time>
      </trkpt>
      <trkpt lat="49.01681" lon="5.90196">
        <ele>247.1960449</ele>
        <time>2012-08-17T08:52:19Z</time>
      </trkpt>
      <trkpt lat="49.01713" lon="5.90241">
        <ele>248.1575928</ele>
        <time>2012-08-17T08:52:25Z</time>
      </trkpt>
      <trkpt lat="49.01717" lon="5.9025">
        <ele>248.1575928</ele>
        <time>2012-08-17T08:52:26Z</time>
      </trkpt>
      <trkpt lat="49.01761" lon="5.90344">
        <ele>247.6767578</ele>
        <time>2012-08-17T08:52:36Z</time>
      </trkpt>
      <trkpt lat="49.01804" lon="5.90438">
        <ele>248.1575928</ele>
        <time>2012-08-17T08:52:46Z</time>
      </trkpt>
      <trkpt lat="49.01849" lon="5.90537">
        <ele>249.1187744</ele>
        <time>2012-08-17T08:52:57Z</time>
      </trkpt>
      <trkpt lat="49.01893" lon="5.90634">
        <ele>250.0802002</ele>
        <time>2012-08-17T08:53:08Z</time>
      </trkpt>
      <trkpt lat="49.01933" lon="5.90717">
        <ele>250.0802002</ele>
        <time>2012-08-17T08:53:17Z</time>
      </trkpt>
      <trkpt lat="49.01976" lon="5.90811">
        <ele>249.5994873</ele>
        <time>2012-08-17T08:53:27Z</time>
      </trkpt>
      <trkpt lat="49.0201" lon="5.90885">
        <ele>249.1187744</ele>
        <time>2012-08-17T08:53:35Z</time>
      </trkpt>
      <trkpt lat="49.0206" lon="5.90989">
        <ele>247.6767578</ele>
        <time>2012-08-17T08:53:46Z</time>
      </trkpt>
      <trkpt lat="49.02105" lon="5.91086">
        <ele>244.7928467</ele>
        <time>2012-08-17T08:53:56Z</time>
      </trkpt>
      <trkpt lat="49.02124" lon="5.91127">
        <ele>242.8702393</ele>
        <time>2012-08-17T08:54:00Z</time>
      </trkpt>
      <trkpt lat="49.02137" lon="5.91156">
        <ele>240.9476318</ele>
        <time>2012-08-17T08:54:03Z</time>
      </trkpt>
      <trkpt lat="49.02159" lon="5.91209">
        <ele>239.9862061</ele>
        <time>2012-08-17T08:54:09Z</time>
      </trkpt>
      <trkpt lat="49.02166" lon="5.91226">
        <ele>238.5443115</ele>
        <time>2012-08-17T08:54:12Z</time>
      </trkpt>
      <trkpt lat="49.02171" lon="5.91236">
        <ele>236.1409912</ele>
        <time>2012-08-17T08:54:16Z</time>
      </trkpt>
      <trkpt lat="49.02172" lon="5.91236">
        <ele>236.6217041</ele>
        <time>2012-08-17T08:54:18Z</time>
      </trkpt>
      <trkpt lat="49.02173" lon="5.91234">
        <ele>236.6217041</ele>
        <time>2012-08-17T08:54:32Z</time>
      </trkpt>
      <trkpt lat="49.0218" lon="5.91233">
        <ele>237.1022949</ele>
        <time>2012-08-17T08:54:36Z</time>
      </trkpt>
      <trkpt lat="49.02198" lon="5.91217">
        <ele>238.0635986</ele>
        <time>2012-08-17T08:54:43Z</time>
      </trkpt>
      <trkpt lat="49.02217" lon="5.91191">
        <ele>238.5443115</ele>
        <time>2012-08-17T08:54:49Z</time>
      </trkpt>
      <trkpt lat="49.02241" lon="5.9115">
        <ele>239.5054932</ele>
        <time>2012-08-17T08:54:56Z</time>
      </trkpt>
      <trkpt lat="49.0227" lon="5.91082">
        <ele>239.9862061</ele>
        <time>2012-08-17T08:55:05Z</time>
      </trkpt>
      <trkpt lat="49.02304" lon="5.91006">
        <ele>240.467041</ele>
        <time>2012-08-17T08:55:15Z</time>
      </trkpt>
      <trkpt lat="49.02334" lon="5.90934">
        <ele>241.4282227</ele>
        <time>2012-08-17T08:55:24Z</time>
      </trkpt>
      <trkpt lat="49.02373" lon="5.90844">
        <ele>241.4282227</ele>
        <time>2012-08-17T08:55:35Z</time>
      </trkpt>
      <trkpt lat="49.02409" lon="5.9077">
        <ele>241.9089355</ele>
        <time>2012-08-17T08:55:44Z</time>
      </trkpt>
      <trkpt lat="49.02443" lon="5.90741">
        <ele>243.3508301</ele>
        <time>2012-08-17T08:55:50Z</time>
      </trkpt>
      <trkpt lat="49.02477" lon="5.90735">
        <ele>243.831543</ele>
        <time>2012-08-17T08:55:55Z</time>
      </trkpt>
      <trkpt lat="49.02491" lon="5.90738">
        <ele>243.831543</ele>
        <time>2012-08-17T08:55:57Z</time>
      </trkpt>
      <trkpt lat="49.02553" lon="5.90758">
        <ele>246.2348633</ele>
        <time>2012-08-17T08:56:07Z</time>
      </trkpt>
      <trkpt lat="49.02592" lon="5.90771">
        <ele>247.6767578</ele>
        <time>2012-08-17T08:56:14Z</time>
      </trkpt>
      <trkpt lat="49.02632" lon="5.90784">
        <ele>249.5994873</ele>
        <time>2012-08-17T08:56:21Z</time>
      </trkpt>
      <trkpt lat="49.02683" lon="5.908">
        <ele>251.0413818</ele>
        <time>2012-08-17T08:56:30Z</time>
      </trkpt>
      <trkpt lat="49.02733" lon="5.90816">
        <ele>253.4447021</ele>
        <time>2012-08-17T08:56:39Z</time>
      </trkpt>
      <trkpt lat="49.02771" lon="5.90818">
        <ele>254.4060059</ele>
        <time>2012-08-17T08:56:46Z</time>
      </trkpt>
      <trkpt lat="49.02788" lon="5.90813">
        <ele>254.4060059</ele>
        <time>2012-08-17T08:56:49Z</time>
      </trkpt>
      <trkpt lat="49.02817" lon="5.90787">
        <ele>254.4060059</ele>
        <time>2012-08-17T08:56:55Z</time>
      </trkpt>
      <trkpt lat="49.0284" lon="5.90743">
        <ele>254.4060059</ele>
        <time>2012-08-17T08:57:01Z</time>
      </trkpt>
      <trkpt lat="49.0286" lon="5.90662">
        <ele>253.4447021</ele>
        <time>2012-08-17T08:57:09Z</time>
      </trkpt>
      <trkpt lat="49.02879" lon="5.90585">
        <ele>252.9639893</ele>
        <time>2012-08-17T08:57:16Z</time>
      </trkpt>
      <trkpt lat="49.02895" lon="5.90527">
        <ele>252.0028076</ele>
        <time>2012-08-17T08:57:21Z</time>
      </trkpt>
      <trkpt lat="49.02918" lon="5.90492">
        <ele>252.4833984</ele>
        <time>2012-08-17T08:57:25Z</time>
      </trkpt>
      <trkpt lat="49.02926" lon="5.90488">
        <ele>252.4833984</ele>
        <time>2012-08-17T08:57:26Z</time>
      </trkpt>
      <trkpt lat="49.02988" lon="5.90464">
        <ele>250.0802002</ele>
        <time>2012-08-17T08:57:33Z</time>
      </trkpt>
      <trkpt lat="49.03023" lon="5.90449">
        <ele>249.5994873</ele>
        <time>2012-08-17T08:57:37Z</time>
      </trkpt>
      <trkpt lat="49.03051" lon="5.90414">
        <ele>248.1575928</ele>
        <time>2012-08-17T08:57:41Z</time>
      </trkpt>
      <trkpt lat="49.0306" lon="5.90374">
        <ele>247.6767578</ele>
        <time>2012-08-17T08:57:44Z</time>
      </trkpt>
      <trkpt lat="49.03059" lon="5.90344">
        <ele>246.7154541</ele>
        <time>2012-08-17T08:57:46Z</time>
      </trkpt>
      <trkpt lat="49.03056" lon="5.90299">
        <ele>246.2348633</ele>
        <time>2012-08-17T08:57:49Z</time>
      </trkpt>
      <trkpt lat="49.03069" lon="5.90243">
        <ele>244.3122559</ele>
        <time>2012-08-17T08:57:53Z</time>
      </trkpt>
      <trkpt lat="49.03097" lon="5.90225">
        <ele>244.3122559</ele>
        <time>2012-08-17T08:57:56Z</time>
      </trkpt>
      <trkpt lat="49.03125" lon="5.90232">
        <ele>244.7928467</ele>
        <time>2012-08-17T08:57:59Z</time>
      </trkpt>
      <trkpt lat="49.03139" lon="5.90246">
        <ele>245.7541504</ele>
        <time>2012-08-17T08:58:01Z</time>
      </trkpt>
      <trkpt lat="49.03172" lon="5.90286">
        <ele>246.7154541</ele>
        <time>2012-08-17T08:58:07Z</time>
      </trkpt>
      <trkpt lat="49.032" lon="5.90293">
        <ele>247.6767578</ele>
        <time>2012-08-17T08:58:11Z</time>
      </trkpt>
      <trkpt lat="49.03223" lon="5.90282">
        <ele>247.6767578</ele>
        <time>2012-08-17T08:58:15Z</time>
      </trkpt>
      <trkpt lat="49.03248" lon="5.90255">
        <ele>247.6767578</ele>
        <time>2012-08-17T08:58:19Z</time>
      </trkpt>
      <trkpt lat="49.03257" lon="5.90235">
        <ele>248.1575928</ele>
        <time>2012-08-17T08:58:21Z</time>
      </trkpt>
      <trkpt lat="49.0329" lon="5.90135">
        <ele>247.1960449</ele>
        <time>2012-08-17T08:58:30Z</time>
      </trkpt>
      <trkpt lat="49.03315" lon="5.90057">
        <ele>246.7154541</ele>
        <time>2012-08-17T08:58:37Z</time>
      </trkpt>
      <trkpt lat="49.03342" lon="5.90023">
        <ele>246.2348633</ele>
        <time>2012-08-17T08:58:41Z</time>
      </trkpt>
      <trkpt lat="49.03369" lon="5.90019">
        <ele>246.2348633</ele>
        <time>2012-08-17T08:58:44Z</time>
      </trkpt>
      <trkpt lat="49.03394" lon="5.90033">
        <ele>245.2734375</ele>
        <time>2012-08-17T08:58:47Z</time>
      </trkpt>
      <trkpt lat="49.03454" lon="5.90087">
        <ele>246.2348633</ele>
        <time>2012-08-17T08:58:55Z</time>
      </trkpt>
      <trkpt lat="49.03462" lon="5.90092">
        <ele>246.2348633</ele>
        <time>2012-08-17T08:58:56Z</time>
      </trkpt>
      <trkpt lat="49.03498" lon="5.90097">
        <ele>245.7541504</ele>
        <time>2012-08-17T08:59:00Z</time>
      </trkpt>
      <trkpt lat="49.03508" lon="5.90094">
        <ele>246.2348633</ele>
        <time>2012-08-17T08:59:01Z</time>
      </trkpt>
      <trkpt lat="49.03547" lon="5.90082">
        <ele>245.7541504</ele>
        <time>2012-08-17T08:59:05Z</time>
      </trkpt>
      <trkpt lat="49.03584" lon="5.90094">
        <ele>244.7928467</ele>
        <time>2012-08-17T08:59:09Z</time>
      </trkpt>
      <trkpt lat="49.03592" lon="5.90102">
        <ele>244.7928467</ele>
        <time>2012-08-17T08:59:10Z</time>
      </trkpt>
      <trkpt lat="49.03656" lon="5.90171">
        <ele>244.3122559</ele>
        <time>2012-08-17T08:59:19Z</time>
      </trkpt>
      <trkpt lat="49.03661" lon="5.9018">
        <ele>244.3122559</ele>
        <time>2012-08-17T08:59:20Z</time>
      </trkpt>
      <trkpt lat="49.03686" lon="5.90231">
        <ele>245.2734375</ele>
        <time>2012-08-17T08:59:25Z</time>
      </trkpt>
      <trkpt lat="49.03711" lon="5.9026">
        <ele>244.7928467</ele>
        <time>2012-08-17T08:59:29Z</time>
      </trkpt>
      <trkpt lat="49.03735" lon="5.90267">
        <ele>245.2734375</ele>
        <time>2012-08-17T08:59:32Z</time>
      </trkpt>
      <trkpt lat="49.03761" lon="5.90267">
        <ele>243.831543</ele>
        <time>2012-08-17T08:59:35Z</time>
      </trkpt>
      <trkpt lat="49.03796" lon="5.90288">
        <ele>244.7928467</ele>
        <time>2012-08-17T08:59:39Z</time>
      </trkpt>
      <trkpt lat="49.03809" lon="5.90309">
        <ele>244.7928467</ele>
        <time>2012-08-17T08:59:41Z</time>
      </trkpt>
      <trkpt lat="49.03852" lon="5.90398">
        <ele>243.831543</ele>
        <time>2012-08-17T08:59:49Z</time>
      </trkpt>
      <trkpt lat="49.03869" lon="5.9043">
        <ele>243.3508301</ele>
        <time>2012-08-17T08:59:52Z</time>
      </trkpt>
      <trkpt lat="49.03898" lon="5.90454">
        <ele>242.3896484</ele>
        <time>2012-08-17T08:59:56Z</time>
      </trkpt>
      <trkpt lat="49.03922" lon="5.90455">
        <ele>242.8702393</ele>
        <time>2012-08-17T08:59:59Z</time>
      </trkpt>
      <trkpt lat="49.03948" lon="5.90434">
        <ele>241.9089355</ele>
        <time>2012-08-17T09:00:02Z</time>
      </trkpt>
      <trkpt lat="49.03954" lon="5.90424">
        <ele>242.3896484</ele>
        <time>2012-08-17T09:00:03Z</time>
      </trkpt>
      <trkpt lat="49.04004" lon="5.90337">
        <ele>243.3508301</ele>
        <time>2012-08-17T09:00:11Z</time>
      </trkpt>
      <trkpt lat="49.04043" lon="5.90268">
        <ele>241.9089355</ele>
        <time>2012-08-17T09:00:18Z</time>
      </trkpt>
      <trkpt lat="49.04093" lon="5.90178">
        <ele>241.4282227</ele>
        <time>2012-08-17T09:00:27Z</time>
      </trkpt>
      <trkpt lat="49.04122" lon="5.90127">
        <ele>240.467041</ele>
        <time>2012-08-17T09:00:33Z</time>
      </trkpt>
      <trkpt lat="49.04144" lon="5.90123">
        <ele>241.9089355</ele>
        <time>2012-08-17T09:00:37Z</time>
      </trkpt>
      <trkpt lat="49.04157" lon="5.90148">
        <ele>242.3896484</ele>
        <time>2012-08-17T09:00:40Z</time>
      </trkpt>
      <trkpt lat="49.0416" lon="5.90157">
        <ele>241.9089355</ele>
        <time>2012-08-17T09:00:41Z</time>
      </trkpt>
      <trkpt lat="49.0418" lon="5.9022">
        <ele>243.831543</ele>
        <time>2012-08-17T09:00:48Z</time>
      </trkpt>
      <trkpt lat="49.04196" lon="5.90268">
        <ele>245.2734375</ele>
        <time>2012-08-17T09:00:55Z</time>
      </trkpt>
      <trkpt lat="49.04213" lon="5.90319">
        <ele>248.1575928</ele>
        <time>2012-08-17T09:01:03Z</time>
      </trkpt>
      <trkpt lat="49.04225" lon="5.90356">
        <ele>249.1187744</ele>
        <time>2012-08-17T09:01:09Z</time>
      </trkpt>
      <trkpt lat="49.04233" lon="5.90381">
        <ele>251.0413818</ele>
        <time>2012-08-17T09:01:13Z</time>
      </trkpt>
      <trkpt lat="49.04241" lon="5.90411">
        <ele>252.4833984</ele>
        <time>2012-08-17T09:01:18Z</time>
      </trkpt>
      <trkpt lat="49.04257" lon="5.90457">
        <ele>254.4060059</ele>
        <time>2012-08-17T09:01:26Z</time>
      </trkpt>
      <trkpt lat="49.0426" lon="5.90469">
        <ele>254.8865967</ele>
        <time>2012-08-17T09:01:28Z</time>
      </trkpt>
      <trkpt lat="49.04279" lon="5.90528">
        <ele>256.3287354</ele>
        <time>2012-08-17T09:01:38Z</time>
      </trkpt>
      <trkpt lat="49.04297" lon="5.90581">
        <ele>258.7319336</ele>
        <time>2012-08-17T09:01:47Z</time>
      </trkpt>
      <trkpt lat="49.04315" lon="5.90634">
        <ele>262.0965576</ele>
        <time>2012-08-17T09:01:56Z</time>
      </trkpt>
      <trkpt lat="49.0433" lon="5.90683">
        <ele>262.0965576</ele>
        <time>2012-08-17T09:02:04Z</time>
      </trkpt>
      <trkpt lat="49.0435" lon="5.90743">
        <ele>264.9805908</ele>
        <time>2012-08-17T09:02:13Z</time>
      </trkpt>
      <trkpt lat="49.04373" lon="5.90813">
        <ele>266.4224854</ele>
        <time>2012-08-17T09:02:23Z</time>
      </trkpt>
      <trkpt lat="49.04395" lon="5.90881">
        <ele>268.3450928</ele>
        <time>2012-08-17T09:02:33Z</time>
      </trkpt>
      <trkpt lat="49.04416" lon="5.90945">
        <ele>269.3065186</ele>
        <time>2012-08-17T09:02:42Z</time>
      </trkpt>
      <trkpt lat="49.04436" lon="5.91008">
        <ele>270.7484131</ele>
        <time>2012-08-17T09:02:50Z</time>
      </trkpt>
      <trkpt lat="49.04461" lon="5.91083">
        <ele>270.2677002</ele>
        <time>2012-08-17T09:02:59Z</time>
      </trkpt>
      <trkpt lat="49.04486" lon="5.91153">
        <ele>270.2677002</ele>
        <time>2012-08-17T09:03:07Z</time>
      </trkpt>
      <trkpt lat="49.04518" lon="5.91228">
        <ele>270.2677002</ele>
        <time>2012-08-17T09:03:15Z</time>
      </trkpt>
      <trkpt lat="49.04554" lon="5.91295">
        <ele>268.3450928</ele>
        <time>2012-08-17T09:03:22Z</time>
      </trkpt>
      <trkpt lat="49.04607" lon="5.91385">
        <ele>266.4224854</ele>
        <time>2012-08-17T09:03:31Z</time>
      </trkpt>
      <trkpt lat="49.04647" lon="5.91463">
        <ele>264.9805908</ele>
        <time>2012-08-17T09:03:38Z</time>
      </trkpt>
      <trkpt lat="49.04666" lon="5.91525">
        <ele>264.4998779</ele>
        <time>2012-08-17T09:03:43Z</time>
      </trkpt>
      <trkpt lat="49.04688" lon="5.91616">
        <ele>265.4613037</ele>
        <time>2012-08-17T09:03:51Z</time>
      </trkpt>
      <trkpt lat="49.04704" lon="5.91686">
        <ele>266.4224854</ele>
        <time>2012-08-17T09:03:58Z</time>
      </trkpt>
      <trkpt lat="49.04706" lon="5.91695">
        <ele>266.9031982</ele>
        <time>2012-08-17T09:03:59Z</time>
      </trkpt>
      <trkpt lat="49.04718" lon="5.91745">
        <ele>268.3450928</ele>
        <time>2012-08-17T09:04:05Z</time>
      </trkpt>
      <trkpt lat="49.04732" lon="5.91806">
        <ele>271.7097168</ele>
        <time>2012-08-17T09:04:13Z</time>
      </trkpt>
      <trkpt lat="49.04742" lon="5.91855">
        <ele>273.6324463</ele>
        <time>2012-08-17T09:04:20Z</time>
      </trkpt>
      <trkpt lat="49.04753" lon="5.91901">
        <ele>276.0356445</ele>
        <time>2012-08-17T09:04:27Z</time>
      </trkpt>
      <trkpt lat="49.04767" lon="5.9196">
        <ele>277.4776611</ele>
        <time>2012-08-17T09:04:36Z</time>
      </trkpt>
      <trkpt lat="49.04784" lon="5.92028">
        <ele>279.4002686</ele>
        <time>2012-08-17T09:04:46Z</time>
      </trkpt>
      <trkpt lat="49.048" lon="5.92097">
        <ele>281.8035889</ele>
        <time>2012-08-17T09:04:56Z</time>
      </trkpt>
      <trkpt lat="49.04816" lon="5.92171">
        <ele>283.7261963</ele>
        <time>2012-08-17T09:05:06Z</time>
      </trkpt>
      <trkpt lat="49.04832" lon="5.92237">
        <ele>286.1295166</ele>
        <time>2012-08-17T09:05:15Z</time>
      </trkpt>
      <trkpt lat="49.04852" lon="5.92322">
        <ele>286.1295166</ele>
        <time>2012-08-17T09:05:26Z</time>
      </trkpt>
      <trkpt lat="49.04872" lon="5.92403">
        <ele>286.6102295</ele>
        <time>2012-08-17T09:05:36Z</time>
      </trkpt>
      <trkpt lat="49.04887" lon="5.92466">
        <ele>289.0135498</ele>
        <time>2012-08-17T09:05:44Z</time>
      </trkpt>
      <trkpt lat="49.04906" lon="5.92548">
        <ele>289.9748535</ele>
        <time>2012-08-17T09:05:54Z</time>
      </trkpt>
      <trkpt lat="49.04926" lon="5.92634">
        <ele>291.416748</ele>
        <time>2012-08-17T09:06:04Z</time>
      </trkpt>
      <trkpt lat="49.04946" lon="5.92721">
        <ele>292.8587646</ele>
        <time>2012-08-17T09:06:14Z</time>
      </trkpt>
      <trkpt lat="49.04967" lon="5.9281">
        <ele>293.3393555</ele>
        <time>2012-08-17T09:06:24Z</time>
      </trkpt>
      <trkpt lat="49.04988" lon="5.92899">
        <ele>295.7426758</ele>
        <time>2012-08-17T09:06:34Z</time>
      </trkpt>
      <trkpt lat="49.05009" lon="5.92983">
        <ele>295.7426758</ele>
        <time>2012-08-17T09:06:43Z</time>
      </trkpt>
      <trkpt lat="49.05031" lon="5.93075">
        <ele>298.1461182</ele>
        <time>2012-08-17T09:06:53Z</time>
      </trkpt>
      <trkpt lat="49.05049" lon="5.93156">
        <ele>297.6654053</ele>
        <time>2012-08-17T09:07:02Z</time>
      </trkpt>
      <trkpt lat="49.05059" lon="5.93218">
        <ele>298.1461182</ele>
        <time>2012-08-17T09:07:09Z</time>
      </trkpt>
      <trkpt lat="49.0506" lon="5.93244">
        <ele>299.1072998</ele>
        <time>2012-08-17T09:07:12Z</time>
      </trkpt>
      <trkpt lat="49.05058" lon="5.93266">
        <ele>299.5880127</ele>
        <time>2012-08-17T09:07:15Z</time>
      </trkpt>
      <trkpt lat="49.05057" lon="5.93279">
        <ele>299.1072998</ele>
        <time>2012-08-17T09:07:17Z</time>
      </trkpt>
      <trkpt lat="49.05062" lon="5.93302">
        <ele>299.5880127</ele>
        <time>2012-08-17T09:07:21Z</time>
      </trkpt>
      <trkpt lat="49.05072" lon="5.93336">
        <ele>300.0687256</ele>
        <time>2012-08-17T09:07:26Z</time>
      </trkpt>
      <trkpt lat="49.05079" lon="5.934">
        <ele>300.5493164</ele>
        <time>2012-08-17T09:07:34Z</time>
      </trkpt>
      <trkpt lat="49.05086" lon="5.93452">
        <ele>300.5493164</ele>
        <time>2012-08-17T09:07:41Z</time>
      </trkpt>
      <trkpt lat="49.05093" lon="5.93509">
        <ele>301.5106201</ele>
        <time>2012-08-17T09:07:47Z</time>
      </trkpt>
      <trkpt lat="49.05102" lon="5.93584">
        <ele>302.9525146</ele>
        <time>2012-08-17T09:07:55Z</time>
      </trkpt>
      <trkpt lat="49.05113" lon="5.93675">
        <ele>303.4332275</ele>
        <time>2012-08-17T09:08:05Z</time>
      </trkpt>
      <trkpt lat="49.05122" lon="5.93752">
        <ele>304.3946533</ele>
        <time>2012-08-17T09:08:13Z</time>
      </trkpt>
      <trkpt lat="49.0513" lon="5.9384">
        <ele>304.8752441</ele>
        <time>2012-08-17T09:08:22Z</time>
      </trkpt>
      <trkpt lat="49.05135" lon="5.93922">
        <ele>304.8752441</ele>
        <time>2012-08-17T09:08:30Z</time>
      </trkpt>
      <trkpt lat="49.05139" lon="5.94028">
        <ele>304.8752441</ele>
        <time>2012-08-17T09:08:40Z</time>
      </trkpt>
      <trkpt lat="49.05141" lon="5.94136">
        <ele>303.9139404</ele>
        <time>2012-08-17T09:08:50Z</time>
      </trkpt>
      <trkpt lat="49.05142" lon="5.94206">
        <ele>302.4719238</ele>
        <time>2012-08-17T09:08:56Z</time>
      </trkpt>
      <trkpt lat="49.05145" lon="5.94306">
        <ele>301.5106201</ele>
        <time>2012-08-17T09:09:04Z</time>
      </trkpt>
      <trkpt lat="49.0515" lon="5.94439">
        <ele>298.626709</ele>
        <time>2012-08-17T09:09:14Z</time>
      </trkpt>
      <trkpt lat="49.05152" lon="5.94541">
        <ele>298.1461182</ele>
        <time>2012-08-17T09:09:21Z</time>
      </trkpt>
      <trkpt lat="49.05152" lon="5.94599">
        <ele>296.7041016</ele>
        <time>2012-08-17T09:09:25Z</time>
      </trkpt>
      <trkpt lat="49.05155" lon="5.94709">
        <ele>296.2235107</ele>
        <time>2012-08-17T09:09:33Z</time>
      </trkpt>
      <trkpt lat="49.05161" lon="5.94791">
        <ele>294.3007813</ele>
        <time>2012-08-17T09:09:39Z</time>
      </trkpt>
      <trkpt lat="49.05173" lon="5.94896">
        <ele>293.8200684</ele>
        <time>2012-08-17T09:09:47Z</time>
      </trkpt>
      <trkpt lat="49.05183" lon="5.94996">
        <ele>292.8587646</ele>
        <time>2012-08-17T09:09:55Z</time>
      </trkpt>
      <trkpt lat="49.05193" lon="5.95095">
        <ele>292.3781738</ele>
        <time>2012-08-17T09:10:03Z</time>
      </trkpt>
      <trkpt lat="49.05204" lon="5.9521">
        <ele>292.3781738</ele>
        <time>2012-08-17T09:10:12Z</time>
      </trkpt>
      <trkpt lat="49.0522" lon="5.95322">
        <ele>290.9361572</ele>
        <time>2012-08-17T09:10:21Z</time>
      </trkpt>
      <trkpt lat="49.05237" lon="5.95443">
        <ele>288.532959</ele>
        <time>2012-08-17T09:10:30Z</time>
      </trkpt>
      <trkpt lat="49.05253" lon="5.95555">
        <ele>287.5714111</ele>
        <time>2012-08-17T09:10:38Z</time>
      </trkpt>
      <trkpt lat="49.05269" lon="5.95668">
        <ele>285.1682129</ele>
        <time>2012-08-17T09:10:46Z</time>
      </trkpt>
      <trkpt lat="49.05273" lon="5.95693">
        <ele>284.6876221</ele>
        <time>2012-08-17T09:10:48Z</time>
      </trkpt>
      <trkpt lat="49.05289" lon="5.95805">
        <ele>283.2456055</ele>
        <time>2012-08-17T09:10:57Z</time>
      </trkpt>
      <trkpt lat="49.05305" lon="5.95916">
        <ele>280.8424072</ele>
        <time>2012-08-17T09:11:06Z</time>
      </trkpt>
      <trkpt lat="49.0532" lon="5.96031">
        <ele>278.9196777</ele>
        <time>2012-08-17T09:11:15Z</time>
      </trkpt>
      <trkpt lat="49.05328" lon="5.96087">
        <ele>276.9970703</ele>
        <time>2012-08-17T09:11:19Z</time>
      </trkpt>
      <trkpt lat="49.05336" lon="5.96143">
        <ele>274.59375</ele>
        <time>2012-08-17T09:11:23Z</time>
      </trkpt>
      <trkpt lat="49.05345" lon="5.96214">
        <ele>271.7097168</ele>
        <time>2012-08-17T09:11:28Z</time>
      </trkpt>
      <trkpt lat="49.05355" lon="5.96286">
        <ele>269.3065186</ele>
        <time>2012-08-17T09:11:33Z</time>
      </trkpt>
      <trkpt lat="49.05373" lon="5.96417">
        <ele>268.3450928</ele>
        <time>2012-08-17T09:11:42Z</time>
      </trkpt>
      <trkpt lat="49.05379" lon="5.96462">
        <ele>264.9805908</ele>
        <time>2012-08-17T09:11:45Z</time>
      </trkpt>
      <trkpt lat="49.05389" lon="5.96538">
        <ele>262.5771484</ele>
        <time>2012-08-17T09:11:50Z</time>
      </trkpt>
      <trkpt lat="49.05397" lon="5.96599">
        <ele>261.1352539</ele>
        <time>2012-08-17T09:11:54Z</time>
      </trkpt>
      <trkpt lat="49.05408" lon="5.96678">
        <ele>258.7319336</ele>
        <time>2012-08-17T09:11:59Z</time>
      </trkpt>
      <trkpt lat="49.05424" lon="5.968">
        <ele>258.2513428</ele>
        <time>2012-08-17T09:12:07Z</time>
      </trkpt>
      <trkpt lat="49.05441" lon="5.96927">
        <ele>256.3287354</ele>
        <time>2012-08-17T09:12:16Z</time>
      </trkpt>
      <trkpt lat="49.05453" lon="5.97013">
        <ele>258.2513428</ele>
        <time>2012-08-17T09:12:23Z</time>
      </trkpt>
      <trkpt lat="49.05465" lon="5.971">
        <ele>257.770752</ele>
        <time>2012-08-17T09:12:31Z</time>
      </trkpt>
      <trkpt lat="49.0547" lon="5.9713">
        <ele>259.2126465</ele>
        <time>2012-08-17T09:12:34Z</time>
      </trkpt>
      <trkpt lat="49.05483" lon="5.97235">
        <ele>260.654541</ele>
        <time>2012-08-17T09:12:44Z</time>
      </trkpt>
      <trkpt lat="49.05495" lon="5.97325">
        <ele>261.1352539</ele>
        <time>2012-08-17T09:12:53Z</time>
      </trkpt>
      <trkpt lat="49.05501" lon="5.97377">
        <ele>264.0192871</ele>
        <time>2012-08-17T09:12:58Z</time>
      </trkpt>
      <trkpt lat="49.05513" lon="5.97472">
        <ele>265.4613037</ele>
        <time>2012-08-17T09:13:07Z</time>
      </trkpt>
      <trkpt lat="49.05514" lon="5.97483">
        <ele>265.4613037</ele>
        <time>2012-08-17T09:13:08Z</time>
      </trkpt>
      <trkpt lat="49.05522" lon="5.97569">
        <ele>264.0192871</ele>
        <time>2012-08-17T09:13:16Z</time>
      </trkpt>
      <trkpt lat="49.05528" lon="5.97654">
        <ele>264.9805908</ele>
        <time>2012-08-17T09:13:24Z</time>
      </trkpt>
      <trkpt lat="49.05536" lon="5.9777">
        <ele>262.0965576</ele>
        <time>2012-08-17T09:13:34Z</time>
      </trkpt>
      <trkpt lat="49.05539" lon="5.9782">
        <ele>261.6159668</ele>
        <time>2012-08-17T09:13:38Z</time>
      </trkpt>
      <trkpt lat="49.05548" lon="5.97952">
        <ele>259.6933594</ele>
        <time>2012-08-17T09:13:48Z</time>
      </trkpt>
      <trkpt lat="49.05556" lon="5.9806">
        <ele>258.7319336</ele>
        <time>2012-08-17T09:13:56Z</time>
      </trkpt>
      <trkpt lat="49.05563" lon="5.98166">
        <ele>260.1739502</ele>
        <time>2012-08-17T09:14:04Z</time>
      </trkpt>
      <trkpt lat="49.05572" lon="5.98293">
        <ele>260.1739502</ele>
        <time>2012-08-17T09:14:14Z</time>
      </trkpt>
      <trkpt lat="49.05578" lon="5.98375">
        <ele>258.7319336</ele>
        <time>2012-08-17T09:14:21Z</time>
      </trkpt>
      <trkpt lat="49.05582" lon="5.98424">
        <ele>258.7319336</ele>
        <time>2012-08-17T09:14:25Z</time>
      </trkpt>
      <trkpt lat="49.05591" lon="5.9855">
        <ele>256.8093262</ele>
        <time>2012-08-17T09:14:35Z</time>
      </trkpt>
      <trkpt lat="49.05597" lon="5.98612">
        <ele>255.3673096</ele>
        <time>2012-08-17T09:14:40Z</time>
      </trkpt>
      <trkpt lat="49.05606" lon="5.98675">
        <ele>254.4060059</ele>
        <time>2012-08-17T09:14:45Z</time>
      </trkpt>
      <trkpt lat="49.05612" lon="5.98712">
        <ele>253.4447021</ele>
        <time>2012-08-17T09:14:48Z</time>
      </trkpt>
      <trkpt lat="49.05614" lon="5.98725">
        <ele>252.9639893</ele>
        <time>2012-08-17T09:14:49Z</time>
      </trkpt>
      <trkpt lat="49.0563" lon="5.98826">
        <ele>251.5220947</ele>
        <time>2012-08-17T09:14:57Z</time>
      </trkpt>
      <trkpt lat="49.0564" lon="5.98896">
        <ele>249.1187744</ele>
        <time>2012-08-17T09:15:02Z</time>
      </trkpt>
      <trkpt lat="49.05639" lon="5.98969">
        <ele>248.1575928</ele>
        <time>2012-08-17T09:15:07Z</time>
      </trkpt>
      <trkpt lat="49.05629" lon="5.99047">
        <ele>242.3896484</ele>
        <time>2012-08-17T09:15:12Z</time>
      </trkpt>
      <trkpt lat="49.05621" lon="5.99128">
        <ele>239.9862061</ele>
        <time>2012-08-17T09:15:17Z</time>
      </trkpt>
      <trkpt lat="49.0562" lon="5.99144">
        <ele>240.467041</ele>
        <time>2012-08-17T09:15:18Z</time>
      </trkpt>
      <trkpt lat="49.05617" lon="5.99204">
        <ele>238.5443115</ele>
        <time>2012-08-17T09:15:22Z</time>
      </trkpt>
      <trkpt lat="49.05615" lon="5.99246">
        <ele>237.1022949</ele>
        <time>2012-08-17T09:15:25Z</time>
      </trkpt>
      <trkpt lat="49.05603" lon="5.99322">
        <ele>235.6602783</ele>
        <time>2012-08-17T09:15:31Z</time>
      </trkpt>
      <trkpt lat="49.05587" lon="5.99363">
        <ele>231.8149414</ele>
        <time>2012-08-17T09:15:35Z</time>
      </trkpt>
      <trkpt lat="49.05557" lon="5.99409">
        <ele>228.9311523</ele>
        <time>2012-08-17T09:15:40Z</time>
      </trkpt>
      <trkpt lat="49.05513" lon="5.9947">
        <ele>225.5665283</ele>
        <time>2012-08-17T09:15:47Z</time>
      </trkpt>
      <trkpt lat="49.05495" lon="5.99491">
        <ele>223.163208</ele>
        <time>2012-08-17T09:15:50Z</time>
      </trkpt>
      <trkpt lat="49.05459" lon="5.99549">
        <ele>222.2017822</ele>
        <time>2012-08-17T09:15:57Z</time>
      </trkpt>
      <trkpt lat="49.05433" lon="5.99602">
        <ele>218.3565674</ele>
        <time>2012-08-17T09:16:02Z</time>
      </trkpt>
      <trkpt lat="49.05428" lon="5.99613">
        <ele>217.3953857</ele>
        <time>2012-08-17T09:16:03Z</time>
      </trkpt>
      <trkpt lat="49.05414" lon="5.9966">
        <ele>215.4726563</ele>
        <time>2012-08-17T09:16:07Z</time>
      </trkpt>
      <trkpt lat="49.05413" lon="5.99673">
        <ele>215.4726563</ele>
        <time>2012-08-17T09:16:08Z</time>
      </trkpt>
      <trkpt lat="49.05413" lon="5.99687">
        <ele>215.4726563</ele>
        <time>2012-08-17T09:16:09Z</time>
      </trkpt>
      <trkpt lat="49.05412" lon="5.99775">
        <ele>212.1080322</ele>
        <time>2012-08-17T09:16:15Z</time>
      </trkpt>
      <trkpt lat="49.05411" lon="5.99817">
        <ele>208.7434082</ele>
        <time>2012-08-17T09:16:18Z</time>
      </trkpt>
      <trkpt lat="49.05409" lon="5.99842">
        <ele>207.7821045</ele>
        <time>2012-08-17T09:16:20Z</time>
      </trkpt>
      <trkpt lat="49.05406" lon="5.99875">
        <ele>205.3787842</ele>
        <time>2012-08-17T09:16:23Z</time>
      </trkpt>
      <trkpt lat="49.0539" lon="5.9991">
        <ele>203.9368896</ele>
        <time>2012-08-17T09:16:27Z</time>
      </trkpt>
      <trkpt lat="49.05369" lon="5.99962">
        <ele>204.8980713</ele>
        <time>2012-08-17T09:16:32Z</time>
      </trkpt>
      <trkpt lat="49.05344" lon="6.0004">
        <ele>204.4174805</ele>
        <time>2012-08-17T09:16:40Z</time>
      </trkpt>
      <trkpt lat="49.05327" lon="6.00088">
        <ele>205.3787842</ele>
        <time>2012-08-17T09:16:46Z</time>
      </trkpt>
      <trkpt lat="49.05302" lon="6.00126">
        <ele>205.8594971</ele>
        <time>2012-08-17T09:16:52Z</time>
      </trkpt>
      <trkpt lat="49.05298" lon="6.00142">
        <ele>204.4174805</ele>
        <time>2012-08-17T09:16:56Z</time>
      </trkpt>
      <trkpt lat="49.05303" lon="6.00147">
        <ele>204.4174805</ele>
        <time>2012-08-17T09:17:01Z</time>
      </trkpt>
      <trkpt lat="49.05303" lon="6.00147">
        <ele>204.8980713</ele>
        <time>2012-08-17T09:17:05Z</time>
      </trkpt>
      <trkpt lat="49.05301" lon="6.00149">
        <ele>204.8980713</ele>
        <time>2012-08-17T09:17:07Z</time>
      </trkpt>
      <trkpt lat="49.05301" lon="6.0015">
        <ele>204.8980713</ele>
        <time>2012-08-17T09:17:15Z</time>
      </trkpt>
      <trkpt lat="49.05301" lon="6.0015">
        <ele>204.8980713</ele>
        <time>2012-08-17T09:17:16Z</time>
      </trkpt>
      <trkpt lat="49.05299" lon="6.00149">
        <ele>204.8980713</ele>
        <time>2012-08-17T09:17:20Z</time>
      </trkpt>
      <trkpt lat="49.05298" lon="6.00147">
        <ele>205.3787842</ele>
        <time>2012-08-17T09:17:27Z</time>
      </trkpt>
      <trkpt lat="49.05301" lon="6.00148">
        <ele>205.3787842</ele>
        <time>2012-08-17T09:17:34Z</time>
      </trkpt>
      <trkpt lat="49.053" lon="6.00147">
        <ele>205.3787842</ele>
        <time>2012-08-17T09:17:35Z</time>
      </trkpt>
      <trkpt lat="49.05299" lon="6.00148">
        <ele>205.8594971</ele>
        <time>2012-08-17T09:17:39Z</time>
      </trkpt>
      <trkpt lat="49.05299" lon="6.00149">
        <ele>205.3787842</ele>
        <time>2012-08-17T09:17:40Z</time>
      </trkpt>
      <trkpt lat="49.053" lon="6.00163">
        <ele>205.3787842</ele>
        <time>2012-08-17T09:17:45Z</time>
      </trkpt>
      <trkpt lat="49.05294" lon="6.00174">
        <ele>205.8594971</ele>
        <time>2012-08-17T09:17:48Z</time>
      </trkpt>
      <trkpt lat="49.05282" lon="6.00188">
        <ele>205.3787842</ele>
        <time>2012-08-17T09:17:51Z</time>
      </trkpt>
      <trkpt lat="49.05276" lon="6.00209">
        <ele>204.4174805</ele>
        <time>2012-08-17T09:17:54Z</time>
      </trkpt>
      <trkpt lat="49.05255" lon="6.00276">
        <ele>204.8980713</ele>
        <time>2012-08-17T09:18:02Z</time>
      </trkpt>
      <trkpt lat="49.05244" lon="6.00331">
        <ele>203.9368896</ele>
        <time>2012-08-17T09:18:08Z</time>
      </trkpt>
      <trkpt lat="49.05241" lon="6.00382">
        <ele>202.494873</ele>
        <time>2012-08-17T09:18:13Z</time>
      </trkpt>
      <trkpt lat="49.05238" lon="6.00429">
        <ele>202.494873</ele>
        <time>2012-08-17T09:18:18Z</time>
      </trkpt>
      <trkpt lat="49.05239" lon="6.0046">
        <ele>202.0142822</ele>
        <time>2012-08-17T09:18:21Z</time>
      </trkpt>
      <trkpt lat="49.05226" lon="6.005">
        <ele>201.0528564</ele>
        <time>2012-08-17T09:18:25Z</time>
      </trkpt>
      <trkpt lat="49.05202" lon="6.00517">
        <ele>201.0528564</ele>
        <time>2012-08-17T09:18:28Z</time>
      </trkpt>
      <trkpt lat="49.05186" lon="6.00536">
        <ele>201.0528564</ele>
        <time>2012-08-17T09:18:31Z</time>
      </trkpt>
      <trkpt lat="49.05183" lon="6.00545">
        <ele>202.0142822</ele>
        <time>2012-08-17T09:18:32Z</time>
      </trkpt>
      <trkpt lat="49.05165" lon="6.00627">
        <ele>201.0528564</ele>
        <time>2012-08-17T09:18:40Z</time>
      </trkpt>
      <trkpt lat="49.05151" lon="6.00699">
        <ele>201.5335693</ele>
        <time>2012-08-17T09:18:47Z</time>
      </trkpt>
      <trkpt lat="49.05139" lon="6.00765">
        <ele>202.494873</ele>
        <time>2012-08-17T09:18:54Z</time>
      </trkpt>
      <trkpt lat="49.0513" lon="6.0084">
        <ele>203.4561768</ele>
        <time>2012-08-17T09:19:02Z</time>
      </trkpt>
      <trkpt lat="49.05127" lon="6.00905">
        <ele>202.494873</ele>
        <time>2012-08-17T09:19:08Z</time>
      </trkpt>
      <trkpt lat="49.05123" lon="6.01001">
        <ele>201.0528564</ele>
        <time>2012-08-17T09:19:16Z</time>
      </trkpt>
      <trkpt lat="49.0512" lon="6.01102">
        <ele>201.0528564</ele>
        <time>2012-08-17T09:19:25Z</time>
      </trkpt>
      <trkpt lat="49.05111" lon="6.01206">
        <ele>200.0916748</ele>
        <time>2012-08-17T09:19:34Z</time>
      </trkpt>
      <trkpt lat="49.05101" lon="6.01311">
        <ele>200.0916748</ele>
        <time>2012-08-17T09:19:43Z</time>
      </trkpt>
      <trkpt lat="49.05089" lon="6.01386">
        <ele>201.5335693</ele>
        <time>2012-08-17T09:19:50Z</time>
      </trkpt>
      <trkpt lat="49.0507" lon="6.01465">
        <ele>199.6108398</ele>
        <time>2012-08-17T09:19:57Z</time>
      </trkpt>
      <trkpt lat="49.05058" lon="6.01524">
        <ele>199.130127</ele>
        <time>2012-08-17T09:20:02Z</time>
      </trkpt>
      <trkpt lat="49.05042" lon="6.01587">
        <ele>197.6882324</ele>
        <time>2012-08-17T09:20:07Z</time>
      </trkpt>
      <trkpt lat="49.05008" lon="6.01668">
        <ele>196.2463379</ele>
        <time>2012-08-17T09:20:14Z</time>
      </trkpt>
      <trkpt lat="49.04981" lon="6.01714">
        <ele>195.2849121</ele>
        <time>2012-08-17T09:20:19Z</time>
      </trkpt>
      <trkpt lat="49.04937" lon="6.01769">
        <ele>195.2849121</ele>
        <time>2012-08-17T09:20:26Z</time>
      </trkpt>
      <trkpt lat="49.04883" lon="6.01831">
        <ele>194.8043213</ele>
        <time>2012-08-17T09:20:34Z</time>
      </trkpt>
      <trkpt lat="49.04835" lon="6.01884">
        <ele>193.8430176</ele>
        <time>2012-08-17T09:20:41Z</time>
      </trkpt>
      <trkpt lat="49.04789" lon="6.01935">
        <ele>193.8430176</ele>
        <time>2012-08-17T09:20:48Z</time>
      </trkpt>
      <trkpt lat="49.04744" lon="6.01988">
        <ele>194.3237305</ele>
        <time>2012-08-17T09:20:55Z</time>
      </trkpt>
      <trkpt lat="49.04708" lon="6.02037">
        <ele>193.8430176</ele>
        <time>2012-08-17T09:21:01Z</time>
      </trkpt>
      <trkpt lat="49.04674" lon="6.0209">
        <ele>194.3237305</ele>
        <time>2012-08-17T09:21:07Z</time>
      </trkpt>
      <trkpt lat="49.04635" lon="6.02153">
        <ele>194.3237305</ele>
        <time>2012-08-17T09:21:14Z</time>
      </trkpt>
      <trkpt lat="49.04602" lon="6.02204">
        <ele>195.765625</ele>
        <time>2012-08-17T09:21:20Z</time>
      </trkpt>
      <trkpt lat="49.04567" lon="6.02264">
        <ele>195.2849121</ele>
        <time>2012-08-17T09:21:27Z</time>
      </trkpt>
      <trkpt lat="49.04536" lon="6.02315">
        <ele>194.3237305</ele>
        <time>2012-08-17T09:21:33Z</time>
      </trkpt>
      <trkpt lat="49.04487" lon="6.02386">
        <ele>193.8430176</ele>
        <time>2012-08-17T09:21:41Z</time>
      </trkpt>
      <trkpt lat="49.04433" lon="6.02459">
        <ele>192.8817139</ele>
        <time>2012-08-17T09:21:50Z</time>
      </trkpt>
      <trkpt lat="49.04392" lon="6.025">
        <ele>193.3623047</ele>
        <time>2012-08-17T09:21:56Z</time>
      </trkpt>
      <trkpt lat="49.04341" lon="6.02547">
        <ele>191.9202881</ele>
        <time>2012-08-17T09:22:03Z</time>
      </trkpt>
      <trkpt lat="49.04279" lon="6.02605">
        <ele>193.3623047</ele>
        <time>2012-08-17T09:22:12Z</time>
      </trkpt>
      <trkpt lat="49.0422" lon="6.02658">
        <ele>192.401123</ele>
        <time>2012-08-17T09:22:21Z</time>
      </trkpt>
      <trkpt lat="49.04158" lon="6.02717">
        <ele>193.3623047</ele>
        <time>2012-08-17T09:22:31Z</time>
      </trkpt>
      <trkpt lat="49.04112" lon="6.0276">
        <ele>192.8817139</ele>
        <time>2012-08-17T09:22:38Z</time>
      </trkpt>
      <trkpt lat="49.04051" lon="6.02816">
        <ele>193.8430176</ele>
        <time>2012-08-17T09:22:48Z</time>
      </trkpt>
      <trkpt lat="49.04003" lon="6.02856">
        <ele>197.2075195</ele>
        <time>2012-08-17T09:22:55Z</time>
      </trkpt>
      <trkpt lat="49.03996" lon="6.02861">
        <ele>196.7269287</ele>
        <time>2012-08-17T09:22:56Z</time>
      </trkpt>
      <trkpt lat="49.03975" lon="6.02875">
        <ele>194.8043213</ele>
        <time>2012-08-17T09:22:59Z</time>
      </trkpt>
      <trkpt lat="49.03927" lon="6.02897">
        <ele>196.2463379</ele>
        <time>2012-08-17T09:23:06Z</time>
      </trkpt>
      <trkpt lat="49.03878" lon="6.02916">
        <ele>198.6495361</ele>
        <time>2012-08-17T09:23:13Z</time>
      </trkpt>
      <trkpt lat="49.03833" lon="6.02931">
        <ele>199.6108398</ele>
        <time>2012-08-17T09:23:19Z</time>
      </trkpt>
      <trkpt lat="49.03766" lon="6.02956">
        <ele>198.6495361</ele>
        <time>2012-08-17T09:23:28Z</time>
      </trkpt>
      <trkpt lat="49.03697" lon="6.02982">
        <ele>197.6882324</ele>
        <time>2012-08-17T09:23:37Z</time>
      </trkpt>
      <trkpt lat="49.03641" lon="6.02997">
        <ele>196.7269287</ele>
        <time>2012-08-17T09:23:44Z</time>
      </trkpt>
      <trkpt lat="49.03618" lon="6.03001">
        <ele>199.130127</ele>
        <time>2012-08-17T09:23:47Z</time>
      </trkpt>
      <trkpt lat="49.03553" lon="6.03009">
        <ele>199.130127</ele>
        <time>2012-08-17T09:23:56Z</time>
      </trkpt>
      <trkpt lat="49.03503" lon="6.03016">
        <ele>199.6108398</ele>
        <time>2012-08-17T09:24:03Z</time>
      </trkpt>
      <trkpt lat="49.03422" lon="6.03031">
        <ele>201.5335693</ele>
        <time>2012-08-17T09:24:14Z</time>
      </trkpt>
      <trkpt lat="49.03362" lon="6.03057">
        <ele>200.0916748</ele>
        <time>2012-08-17T09:24:22Z</time>
      </trkpt>
      <trkpt lat="49.03294" lon="6.03092">
        <ele>197.2075195</ele>
        <time>2012-08-17T09:24:31Z</time>
      </trkpt>
      <trkpt lat="49.03221" lon="6.0313">
        <ele>195.765625</ele>
        <time>2012-08-17T09:24:40Z</time>
      </trkpt>
      <trkpt lat="49.03141" lon="6.03171">
        <ele>196.7269287</ele>
        <time>2012-08-17T09:24:50Z</time>
      </trkpt>
      <trkpt lat="49.03072" lon="6.03207">
        <ele>197.2075195</ele>
        <time>2012-08-17T09:24:59Z</time>
      </trkpt>
      <trkpt lat="49.03013" lon="6.03236">
        <ele>199.130127</ele>
        <time>2012-08-17T09:25:07Z</time>
      </trkpt>
      <trkpt lat="49.0296" lon="6.03254">
        <ele>197.2075195</ele>
        <time>2012-08-17T09:25:14Z</time>
      </trkpt>
      <trkpt lat="49.0288" lon="6.03274">
        <ele>196.7269287</ele>
        <time>2012-08-17T09:25:24Z</time>
      </trkpt>
      <trkpt lat="49.02809" lon="6.03296">
        <ele>195.765625</ele>
        <time>2012-08-17T09:25:33Z</time>
      </trkpt>
      <trkpt lat="49.02761" lon="6.03322">
        <ele>196.7269287</ele>
        <time>2012-08-17T09:25:39Z</time>
      </trkpt>
      <trkpt lat="49.02701" lon="6.03374">
        <ele>197.2075195</ele>
        <time>2012-08-17T09:25:47Z</time>
      </trkpt>
      <trkpt lat="49.02663" lon="6.03416">
        <ele>196.2463379</ele>
        <time>2012-08-17T09:25:53Z</time>
      </trkpt>
      <trkpt lat="49.02619" lon="6.0348">
        <ele>196.7269287</ele>
        <time>2012-08-17T09:26:01Z</time>
      </trkpt>
      <trkpt lat="49.02588" lon="6.03537">
        <ele>193.8430176</ele>
        <time>2012-08-17T09:26:07Z</time>
      </trkpt>
      <trkpt lat="49.02563" lon="6.03604">
        <ele>192.8817139</ele>
        <time>2012-08-17T09:26:13Z</time>
      </trkpt>
      <trkpt lat="49.02534" lon="6.0369">
        <ele>190.9589844</ele>
        <time>2012-08-17T09:26:20Z</time>
      </trkpt>
      <trkpt lat="49.02495" lon="6.03811">
        <ele>189.5169678</ele>
        <time>2012-08-17T09:26:30Z</time>
      </trkpt>
      <trkpt lat="49.02467" lon="6.03895">
        <ele>189.036377</ele>
        <time>2012-08-17T09:26:37Z</time>
      </trkpt>
      <trkpt lat="49.02447" lon="6.03954">
        <ele>188.0750732</ele>
        <time>2012-08-17T09:26:42Z</time>
      </trkpt>
      <trkpt lat="49.02419" lon="6.04051">
        <ele>188.0750732</ele>
        <time>2012-08-17T09:26:50Z</time>
      </trkpt>
      <trkpt lat="49.02406" lon="6.04128">
        <ele>188.0750732</ele>
        <time>2012-08-17T09:26:56Z</time>
      </trkpt>
      <trkpt lat="49.02402" lon="6.04198">
        <ele>188.0750732</ele>
        <time>2012-08-17T09:27:02Z</time>
      </trkpt>
      <trkpt lat="49.02405" lon="6.04264">
        <ele>188.5557861</ele>
        <time>2012-08-17T09:27:08Z</time>
      </trkpt>
      <trkpt lat="49.02416" lon="6.04348">
        <ele>188.0750732</ele>
        <time>2012-08-17T09:27:16Z</time>
      </trkpt>
      <trkpt lat="49.02418" lon="6.04379">
        <ele>188.0750732</ele>
        <time>2012-08-17T09:27:19Z</time>
      </trkpt>
      <trkpt lat="49.02418" lon="6.04449">
        <ele>186.6331787</ele>
        <time>2012-08-17T09:27:25Z</time>
      </trkpt>
      <trkpt lat="49.02414" lon="6.04528">
        <ele>183.2684326</ele>
        <time>2012-08-17T09:27:31Z</time>
      </trkpt>
      <trkpt lat="49.02408" lon="6.04613">
        <ele>181.3458252</ele>
        <time>2012-08-17T09:27:37Z</time>
      </trkpt>
      <trkpt lat="49.02399" lon="6.04715">
        <ele>178.942627</ele>
        <time>2012-08-17T09:27:44Z</time>
      </trkpt>
      <trkpt lat="49.02396" lon="6.04759">
        <ele>177.0200195</ele>
        <time>2012-08-17T09:27:47Z</time>
      </trkpt>
      <trkpt lat="49.02394" lon="6.04773">
        <ele>177.9812012</ele>
        <time>2012-08-17T09:27:48Z</time>
      </trkpt>
      <trkpt lat="49.0239" lon="6.04843">
        <ele>177.0200195</ele>
        <time>2012-08-17T09:27:53Z</time>
      </trkpt>
      <trkpt lat="49.0238" lon="6.04931">
        <ele>175.5778809</ele>
        <time>2012-08-17T09:28:00Z</time>
      </trkpt>
      <trkpt lat="49.02374" lon="6.04989">
        <ele>175.09729</ele>
        <time>2012-08-17T09:28:06Z</time>
      </trkpt>
      <trkpt lat="49.02371" lon="6.05024">
        <ele>174.1358643</ele>
        <time>2012-08-17T09:28:11Z</time>
      </trkpt>
      <trkpt lat="49.02371" lon="6.0503">
        <ele>173.6552734</ele>
        <time>2012-08-17T09:28:12Z</time>
      </trkpt>
      <trkpt lat="49.02388" lon="6.0504">
        <ele>173.6552734</ele>
        <time>2012-08-17T09:28:16Z</time>
      </trkpt>
      <trkpt lat="49.02428" lon="6.05047">
        <ele>173.1746826</ele>
        <time>2012-08-17T09:28:22Z</time>
      </trkpt>
      <trkpt lat="49.02475" lon="6.05061">
        <ele>173.6552734</ele>
        <time>2012-08-17T09:28:29Z</time>
      </trkpt>
      <trkpt lat="49.02518" lon="6.05071">
        <ele>173.1746826</ele>
        <time>2012-08-17T09:28:35Z</time>
      </trkpt>
      <trkpt lat="49.0257" lon="6.0508">
        <ele>174.1358643</ele>
        <time>2012-08-17T09:28:42Z</time>
      </trkpt>
      <trkpt lat="49.02614" lon="6.05088">
        <ele>174.6165771</ele>
        <time>2012-08-17T09:28:48Z</time>
      </trkpt>
      <trkpt lat="49.02657" lon="6.05095">
        <ele>174.6165771</ele>
        <time>2012-08-17T09:28:54Z</time>
      </trkpt>
      <trkpt lat="49.027" lon="6.05101">
        <ele>174.1358643</ele>
        <time>2012-08-17T09:29:00Z</time>
      </trkpt>
      <trkpt lat="49.02743" lon="6.0511">
        <ele>173.6552734</ele>
        <time>2012-08-17T09:29:06Z</time>
      </trkpt>
      <trkpt lat="49.02788" lon="6.05121">
        <ele>173.1746826</ele>
        <time>2012-08-17T09:29:13Z</time>
      </trkpt>
      <trkpt lat="49.0284" lon="6.05133">
        <ele>175.09729</ele>
        <time>2012-08-17T09:29:20Z</time>
      </trkpt>
      <trkpt lat="49.0289" lon="6.0514">
        <ele>174.1358643</ele>
        <time>2012-08-17T09:29:26Z</time>
      </trkpt>
      <trkpt lat="49.02947" lon="6.05133">
        <ele>173.1746826</ele>
        <time>2012-08-17T09:29:33Z</time>
      </trkpt>
      <trkpt lat="49.03018" lon="6.05118">
        <ele>173.1746826</ele>
        <time>2012-08-17T09:29:42Z</time>
      </trkpt>
      <trkpt lat="49.03084" lon="6.0511">
        <ele>173.1746826</ele>
        <time>2012-08-17T09:29:50Z</time>
      </trkpt>
      <trkpt lat="49.03133" lon="6.05112">
        <ele>172.6939697</ele>
        <time>2012-08-17T09:29:56Z</time>
      </trkpt>
      <trkpt lat="49.03201" lon="6.05117">
        <ele>174.6165771</ele>
        <time>2012-08-17T09:30:04Z</time>
      </trkpt>
      <trkpt lat="49.0326" lon="6.05131">
        <ele>174.6165771</ele>
        <time>2012-08-17T09:30:11Z</time>
      </trkpt>
      <trkpt lat="49.03315" lon="6.05152">
        <ele>173.6552734</ele>
        <time>2012-08-17T09:30:18Z</time>
      </trkpt>
      <trkpt lat="49.03396" lon="6.05183">
        <ele>173.1746826</ele>
        <time>2012-08-17T09:30:28Z</time>
      </trkpt>
      <trkpt lat="49.03428" lon="6.05196">
        <ele>173.1746826</ele>
        <time>2012-08-17T09:30:32Z</time>
      </trkpt>
      <trkpt lat="49.03507" lon="6.05226">
        <ele>173.1746826</ele>
        <time>2012-08-17T09:30:42Z</time>
      </trkpt>
      <trkpt lat="49.03573" lon="6.05251">
        <ele>173.6552734</ele>
        <time>2012-08-17T09:30:50Z</time>
      </trkpt>
      <trkpt lat="49.03626" lon="6.05276">
        <ele>174.1358643</ele>
        <time>2012-08-17T09:30:57Z</time>
      </trkpt>
      <trkpt lat="49.03672" lon="6.05301">
        <ele>175.5778809</ele>
        <time>2012-08-17T09:31:03Z</time>
      </trkpt>
      <trkpt lat="49.03743" lon="6.05347">
        <ele>174.6165771</ele>
        <time>2012-08-17T09:31:12Z</time>
      </trkpt>
      <trkpt lat="49.03798" lon="6.05387">
        <ele>175.5778809</ele>
        <time>2012-08-17T09:31:19Z</time>
      </trkpt>
      <trkpt lat="49.03866" lon="6.05433">
        <ele>175.5778809</ele>
        <time>2012-08-17T09:31:28Z</time>
      </trkpt>
      <trkpt lat="49.03921" lon="6.05469">
        <ele>175.09729</ele>
        <time>2012-08-17T09:31:35Z</time>
      </trkpt>
      <trkpt lat="49.03993" lon="6.05514">
        <ele>174.6165771</ele>
        <time>2012-08-17T09:31:44Z</time>
      </trkpt>
      <trkpt lat="49.04057" lon="6.05553">
        <ele>175.09729</ele>
        <time>2012-08-17T09:31:52Z</time>
      </trkpt>
      <trkpt lat="49.0412" lon="6.05594">
        <ele>174.6165771</ele>
        <time>2012-08-17T09:32:00Z</time>
      </trkpt>
      <trkpt lat="49.04178" lon="6.05628">
        <ele>175.09729</ele>
        <time>2012-08-17T09:32:07Z</time>
      </trkpt>
      <trkpt lat="49.04253" lon="6.05675">
        <ele>173.1746826</ele>
        <time>2012-08-17T09:32:16Z</time>
      </trkpt>
      <trkpt lat="49.04336" lon="6.05725">
        <ele>172.6939697</ele>
        <time>2012-08-17T09:32:26Z</time>
      </trkpt>
      <trkpt lat="49.04412" lon="6.05767">
        <ele>172.2132568</ele>
        <time>2012-08-17T09:32:35Z</time>
      </trkpt>
      <trkpt lat="49.04489" lon="6.05805">
        <ele>171.2520752</ele>
        <time>2012-08-17T09:32:44Z</time>
      </trkpt>
      <trkpt lat="49.04561" lon="6.0583">
        <ele>171.732666</ele>
        <time>2012-08-17T09:32:52Z</time>
      </trkpt>
      <trkpt lat="49.04646" lon="6.0586">
        <ele>171.732666</ele>
        <time>2012-08-17T09:33:02Z</time>
      </trkpt>
      <trkpt lat="49.04713" lon="6.05883">
        <ele>171.2520752</ele>
        <time>2012-08-17T09:33:10Z</time>
      </trkpt>
      <trkpt lat="49.04791" lon="6.05902">
        <ele>171.2520752</ele>
        <time>2012-08-17T09:33:19Z</time>
      </trkpt>
      <trkpt lat="49.0485" lon="6.05917">
        <ele>170.7713623</ele>
        <time>2012-08-17T09:33:26Z</time>
      </trkpt>
      <trkpt lat="49.04909" lon="6.05934">
        <ele>170.7713623</ele>
        <time>2012-08-17T09:33:33Z</time>
      </trkpt>
      <trkpt lat="49.04953" lon="6.05947">
        <ele>171.2520752</ele>
        <time>2012-08-17T09:33:38Z</time>
      </trkpt>
      <trkpt lat="49.05022" lon="6.05967">
        <ele>172.6939697</ele>
        <time>2012-08-17T09:33:46Z</time>
      </trkpt>
      <trkpt lat="49.0509" lon="6.05984">
        <ele>171.2520752</ele>
        <time>2012-08-17T09:33:54Z</time>
      </trkpt>
      <trkpt lat="49.05148" lon="6.06002">
        <ele>173.1746826</ele>
        <time>2012-08-17T09:34:01Z</time>
      </trkpt>
      <trkpt lat="49.05222" lon="6.06032">
        <ele>170.7713623</ele>
        <time>2012-08-17T09:34:10Z</time>
      </trkpt>
      <trkpt lat="49.05273" lon="6.06041">
        <ele>170.2906494</ele>
        <time>2012-08-17T09:34:16Z</time>
      </trkpt>
      <trkpt lat="49.0529" lon="6.06045">
        <ele>171.2520752</ele>
        <time>2012-08-17T09:34:18Z</time>
      </trkpt>
      <trkpt lat="49.05373" lon="6.06074">
        <ele>170.7713623</ele>
        <time>2012-08-17T09:34:28Z</time>
      </trkpt>
      <trkpt lat="49.0544" lon="6.06107">
        <ele>171.732666</ele>
        <time>2012-08-17T09:34:36Z</time>
      </trkpt>
      <trkpt lat="49.05496" lon="6.06137">
        <ele>170.2906494</ele>
        <time>2012-08-17T09:34:43Z</time>
      </trkpt>
      <trkpt lat="49.05568" lon="6.06164">
        <ele>171.732666</ele>
        <time>2012-08-17T09:34:52Z</time>
      </trkpt>
      <trkpt lat="49.05616" lon="6.06177">
        <ele>171.2520752</ele>
        <time>2012-08-17T09:34:58Z</time>
      </trkpt>
      <trkpt lat="49.05671" lon="6.06194">
        <ele>172.2132568</ele>
        <time>2012-08-17T09:35:05Z</time>
      </trkpt>
      <trkpt lat="49.05721" lon="6.06206">
        <ele>172.6939697</ele>
        <time>2012-08-17T09:35:12Z</time>
      </trkpt>
      <trkpt lat="49.05728" lon="6.06207">
        <ele>172.6939697</ele>
        <time>2012-08-17T09:35:13Z</time>
      </trkpt>
      <trkpt lat="49.05754" lon="6.06225">
        <ele>172.2132568</ele>
        <time>2012-08-17T09:35:17Z</time>
      </trkpt>
      <trkpt lat="49.05768" lon="6.06235">
        <ele>172.2132568</ele>
        <time>2012-08-17T09:35:19Z</time>
      </trkpt>
      <trkpt lat="49.05833" lon="6.06283">
        <ele>170.7713623</ele>
        <time>2012-08-17T09:35:28Z</time>
      </trkpt>
      <trkpt lat="49.05884" lon="6.06335">
        <ele>171.732666</ele>
        <time>2012-08-17T09:35:35Z</time>
      </trkpt>
      <trkpt lat="49.0593" lon="6.06378">
        <ele>170.7713623</ele>
        <time>2012-08-17T09:35:41Z</time>
      </trkpt>
      <trkpt lat="49.05972" lon="6.06416">
        <ele>170.7713623</ele>
        <time>2012-08-17T09:35:47Z</time>
      </trkpt>
      <trkpt lat="49.06009" lon="6.0645">
        <ele>170.7713623</ele>
        <time>2012-08-17T09:35:52Z</time>
      </trkpt>
      <trkpt lat="49.06059" lon="6.06496">
        <ele>170.2906494</ele>
        <time>2012-08-17T09:35:59Z</time>
      </trkpt>
      <trkpt lat="49.06096" lon="6.06533">
        <ele>170.2906494</ele>
        <time>2012-08-17T09:36:04Z</time>
      </trkpt>
      <trkpt lat="49.06145" lon="6.06582">
        <ele>170.7713623</ele>
        <time>2012-08-17T09:36:11Z</time>
      </trkpt>
      <trkpt lat="49.06205" lon="6.06637">
        <ele>170.7713623</ele>
        <time>2012-08-17T09:36:19Z</time>
      </trkpt>
      <trkpt lat="49.06272" lon="6.06695">
        <ele>171.2520752</ele>
        <time>2012-08-17T09:36:28Z</time>
      </trkpt>
      <trkpt lat="49.06324" lon="6.06738">
        <ele>170.7713623</ele>
        <time>2012-08-17T09:36:35Z</time>
      </trkpt>
      <trkpt lat="49.06391" lon="6.06792">
        <ele>171.732666</ele>
        <time>2012-08-17T09:36:44Z</time>
      </trkpt>
      <trkpt lat="49.06464" lon="6.06852">
        <ele>170.2906494</ele>
        <time>2012-08-17T09:36:54Z</time>
      </trkpt>
      <trkpt lat="49.06541" lon="6.06915">
        <ele>170.2906494</ele>
        <time>2012-08-17T09:37:04Z</time>
      </trkpt>
      <trkpt lat="49.06625" lon="6.06985">
        <ele>169.3294678</ele>
        <time>2012-08-17T09:37:15Z</time>
      </trkpt>
      <trkpt lat="49.06692" lon="6.07042">
        <ele>169.8100586</ele>
        <time>2012-08-17T09:37:24Z</time>
      </trkpt>
      <trkpt lat="49.0675" lon="6.07088">
        <ele>170.2906494</ele>
        <time>2012-08-17T09:37:32Z</time>
      </trkpt>
      <trkpt lat="49.0681" lon="6.07133">
        <ele>170.2906494</ele>
        <time>2012-08-17T09:37:40Z</time>
      </trkpt>
      <trkpt lat="49.0689" lon="6.07191">
        <ele>169.8100586</ele>
        <time>2012-08-17T09:37:50Z</time>
      </trkpt>
      <trkpt lat="49.06956" lon="6.07238">
        <ele>169.8100586</ele>
        <time>2012-08-17T09:37:58Z</time>
      </trkpt>
      <trkpt lat="49.07018" lon="6.07283">
        <ele>168.8487549</ele>
        <time>2012-08-17T09:38:06Z</time>
      </trkpt>
      <trkpt lat="49.07047" lon="6.07303">
        <ele>169.8100586</ele>
        <time>2012-08-17T09:38:10Z</time>
      </trkpt>
      <trkpt lat="49.07109" lon="6.07335">
        <ele>169.8100586</ele>
        <time>2012-08-17T09:38:18Z</time>
      </trkpt>
      <trkpt lat="49.07163" lon="6.07364">
        <ele>170.2906494</ele>
        <time>2012-08-17T09:38:25Z</time>
      </trkpt>
      <trkpt lat="49.07206" lon="6.07384">
        <ele>170.7713623</ele>
        <time>2012-08-17T09:38:31Z</time>
      </trkpt>
      <trkpt lat="49.07252" lon="6.07393">
        <ele>169.3294678</ele>
        <time>2012-08-17T09:38:37Z</time>
      </trkpt>
      <trkpt lat="49.0731" lon="6.07398">
        <ele>170.7713623</ele>
        <time>2012-08-17T09:38:45Z</time>
      </trkpt>
      <trkpt lat="49.07353" lon="6.07404">
        <ele>170.2906494</ele>
        <time>2012-08-17T09:38:51Z</time>
      </trkpt>
      <trkpt lat="49.07405" lon="6.07415">
        <ele>170.2906494</ele>
        <time>2012-08-17T09:38:58Z</time>
      </trkpt>
      <trkpt lat="49.07438" lon="6.07435">
        <ele>170.7713623</ele>
        <time>2012-08-17T09:39:03Z</time>
      </trkpt>
      <trkpt lat="49.07473" lon="6.07468">
        <ele>171.732666</ele>
        <time>2012-08-17T09:39:09Z</time>
      </trkpt>
      <trkpt lat="49.07503" lon="6.07513">
        <ele>172.2132568</ele>
        <time>2012-08-17T09:39:16Z</time>
      </trkpt>
      <trkpt lat="49.0751" lon="6.07542">
        <ele>172.2132568</ele>
        <time>2012-08-17T09:39:21Z</time>
      </trkpt>
      <trkpt lat="49.07519" lon="6.07575">
        <ele>172.2132568</ele>
        <time>2012-08-17T09:39:26Z</time>
      </trkpt>
      <trkpt lat="49.07542" lon="6.07591">
        <ele>172.6939697</ele>
        <time>2012-08-17T09:39:30Z</time>
      </trkpt>
      <trkpt lat="49.07553" lon="6.07608">
        <ele>171.732666</ele>
        <time>2012-08-17T09:39:33Z</time>
      </trkpt>
      <trkpt lat="49.07575" lon="6.07649">
        <ele>172.2132568</ele>
        <time>2012-08-17T09:39:40Z</time>
      </trkpt>
      <trkpt lat="49.076" lon="6.07694">
        <ele>170.7713623</ele>
        <time>2012-08-17T09:39:47Z</time>
      </trkpt>
      <trkpt lat="49.07607" lon="6.07709">
        <ele>170.7713623</ele>
        <time>2012-08-17T09:39:52Z</time>
      </trkpt>
      <trkpt lat="49.07622" lon="6.07737">
        <ele>170.2906494</ele>
        <time>2012-08-17T09:39:58Z</time>
      </trkpt>
      <trkpt lat="49.07638" lon="6.07768">
        <ele>171.2520752</ele>
        <time>2012-08-17T09:40:02Z</time>
      </trkpt>
      <trkpt lat="49.07649" lon="6.07795">
        <ele>169.8100586</ele>
        <time>2012-08-17T09:40:05Z</time>
      </trkpt>
      <trkpt lat="49.0767" lon="6.07844">
        <ele>169.8100586</ele>
        <time>2012-08-17T09:40:10Z</time>
      </trkpt>
      <trkpt lat="49.07689" lon="6.07902">
        <ele>169.8100586</ele>
        <time>2012-08-17T09:40:16Z</time>
      </trkpt>
      <trkpt lat="49.07718" lon="6.07984">
        <ele>169.8100586</ele>
        <time>2012-08-17T09:40:24Z</time>
      </trkpt>
      <trkpt lat="49.07741" lon="6.0804">
        <ele>169.8100586</ele>
        <time>2012-08-17T09:40:30Z</time>
      </trkpt>
      <trkpt lat="49.07782" lon="6.08112">
        <ele>169.3294678</ele>
        <time>2012-08-17T09:40:39Z</time>
      </trkpt>
      <trkpt lat="49.07824" lon="6.08174">
        <ele>169.3294678</ele>
        <time>2012-08-17T09:40:47Z</time>
      </trkpt>
      <trkpt lat="49.07875" lon="6.08244">
        <ele>170.7713623</ele>
        <time>2012-08-17T09:40:56Z</time>
      </trkpt>
      <trkpt lat="49.07913" lon="6.0829">
        <ele>169.8100586</ele>
        <time>2012-08-17T09:41:03Z</time>
      </trkpt>
      <trkpt lat="49.07961" lon="6.08339">
        <ele>172.2132568</ele>
        <time>2012-08-17T09:41:11Z</time>
      </trkpt>
      <trkpt lat="49.08015" lon="6.08393">
        <ele>171.2520752</ele>
        <time>2012-08-17T09:41:20Z</time>
      </trkpt>
      <trkpt lat="49.08075" lon="6.0845">
        <ele>169.8100586</ele>
        <time>2012-08-17T09:41:29Z</time>
      </trkpt>
      <trkpt lat="49.08122" lon="6.08493">
        <ele>170.2906494</ele>
        <time>2012-08-17T09:41:36Z</time>
      </trkpt>
      <trkpt lat="49.08175" lon="6.08542">
        <ele>169.8100586</ele>
        <time>2012-08-17T09:41:44Z</time>
      </trkpt>
      <trkpt lat="49.08233" lon="6.08598">
        <ele>169.8100586</ele>
        <time>2012-08-17T09:41:53Z</time>
      </trkpt>
      <trkpt lat="49.08272" lon="6.08635">
        <ele>170.2906494</ele>
        <time>2012-08-17T09:41:59Z</time>
      </trkpt>
      <trkpt lat="49.08338" lon="6.08696">
        <ele>170.2906494</ele>
        <time>2012-08-17T09:42:09Z</time>
      </trkpt>
      <trkpt lat="49.08397" lon="6.0875">
        <ele>169.8100586</ele>
        <time>2012-08-17T09:42:18Z</time>
      </trkpt>
      <trkpt lat="49.0841" lon="6.08763">
        <ele>170.7713623</ele>
        <time>2012-08-17T09:42:20Z</time>
      </trkpt>
      <trkpt lat="49.08462" lon="6.08818">
        <ele>169.3294678</ele>
        <time>2012-08-17T09:42:28Z</time>
      </trkpt>
      <trkpt lat="49.08503" lon="6.08852">
        <ele>169.8100586</ele>
        <time>2012-08-17T09:42:34Z</time>
      </trkpt>
      <trkpt lat="49.08542" lon="6.0889">
        <ele>171.732666</ele>
        <time>2012-08-17T09:42:40Z</time>
      </trkpt>
      <trkpt lat="49.0857" lon="6.08915">
        <ele>169.3294678</ele>
        <time>2012-08-17T09:42:44Z</time>
      </trkpt>
      <trkpt lat="49.08621" lon="6.08963">
        <ele>169.3294678</ele>
        <time>2012-08-17T09:42:51Z</time>
      </trkpt>
      <trkpt lat="49.08687" lon="6.09023">
        <ele>170.2906494</ele>
        <time>2012-08-17T09:43:00Z</time>
      </trkpt>
      <trkpt lat="49.08749" lon="6.09076">
        <ele>169.8100586</ele>
        <time>2012-08-17T09:43:09Z</time>
      </trkpt>
      <trkpt lat="49.08796" lon="6.09113">
        <ele>169.8100586</ele>
        <time>2012-08-17T09:43:16Z</time>
      </trkpt>
      <trkpt lat="49.08855" lon="6.09159">
        <ele>169.8100586</ele>
        <time>2012-08-17T09:43:24Z</time>
      </trkpt>
      <trkpt lat="49.08915" lon="6.09206">
        <ele>168.8487549</ele>
        <time>2012-08-17T09:43:32Z</time>
      </trkpt>
      <trkpt lat="49.08976" lon="6.09256">
        <ele>169.3294678</ele>
        <time>2012-08-17T09:43:40Z</time>
      </trkpt>
      <trkpt lat="49.09021" lon="6.09291">
        <ele>169.3294678</ele>
        <time>2012-08-17T09:43:46Z</time>
      </trkpt>
      <trkpt lat="49.0908" lon="6.09337">
        <ele>169.8100586</ele>
        <time>2012-08-17T09:43:54Z</time>
      </trkpt>
      <trkpt lat="49.09138" lon="6.09383">
        <ele>168.8487549</ele>
        <time>2012-08-17T09:44:02Z</time>
      </trkpt>
      <trkpt lat="49.09181" lon="6.09413">
        <ele>170.7713623</ele>
        <time>2012-08-17T09:44:08Z</time>
      </trkpt>
      <trkpt lat="49.09209" lon="6.09431">
        <ele>169.3294678</ele>
        <time>2012-08-17T09:44:12Z</time>
      </trkpt>
      <trkpt lat="49.09247" lon="6.09454">
        <ele>168.8487549</ele>
        <time>2012-08-17T09:44:17Z</time>
      </trkpt>
      <trkpt lat="49.09254" lon="6.09458">
        <ele>168.8487549</ele>
        <time>2012-08-17T09:44:18Z</time>
      </trkpt>
      <trkpt lat="49.09284" lon="6.09477">
        <ele>172.2132568</ele>
        <time>2012-08-17T09:44:22Z</time>
      </trkpt>
      <trkpt lat="49.093" lon="6.09487">
        <ele>168.8487549</ele>
        <time>2012-08-17T09:44:24Z</time>
      </trkpt>
      <trkpt lat="49.0935" lon="6.0952">
        <ele>168.8487549</ele>
        <time>2012-08-17T09:44:30Z</time>
      </trkpt>
      <trkpt lat="49.09386" lon="6.09553">
        <ele>170.2906494</ele>
        <time>2012-08-17T09:44:35Z</time>
      </trkpt>
      <trkpt lat="49.094" lon="6.09568">
        <ele>169.3294678</ele>
        <time>2012-08-17T09:44:37Z</time>
      </trkpt>
      <trkpt lat="49.0944" lon="6.09618">
        <ele>169.3294678</ele>
        <time>2012-08-17T09:44:43Z</time>
      </trkpt>
      <trkpt lat="49.09472" lon="6.09669">
        <ele>168.8487549</ele>
        <time>2012-08-17T09:44:49Z</time>
      </trkpt>
      <trkpt lat="49.09512" lon="6.09738">
        <ele>169.8100586</ele>
        <time>2012-08-17T09:44:57Z</time>
      </trkpt>
      <trkpt lat="49.09541" lon="6.09788">
        <ele>168.368042</ele>
        <time>2012-08-17T09:45:03Z</time>
      </trkpt>
      <trkpt lat="49.09568" lon="6.0983">
        <ele>168.8487549</ele>
        <time>2012-08-17T09:45:08Z</time>
      </trkpt>
      <trkpt lat="49.09608" lon="6.09896">
        <ele>169.3294678</ele>
        <time>2012-08-17T09:45:16Z</time>
      </trkpt>
      <trkpt lat="49.09647" lon="6.09959">
        <ele>169.3294678</ele>
        <time>2012-08-17T09:45:23Z</time>
      </trkpt>
      <trkpt lat="49.09687" lon="6.10031">
        <ele>168.8487549</ele>
        <time>2012-08-17T09:45:31Z</time>
      </trkpt>
      <trkpt lat="49.0972" lon="6.10115">
        <ele>168.8487549</ele>
        <time>2012-08-17T09:45:39Z</time>
      </trkpt>
      <trkpt lat="49.09742" lon="6.10188">
        <ele>168.8487549</ele>
        <time>2012-08-17T09:45:46Z</time>
      </trkpt>
      <trkpt lat="49.09753" lon="6.1023">
        <ele>169.3294678</ele>
        <time>2012-08-17T09:45:50Z</time>
      </trkpt>
      <trkpt lat="49.09767" lon="6.10285">
        <ele>169.3294678</ele>
        <time>2012-08-17T09:45:55Z</time>
      </trkpt>
      <trkpt lat="49.09789" lon="6.10364">
        <ele>169.8100586</ele>
        <time>2012-08-17T09:46:02Z</time>
      </trkpt>
      <trkpt lat="49.09824" lon="6.10452">
        <ele>169.3294678</ele>
        <time>2012-08-17T09:46:10Z</time>
      </trkpt>
      <trkpt lat="49.09864" lon="6.10531">
        <ele>169.3294678</ele>
        <time>2012-08-17T09:46:18Z</time>
      </trkpt>
      <trkpt lat="49.0991" lon="6.10597">
        <ele>169.3294678</ele>
        <time>2012-08-17T09:46:26Z</time>
      </trkpt>
      <trkpt lat="49.09953" lon="6.10647">
        <ele>169.3294678</ele>
        <time>2012-08-17T09:46:33Z</time>
      </trkpt>
      <trkpt lat="49.09997" lon="6.10691">
        <ele>168.368042</ele>
        <time>2012-08-17T09:46:40Z</time>
      </trkpt>
      <trkpt lat="49.10047" lon="6.10739">
        <ele>168.8487549</ele>
        <time>2012-08-17T09:46:48Z</time>
      </trkpt>
      <trkpt lat="49.10083" lon="6.10778">
        <ele>168.368042</ele>
        <time>2012-08-17T09:46:54Z</time>
      </trkpt>
      <trkpt lat="49.10115" lon="6.10824">
        <ele>168.368042</ele>
        <time>2012-08-17T09:47:00Z</time>
      </trkpt>
      <trkpt lat="49.1014" lon="6.1088">
        <ele>168.368042</ele>
        <time>2012-08-17T09:47:06Z</time>
      </trkpt>
      <trkpt lat="49.10166" lon="6.10931">
        <ele>168.8487549</ele>
        <time>2012-08-17T09:47:12Z</time>
      </trkpt>
      <trkpt lat="49.10195" lon="6.1097">
        <ele>169.3294678</ele>
        <time>2012-08-17T09:47:18Z</time>
      </trkpt>
      <trkpt lat="49.10227" lon="6.11002">
        <ele>170.2906494</ele>
        <time>2012-08-17T09:47:25Z</time>
      </trkpt>
      <trkpt lat="49.1025" lon="6.11022">
        <ele>170.7713623</ele>
        <time>2012-08-17T09:47:32Z</time>
      </trkpt>
      <trkpt lat="49.10262" lon="6.11031">
        <ele>170.2906494</ele>
        <time>2012-08-17T09:47:38Z</time>
      </trkpt>
      <trkpt lat="49.10264" lon="6.11034">
        <ele>169.8100586</ele>
        <time>2012-08-17T09:47:41Z</time>
      </trkpt>
      <trkpt lat="49.10265" lon="6.11034">
        <ele>169.3294678</ele>
        <time>2012-08-17T09:49:03Z</time>
      </trkpt>
      <trkpt lat="49.10266" lon="6.11035">
        <ele>169.8100586</ele>
        <time>2012-08-17T09:49:04Z</time>
      </trkpt>
      <trkpt lat="49.1028" lon="6.11046">
        <ele>169.8100586</ele>
        <time>2012-08-17T09:49:08Z</time>
      </trkpt>
      <trkpt lat="49.10304" lon="6.11058">
        <ele>169.8100586</ele>
        <time>2012-08-17T09:49:13Z</time>
      </trkpt>
      <trkpt lat="49.10344" lon="6.11079">
        <ele>169.3294678</ele>
        <time>2012-08-17T09:49:20Z</time>
      </trkpt>
      <trkpt lat="49.10385" lon="6.11088">
        <ele>168.8487549</ele>
        <time>2012-08-17T09:49:26Z</time>
      </trkpt>
      <trkpt lat="49.10426" lon="6.11089">
        <ele>169.3294678</ele>
        <time>2012-08-17T09:49:31Z</time>
      </trkpt>
      <trkpt lat="49.10485" lon="6.11082">
        <ele>168.8487549</ele>
        <time>2012-08-17T09:49:38Z</time>
      </trkpt>
      <trkpt lat="49.10544" lon="6.11072">
        <ele>169.8100586</ele>
        <time>2012-08-17T09:49:46Z</time>
      </trkpt>
      <trkpt lat="49.10597" lon="6.11064">
        <ele>169.3294678</ele>
        <time>2012-08-17T09:49:54Z</time>
      </trkpt>
      <trkpt lat="49.10615" lon="6.11062">
        <ele>169.3294678</ele>
        <time>2012-08-17T09:49:57Z</time>
      </trkpt>
      <trkpt lat="49.10634" lon="6.11078">
        <ele>170.2906494</ele>
        <time>2012-08-17T09:50:01Z</time>
      </trkpt>
      <trkpt lat="49.10641" lon="6.11105">
        <ele>168.8487549</ele>
        <time>2012-08-17T09:50:04Z</time>
      </trkpt>
      <trkpt lat="49.10651" lon="6.11178">
        <ele>170.2906494</ele>
        <time>2012-08-17T09:50:11Z</time>
      </trkpt>
      <trkpt lat="49.10665" lon="6.1125">
        <ele>168.8487549</ele>
        <time>2012-08-17T09:50:18Z</time>
      </trkpt>
      <trkpt lat="49.1068" lon="6.11326">
        <ele>168.368042</ele>
        <time>2012-08-17T09:50:25Z</time>
      </trkpt>
      <trkpt lat="49.10687" lon="6.11358">
        <ele>169.8100586</ele>
        <time>2012-08-17T09:50:28Z</time>
      </trkpt>
      <trkpt lat="49.10697" lon="6.11422">
        <ele>169.8100586</ele>
        <time>2012-08-17T09:50:34Z</time>
      </trkpt>
      <trkpt lat="49.10705" lon="6.11465">
        <ele>170.7713623</ele>
        <time>2012-08-17T09:50:38Z</time>
      </trkpt>
      <trkpt lat="49.10723" lon="6.11554">
        <ele>169.3294678</ele>
        <time>2012-08-17T09:50:46Z</time>
      </trkpt>
      <trkpt lat="49.10743" lon="6.11645">
        <ele>168.8487549</ele>
        <time>2012-08-17T09:50:54Z</time>
      </trkpt>
      <trkpt lat="49.10766" lon="6.11743">
        <ele>169.8100586</ele>
        <time>2012-08-17T09:51:03Z</time>
      </trkpt>
      <trkpt lat="49.10782" lon="6.11828">
        <ele>168.8487549</ele>
        <time>2012-08-17T09:51:11Z</time>
      </trkpt>
      <trkpt lat="49.10798" lon="6.11914">
        <ele>168.8487549</ele>
        <time>2012-08-17T09:51:19Z</time>
      </trkpt>
      <trkpt lat="49.10814" lon="6.11991">
        <ele>169.3294678</ele>
        <time>2012-08-17T09:51:26Z</time>
      </trkpt>
      <trkpt lat="49.10824" lon="6.12037">
        <ele>168.368042</ele>
        <time>2012-08-17T09:51:31Z</time>
      </trkpt>
      <trkpt lat="49.10839" lon="6.12087">
        <ele>167.8873291</ele>
        <time>2012-08-17T09:51:37Z</time>
      </trkpt>
      <trkpt lat="49.10843" lon="6.12105">
        <ele>167.8873291</ele>
        <time>2012-08-17T09:51:41Z</time>
      </trkpt>
      <trkpt lat="49.10846" lon="6.12112">
        <ele>167.8873291</ele>
        <time>2012-08-17T09:51:46Z</time>
      </trkpt>
      <trkpt lat="49.10846" lon="6.12112">
        <ele>167.8873291</ele>
        <time>2012-08-17T09:51:47Z</time>
      </trkpt>
      <trkpt lat="49.10845" lon="6.1211">
        <ele>167.8873291</ele>
        <time>2012-08-17T09:51:54Z</time>
      </trkpt>
      <trkpt lat="49.10847" lon="6.12113">
        <ele>168.368042</ele>
        <time>2012-08-17T09:51:55Z</time>
      </trkpt>
      <trkpt lat="49.1085" lon="6.12135">
        <ele>168.368042</ele>
        <time>2012-08-17T09:52:00Z</time>
      </trkpt>
      <trkpt lat="49.10855" lon="6.1217">
        <ele>169.3294678</ele>
        <time>2012-08-17T09:52:05Z</time>
      </trkpt>
      <trkpt lat="49.10868" lon="6.12235">
        <ele>168.8487549</ele>
        <time>2012-08-17T09:52:13Z</time>
      </trkpt>
      <trkpt lat="49.10887" lon="6.12319">
        <ele>168.8487549</ele>
        <time>2012-08-17T09:52:22Z</time>
      </trkpt>
      <trkpt lat="49.10905" lon="6.12389">
        <ele>168.8487549</ele>
        <time>2012-08-17T09:52:29Z</time>
      </trkpt>
      <trkpt lat="49.10923" lon="6.12467">
        <ele>167.8873291</ele>
        <time>2012-08-17T09:52:37Z</time>
      </trkpt>
      <trkpt lat="49.10942" lon="6.12547">
        <ele>169.8100586</ele>
        <time>2012-08-17T09:52:45Z</time>
      </trkpt>
      <trkpt lat="49.10953" lon="6.12595">
        <ele>169.3294678</ele>
        <time>2012-08-17T09:52:50Z</time>
      </trkpt>
      <trkpt lat="49.10982" lon="6.12682">
        <ele>168.368042</ele>
        <time>2012-08-17T09:52:59Z</time>
      </trkpt>
      <trkpt lat="49.11006" lon="6.12755">
        <ele>169.3294678</ele>
        <time>2012-08-17T09:53:07Z</time>
      </trkpt>
      <trkpt lat="49.11027" lon="6.12821">
        <ele>170.2906494</ele>
        <time>2012-08-17T09:53:14Z</time>
      </trkpt>
      <trkpt lat="49.1105" lon="6.12887">
        <ele>169.3294678</ele>
        <time>2012-08-17T09:53:21Z</time>
      </trkpt>
      <trkpt lat="49.11071" lon="6.12948">
        <ele>168.368042</ele>
        <time>2012-08-17T09:53:27Z</time>
      </trkpt>
      <trkpt lat="49.11098" lon="6.13028">
        <ele>169.8100586</ele>
        <time>2012-08-17T09:53:35Z</time>
      </trkpt>
      <trkpt lat="49.11142" lon="6.13144">
        <ele>168.8487549</ele>
        <time>2012-08-17T09:53:47Z</time>
      </trkpt>
      <trkpt lat="49.11169" lon="6.13217">
        <ele>168.8487549</ele>
        <time>2012-08-17T09:53:55Z</time>
      </trkpt>
      <trkpt lat="49.11195" lon="6.13292">
        <ele>169.3294678</ele>
        <time>2012-08-17T09:54:03Z</time>
      </trkpt>
      <trkpt lat="49.11214" lon="6.1335">
        <ele>169.3294678</ele>
        <time>2012-08-17T09:54:09Z</time>
      </trkpt>
      <trkpt lat="49.11224" lon="6.1338">
        <ele>170.7713623</ele>
        <time>2012-08-17T09:54:12Z</time>
      </trkpt>
      <trkpt lat="49.11243" lon="6.13434">
        <ele>169.8100586</ele>
        <time>2012-08-17T09:54:18Z</time>
      </trkpt>
      <trkpt lat="49.11265" lon="6.13492">
        <ele>169.3294678</ele>
        <time>2012-08-17T09:54:25Z</time>
      </trkpt>
      <trkpt lat="49.11283" lon="6.13546">
        <ele>169.8100586</ele>
        <time>2012-08-17T09:54:31Z</time>
      </trkpt>
      <trkpt lat="49.11302" lon="6.13599">
        <ele>170.7713623</ele>
        <time>2012-08-17T09:54:37Z</time>
      </trkpt>
      <trkpt lat="49.11326" lon="6.13665">
        <ele>170.2906494</ele>
        <time>2012-08-17T09:54:45Z</time>
      </trkpt>
      <trkpt lat="49.11344" lon="6.1371">
        <ele>169.3294678</ele>
        <time>2012-08-17T09:54:52Z</time>
      </trkpt>
      <trkpt lat="49.11348" lon="6.13725">
        <ele>168.368042</ele>
        <time>2012-08-17T09:54:56Z</time>
      </trkpt>
      <trkpt lat="49.11349" lon="6.13724">
        <ele>168.368042</ele>
        <time>2012-08-17T09:55:00Z</time>
      </trkpt>
      <trkpt lat="49.11348" lon="6.13724">
        <ele>167.8873291</ele>
        <time>2012-08-17T09:55:15Z</time>
      </trkpt>
      <trkpt lat="49.11349" lon="6.13725">
        <ele>168.368042</ele>
        <time>2012-08-17T09:55:16Z</time>
      </trkpt>
      <trkpt lat="49.11354" lon="6.13734">
        <ele>168.368042</ele>
        <time>2012-08-17T09:55:19Z</time>
      </trkpt>
      <trkpt lat="49.11364" lon="6.13761">
        <ele>168.368042</ele>
        <time>2012-08-17T09:55:24Z</time>
      </trkpt>
      <trkpt lat="49.11377" lon="6.13804">
        <ele>167.8873291</ele>
        <time>2012-08-17T09:55:30Z</time>
      </trkpt>
      <trkpt lat="49.11393" lon="6.13848">
        <ele>167.8873291</ele>
        <time>2012-08-17T09:55:37Z</time>
      </trkpt>
      <trkpt lat="49.11409" lon="6.13892">
        <ele>169.3294678</ele>
        <time>2012-08-17T09:55:43Z</time>
      </trkpt>
      <trkpt lat="49.11426" lon="6.13943">
        <ele>168.8487549</ele>
        <time>2012-08-17T09:55:49Z</time>
      </trkpt>
      <trkpt lat="49.1143" lon="6.13952">
        <ele>169.8100586</ele>
        <time>2012-08-17T09:55:50Z</time>
      </trkpt>
      <trkpt lat="49.11459" lon="6.13997">
        <ele>170.2906494</ele>
        <time>2012-08-17T09:55:56Z</time>
      </trkpt>
      <trkpt lat="49.11475" lon="6.14018">
        <ele>170.2906494</ele>
        <time>2012-08-17T09:55:59Z</time>
      </trkpt>
      <trkpt lat="49.11513" lon="6.14048">
        <ele>169.3294678</ele>
        <time>2012-08-17T09:56:05Z</time>
      </trkpt>
      <trkpt lat="49.11539" lon="6.14066">
        <ele>168.368042</ele>
        <time>2012-08-17T09:56:09Z</time>
      </trkpt>
      <trkpt lat="49.11599" lon="6.14104">
        <ele>168.8487549</ele>
        <time>2012-08-17T09:56:18Z</time>
      </trkpt>
      <trkpt lat="49.11631" lon="6.14124">
        <ele>168.8487549</ele>
        <time>2012-08-17T09:56:23Z</time>
      </trkpt>
      <trkpt lat="49.11647" lon="6.14141">
        <ele>167.8873291</ele>
        <time>2012-08-17T09:56:27Z</time>
      </trkpt>
      <trkpt lat="49.11651" lon="6.14146">
        <ele>167.8873291</ele>
        <time>2012-08-17T09:56:30Z</time>
      </trkpt>
      <trkpt lat="49.1165" lon="6.14145">
        <ele>167.8873291</ele>
        <time>2012-08-17T09:56:31Z</time>
      </trkpt>
      <trkpt lat="49.11651" lon="6.14145">
        <ele>167.4067383</ele>
        <time>2012-08-17T09:57:05Z</time>
      </trkpt>
      <trkpt lat="49.11657" lon="6.14148">
        <ele>166.9260254</ele>
        <time>2012-08-17T09:57:08Z</time>
      </trkpt>
      <trkpt lat="49.11679" lon="6.14167">
        <ele>167.4067383</ele>
        <time>2012-08-17T09:57:15Z</time>
      </trkpt>
      <trkpt lat="49.11708" lon="6.14195">
        <ele>168.368042</ele>
        <time>2012-08-17T09:57:21Z</time>
      </trkpt>
      <trkpt lat="49.11752" lon="6.1424">
        <ele>169.3294678</ele>
        <time>2012-08-17T09:57:29Z</time>
      </trkpt>
      <trkpt lat="49.11804" lon="6.14297">
        <ele>171.2520752</ele>
        <time>2012-08-17T09:57:39Z</time>
      </trkpt>
      <trkpt lat="49.11839" lon="6.14335">
        <ele>173.1746826</ele>
        <time>2012-08-17T09:57:46Z</time>
      </trkpt>
      <trkpt lat="49.11854" lon="6.14351">
        <ele>173.6552734</ele>
        <time>2012-08-17T09:57:49Z</time>
      </trkpt>
      <trkpt lat="49.11868" lon="6.1438">
        <ele>174.1358643</ele>
        <time>2012-08-17T09:57:53Z</time>
      </trkpt>
      <trkpt lat="49.11866" lon="6.14406">
        <ele>175.09729</ele>
        <time>2012-08-17T09:57:56Z</time>
      </trkpt>
      <trkpt lat="49.11864" lon="6.14415">
        <ele>174.6165771</ele>
        <time>2012-08-17T09:57:57Z</time>
      </trkpt>
      <trkpt lat="49.11828" lon="6.14509">
        <ele>177.0200195</ele>
        <time>2012-08-17T09:58:09Z</time>
      </trkpt>
      <trkpt lat="49.11802" lon="6.14582">
        <ele>176.5393066</ele>
        <time>2012-08-17T09:58:18Z</time>
      </trkpt>
      <trkpt lat="49.11772" lon="6.1466">
        <ele>176.5393066</ele>
        <time>2012-08-17T09:58:27Z</time>
      </trkpt>
      <trkpt lat="49.11745" lon="6.14732">
        <ele>175.5778809</ele>
        <time>2012-08-17T09:58:35Z</time>
      </trkpt>
      <trkpt lat="49.11717" lon="6.14806">
        <ele>173.6552734</ele>
        <time>2012-08-17T09:58:42Z</time>
      </trkpt>
      <trkpt lat="49.11694" lon="6.14863">
        <ele>170.2906494</ele>
        <time>2012-08-17T09:58:47Z</time>
      </trkpt>
      <trkpt lat="49.11665" lon="6.14931">
        <ele>169.3294678</ele>
        <time>2012-08-17T09:58:53Z</time>
      </trkpt>
      <trkpt lat="49.11635" lon="6.14988">
        <ele>169.3294678</ele>
        <time>2012-08-17T09:58:59Z</time>
      </trkpt>
      <trkpt lat="49.11627" lon="6.15008">
        <ele>171.2520752</ele>
        <time>2012-08-17T09:59:01Z</time>
      </trkpt>
      <trkpt lat="49.11606" lon="6.15054">
        <ele>167.8873291</ele>
        <time>2012-08-17T09:59:06Z</time>
      </trkpt>
      <trkpt lat="49.11602" lon="6.15064">
        <ele>168.8487549</ele>
        <time>2012-08-17T09:59:07Z</time>
      </trkpt>
      <trkpt lat="49.11571" lon="6.1513">
        <ele>169.3294678</ele>
        <time>2012-08-17T09:59:14Z</time>
      </trkpt>
      <trkpt lat="49.11553" lon="6.15167">
        <ele>170.2906494</ele>
        <time>2012-08-17T09:59:18Z</time>
      </trkpt>
      <trkpt lat="49.11529" lon="6.15224">
        <ele>169.3294678</ele>
        <time>2012-08-17T09:59:24Z</time>
      </trkpt>
      <trkpt lat="49.11502" lon="6.15293">
        <ele>168.8487549</ele>
        <time>2012-08-17T09:59:31Z</time>
      </trkpt>
      <trkpt lat="49.11491" lon="6.15307">
        <ele>169.8100586</ele>
        <time>2012-08-17T09:59:33Z</time>
      </trkpt>
      <trkpt lat="49.11465" lon="6.15357">
        <ele>169.8100586</ele>
        <time>2012-08-17T09:59:39Z</time>
      </trkpt>
      <trkpt lat="49.11451" lon="6.15392">
        <ele>170.7713623</ele>
        <time>2012-08-17T09:59:43Z</time>
      </trkpt>
      <trkpt lat="49.11434" lon="6.15421">
        <ele>169.3294678</ele>
        <time>2012-08-17T09:59:48Z</time>
      </trkpt>
      <trkpt lat="49.11431" lon="6.15431">
        <ele>168.8487549</ele>
        <time>2012-08-17T09:59:52Z</time>
      </trkpt>
      <trkpt lat="49.1143" lon="6.15431">
        <ele>167.8873291</ele>
        <time>2012-08-17T09:59:54Z</time>
      </trkpt>
      <trkpt lat="49.1143" lon="6.15432">
        <ele>168.8487549</ele>
        <time>2012-08-17T09:59:57Z</time>
      </trkpt>
      <trkpt lat="49.1143" lon="6.15432">
        <ele>168.8487549</ele>
        <time>2012-08-17T09:59:59Z</time>
      </trkpt>
      <trkpt lat="49.11427" lon="6.15432">
        <ele>169.3294678</ele>
        <time>2012-08-17T10:00:10Z</time>
      </trkpt>
      <trkpt lat="49.11427" lon="6.15434">
        <ele>169.8100586</ele>
        <time>2012-08-17T10:00:11Z</time>
      </trkpt>
      <trkpt lat="49.11419" lon="6.1545">
        <ele>169.3294678</ele>
        <time>2012-08-17T10:00:15Z</time>
      </trkpt>
      <trkpt lat="49.11406" lon="6.15481">
        <ele>169.8100586</ele>
        <time>2012-08-17T10:00:20Z</time>
      </trkpt>
      <trkpt lat="49.11375" lon="6.1555">
        <ele>169.8100586</ele>
        <time>2012-08-17T10:00:29Z</time>
      </trkpt>
      <trkpt lat="49.11346" lon="6.1561">
        <ele>169.3294678</ele>
        <time>2012-08-17T10:00:36Z</time>
      </trkpt>
      <trkpt lat="49.11331" lon="6.15646">
        <ele>169.3294678</ele>
        <time>2012-08-17T10:00:40Z</time>
      </trkpt>
      <trkpt lat="49.11321" lon="6.15675">
        <ele>170.2906494</ele>
        <time>2012-08-17T10:00:43Z</time>
      </trkpt>
      <trkpt lat="49.11286" lon="6.1575">
        <ele>170.7713623</ele>
        <time>2012-08-17T10:00:52Z</time>
      </trkpt>
      <trkpt lat="49.11254" lon="6.15814">
        <ele>170.7713623</ele>
        <time>2012-08-17T10:01:00Z</time>
      </trkpt>
      <trkpt lat="49.11237" lon="6.15847">
        <ele>171.2520752</ele>
        <time>2012-08-17T10:01:04Z</time>
      </trkpt>
      <trkpt lat="49.11203" lon="6.15918">
        <ele>170.2906494</ele>
        <time>2012-08-17T10:01:12Z</time>
      </trkpt>
      <trkpt lat="49.11186" lon="6.15955">
        <ele>170.7713623</ele>
        <time>2012-08-17T10:01:17Z</time>
      </trkpt>
      <trkpt lat="49.11166" lon="6.16005">
        <ele>170.7713623</ele>
        <time>2012-08-17T10:01:23Z</time>
      </trkpt>
      <trkpt lat="49.11157" lon="6.16025">
        <ele>170.7713623</ele>
        <time>2012-08-17T10:01:27Z</time>
      </trkpt>
      <trkpt lat="49.11155" lon="6.16027">
        <ele>170.7713623</ele>
        <time>2012-08-17T10:01:28Z</time>
      </trkpt>
      <trkpt lat="49.11153" lon="6.16028">
        <ele>170.2906494</ele>
        <time>2012-08-17T10:01:30Z</time>
      </trkpt>
      <trkpt lat="49.1115" lon="6.16037">
        <ele>170.7713623</ele>
        <time>2012-08-17T10:01:43Z</time>
      </trkpt>
      <trkpt lat="49.11146" lon="6.16048">
        <ele>170.7713623</ele>
        <time>2012-08-17T10:01:47Z</time>
      </trkpt>
      <trkpt lat="49.11144" lon="6.16058">
        <ele>171.2520752</ele>
        <time>2012-08-17T10:01:49Z</time>
      </trkpt>
      <trkpt lat="49.11127" lon="6.16101">
        <ele>171.732666</ele>
        <time>2012-08-17T10:01:56Z</time>
      </trkpt>
      <trkpt lat="49.11124" lon="6.16108">
        <ele>172.2132568</ele>
        <time>2012-08-17T10:01:57Z</time>
      </trkpt>
      <trkpt lat="49.11115" lon="6.1614">
        <ele>174.1358643</ele>
        <time>2012-08-17T10:02:01Z</time>
      </trkpt>
      <trkpt lat="49.11098" lon="6.16188">
        <ele>175.5778809</ele>
        <time>2012-08-17T10:02:07Z</time>
      </trkpt>
      <trkpt lat="49.1108" lon="6.16222">
        <ele>176.5393066</ele>
        <time>2012-08-17T10:02:12Z</time>
      </trkpt>
      <trkpt lat="49.11052" lon="6.16277">
        <ele>177.5006104</ele>
        <time>2012-08-17T10:02:20Z</time>
      </trkpt>
      <trkpt lat="49.11027" lon="6.16329">
        <ele>179.4232178</ele>
        <time>2012-08-17T10:02:28Z</time>
      </trkpt>
      <trkpt lat="49.11012" lon="6.16353">
        <ele>179.9038086</ele>
        <time>2012-08-17T10:02:32Z</time>
      </trkpt>
      <trkpt lat="49.10999" lon="6.16365">
        <ele>179.9038086</ele>
        <time>2012-08-17T10:02:35Z</time>
      </trkpt>
      <trkpt lat="49.10985" lon="6.16392">
        <ele>180.3845215</ele>
        <time>2012-08-17T10:02:39Z</time>
      </trkpt>
      <trkpt lat="49.10967" lon="6.16429">
        <ele>180.8652344</ele>
        <time>2012-08-17T10:02:44Z</time>
      </trkpt>
      <trkpt lat="49.10961" lon="6.16441">
        <ele>181.3458252</ele>
        <time>2012-08-17T10:02:46Z</time>
      </trkpt>
      <trkpt lat="49.10942" lon="6.16473">
        <ele>181.826416</ele>
        <time>2012-08-17T10:02:52Z</time>
      </trkpt>
      <trkpt lat="49.10914" lon="6.16525">
        <ele>182.3071289</ele>
        <time>2012-08-17T10:03:00Z</time>
      </trkpt>
      <trkpt lat="49.10896" lon="6.16566">
        <ele>184.2298584</ele>
        <time>2012-08-17T10:03:06Z</time>
      </trkpt>
      <trkpt lat="49.10892" lon="6.16578">
        <ele>184.7105713</ele>
        <time>2012-08-17T10:03:08Z</time>
      </trkpt>
      <trkpt lat="49.10877" lon="6.16614">
        <ele>186.1524658</ele>
        <time>2012-08-17T10:03:14Z</time>
      </trkpt>
      <trkpt lat="49.10863" lon="6.16634">
        <ele>186.1524658</ele>
        <time>2012-08-17T10:03:19Z</time>
      </trkpt>
      <trkpt lat="49.10852" lon="6.16624">
        <ele>186.1524658</ele>
        <time>2012-08-17T10:03:21Z</time>
      </trkpt>
      <trkpt lat="49.10816" lon="6.16595">
        <ele>185.6717529</ele>
        <time>2012-08-17T10:03:27Z</time>
      </trkpt>
      <trkpt lat="49.10803" lon="6.16589">
        <ele>186.1524658</ele>
        <time>2012-08-17T10:03:31Z</time>
      </trkpt>
      <trkpt lat="49.10794" lon="6.16582">
        <ele>186.1524658</ele>
        <time>2012-08-17T10:03:37Z</time>
      </trkpt>
      <trkpt lat="49.10788" lon="6.16595">
        <ele>186.1524658</ele>
        <time>2012-08-17T10:03:41Z</time>
      </trkpt>
      <trkpt lat="49.10774" lon="6.16618">
        <ele>187.1137695</ele>
        <time>2012-08-17T10:03:45Z</time>
      </trkpt>
      <trkpt lat="49.10765" lon="6.16628">
        <ele>186.1524658</ele>
        <time>2012-08-17T10:03:47Z</time>
      </trkpt>
      <trkpt lat="49.10752" lon="6.16644">
        <ele>186.1524658</ele>
        <time>2012-08-17T10:03:50Z</time>
      </trkpt>
      <trkpt lat="49.10737" lon="6.16667">
        <ele>186.6331787</ele>
        <time>2012-08-17T10:03:54Z</time>
      </trkpt>
      <trkpt lat="49.10713" lon="6.16691">
        <ele>186.6331787</ele>
        <time>2012-08-17T10:03:59Z</time>
      </trkpt>
      <trkpt lat="49.10687" lon="6.16704">
        <ele>186.6331787</ele>
        <time>2012-08-17T10:04:03Z</time>
      </trkpt>
      <trkpt lat="49.10667" lon="6.16732">
        <ele>186.6331787</ele>
        <time>2012-08-17T10:04:08Z</time>
      </trkpt>
      <trkpt lat="49.10661" lon="6.16746">
        <ele>186.6331787</ele>
        <time>2012-08-17T10:04:10Z</time>
      </trkpt>
      <trkpt lat="49.10648" lon="6.16771">
        <ele>186.6331787</ele>
        <time>2012-08-17T10:04:15Z</time>
      </trkpt>
      <trkpt lat="49.10646" lon="6.16773">
        <ele>186.6331787</ele>
        <time>2012-08-17T10:04:18Z</time>
      </trkpt>
      <trkpt lat="49.1065" lon="6.16769">
        <ele>186.1524658</ele>
        <time>2012-08-17T10:05:07Z</time>
      </trkpt>
      <trkpt lat="49.10649" lon="6.1677">
        <ele>185.6717529</ele>
        <time>2012-08-17T10:05:08Z</time>
      </trkpt>
      <trkpt lat="49.10636" lon="6.16773">
        <ele>186.1524658</ele>
        <time>2012-08-17T10:05:13Z</time>
      </trkpt>
      <trkpt lat="49.10621" lon="6.16759">
        <ele>186.1524658</ele>
        <time>2012-08-17T10:05:18Z</time>
      </trkpt>
      <trkpt lat="49.10598" lon="6.16729">
        <ele>186.6331787</ele>
        <time>2012-08-17T10:05:24Z</time>
      </trkpt>
      <trkpt lat="49.10555" lon="6.16681">
        <ele>188.0750732</ele>
        <time>2012-08-17T10:05:34Z</time>
      </trkpt>
      <trkpt lat="49.1053" lon="6.16653">
        <ele>188.0750732</ele>
        <time>2012-08-17T10:05:41Z</time>
      </trkpt>
      <trkpt lat="49.10513" lon="6.16636">
        <ele>188.5557861</ele>
        <time>2012-08-17T10:05:47Z</time>
      </trkpt>
      <trkpt lat="49.10506" lon="6.16629">
        <ele>188.5557861</ele>
        <time>2012-08-17T10:05:52Z</time>
      </trkpt>
      <trkpt lat="49.10507" lon="6.16629">
        <ele>188.5557861</ele>
        <time>2012-08-17T10:05:53Z</time>
      </trkpt>
      <trkpt lat="49.10505" lon="6.16627">
        <ele>188.5557861</ele>
        <time>2012-08-17T10:06:02Z</time>
      </trkpt>
      <trkpt lat="49.10492" lon="6.16617">
        <ele>188.5557861</ele>
        <time>2012-08-17T10:06:06Z</time>
      </trkpt>
      <trkpt lat="49.10466" lon="6.16601">
        <ele>188.0750732</ele>
        <time>2012-08-17T10:06:11Z</time>
      </trkpt>
      <trkpt lat="49.10456" lon="6.16593">
        <ele>188.0750732</ele>
        <time>2012-08-17T10:06:13Z</time>
      </trkpt>
      <trkpt lat="49.10423" lon="6.16562">
        <ele>188.5557861</ele>
        <time>2012-08-17T10:06:19Z</time>
      </trkpt>
      <trkpt lat="49.1039" lon="6.16544">
        <ele>187.5943604</ele>
        <time>2012-08-17T10:06:24Z</time>
      </trkpt>
      <trkpt lat="49.10351" lon="6.1651">
        <ele>189.036377</ele>
        <time>2012-08-17T10:06:31Z</time>
      </trkpt>
      <trkpt lat="49.10344" lon="6.16506">
        <ele>189.036377</ele>
        <time>2012-08-17T10:06:32Z</time>
      </trkpt>
      <trkpt lat="49.10321" lon="6.16486">
        <ele>188.5557861</ele>
        <time>2012-08-17T10:06:36Z</time>
      </trkpt>
      <trkpt lat="49.10283" lon="6.16455">
        <ele>189.5169678</ele>
        <time>2012-08-17T10:06:43Z</time>
      </trkpt>
      <trkpt lat="49.10258" lon="6.16437">
        <ele>189.036377</ele>
        <time>2012-08-17T10:06:49Z</time>
      </trkpt>
      <trkpt lat="49.10252" lon="6.16431">
        <ele>188.0750732</ele>
        <time>2012-08-17T10:06:53Z</time>
      </trkpt>
      <trkpt lat="49.10252" lon="6.16431">
        <ele>188.0750732</ele>
        <time>2012-08-17T10:06:54Z</time>
      </trkpt>
      <trkpt lat="49.10253" lon="6.16431">
        <ele>188.5557861</ele>
        <time>2012-08-17T10:07:28Z</time>
      </trkpt>
      <trkpt lat="49.10251" lon="6.1643">
        <ele>188.5557861</ele>
        <time>2012-08-17T10:07:29Z</time>
      </trkpt>
      <trkpt lat="49.1024" lon="6.16422">
        <ele>189.036377</ele>
        <time>2012-08-17T10:07:32Z</time>
      </trkpt>
      <trkpt lat="49.10219" lon="6.16404">
        <ele>189.5169678</ele>
        <time>2012-08-17T10:07:37Z</time>
      </trkpt>
      <trkpt lat="49.10182" lon="6.16373">
        <ele>189.9976807</ele>
        <time>2012-08-17T10:07:44Z</time>
      </trkpt>
      <trkpt lat="49.10149" lon="6.16345">
        <ele>189.5169678</ele>
        <time>2012-08-17T10:07:50Z</time>
      </trkpt>
      <trkpt lat="49.10115" lon="6.16317">
        <ele>189.9976807</ele>
        <time>2012-08-17T10:07:56Z</time>
      </trkpt>
      <trkpt lat="49.10061" lon="6.16271">
        <ele>189.9976807</ele>
        <time>2012-08-17T10:08:05Z</time>
      </trkpt>
      <trkpt lat="49.10028" lon="6.16243">
        <ele>189.5169678</ele>
        <time>2012-08-17T10:08:11Z</time>
      </trkpt>
      <trkpt lat="49.09988" lon="6.16213">
        <ele>189.9976807</ele>
        <time>2012-08-17T10:08:18Z</time>
      </trkpt>
      <trkpt lat="49.09938" lon="6.16172">
        <ele>190.4783936</ele>
        <time>2012-08-17T10:08:26Z</time>
      </trkpt>
      <trkpt lat="49.09894" lon="6.16132">
        <ele>190.4783936</ele>
        <time>2012-08-17T10:08:34Z</time>
      </trkpt>
      <trkpt lat="49.09867" lon="6.1611">
        <ele>190.4783936</ele>
        <time>2012-08-17T10:08:39Z</time>
      </trkpt>
      <trkpt lat="49.09852" lon="6.16098">
        <ele>190.4783936</ele>
        <time>2012-08-17T10:08:42Z</time>
      </trkpt>
      <trkpt lat="49.09842" lon="6.16088">
        <ele>190.4783936</ele>
        <time>2012-08-17T10:08:44Z</time>
      </trkpt>
      <trkpt lat="49.0984" lon="6.16067">
        <ele>190.4783936</ele>
        <time>2012-08-17T10:08:47Z</time>
      </trkpt>
      <trkpt lat="49.09844" lon="6.16059">
        <ele>190.4783936</ele>
        <time>2012-08-17T10:08:48Z</time>
      </trkpt>
      <trkpt lat="49.09866" lon="6.15986">
        <ele>191.4395752</ele>
        <time>2012-08-17T10:08:56Z</time>
      </trkpt>
      <trkpt lat="49.09885" lon="6.15914">
        <ele>190.9589844</ele>
        <time>2012-08-17T10:09:04Z</time>
      </trkpt>
      <trkpt lat="49.09904" lon="6.15855">
        <ele>190.4783936</ele>
        <time>2012-08-17T10:09:11Z</time>
      </trkpt>
      <trkpt lat="49.09917" lon="6.15799">
        <ele>189.5169678</ele>
        <time>2012-08-17T10:09:18Z</time>
      </trkpt>
      <trkpt lat="49.09919" lon="6.15791">
        <ele>189.5169678</ele>
        <time>2012-08-17T10:09:20Z</time>
      </trkpt>
      <trkpt lat="49.09928" lon="6.15794">
        <ele>189.9976807</ele>
        <time>2012-08-17T10:09:25Z</time>
      </trkpt>
      <trkpt lat="49.09936" lon="6.15802">
        <ele>189.9976807</ele>
        <time>2012-08-17T10:09:31Z</time>
      </trkpt>
      <trkpt lat="49.09936" lon="6.15803">
        <ele>189.5169678</ele>
        <time>2012-08-17T10:09:32Z</time>
      </trkpt>
      <trkpt lat="49.09938" lon="6.15806">
        <ele>188.5557861</ele>
        <time>2012-08-17T10:10:12Z</time>
      </trkpt>
      <trkpt lat="49.09938" lon="6.15809">
        <ele>188.0750732</ele>
        <time>2012-08-17T10:10:13Z</time>
      </trkpt>
      <trkpt lat="49.09938" lon="6.15809">
        <ele>188.5557861</ele>
        <time>2012-08-17T10:10:14Z</time>
      </trkpt>
    </trkseg>
  </trk>
</gpx>